[[{"header":{"parameterUnit":"m.s-1","parameterCategory":1,"la1":30.6,"la2":29.2853,"lo1":-89.7004,"lo2":-87.6739,"dy":0.0162,"dx":0.0183,"nx":112,"ny":82,"refTime":"2023-10-23T18:00:00:Z","depth":0,"parameterNumber":2,"parameterNumberName":"U-component_of_WINDS"},"data":[0.0,0.0,0.0,0.0,0.0,0.0,0.0,0.0,0.0,0.0,0.0,0.0,0.0,0.0,0.0,0.0,0.0,0.0,0.0,0.0,0.0,0.0,0.0,0.0,0.0,0.0,0.0,0.0,0.0,0.0,0.0,0.0,0.0,0.0,0.0,0.0,0.0,0.0,0.0,0.0,0.0,0.0,0.0,0.0,0.0,0.0,0.0,0.0,0.0,0.0,0.0,0.0,0.0,0.0,0.0,0.0,0.0,0.0,0.0,0.0,0.0,0.0,0.0,0.0,0.0,0.0,0.0,0.0,0.0,0.0,0.0,0.0,0.0,0.0,0.0,0.0,0.0,0.0,0.0,0.0,0.0,0.0,0.0,0.0,0.0,0.0,0.0,0.0,0.0,0.0,0.0,0.0,0.0211,0.0407,0.0589,0.1132,0.1648,0.2082,0.0,0.0,0.0,0.0,0.0,0.0,0.0,0.0,0.0,0.0,0.0,0.0,0.0,0.0,0.0,0.0,0.0,0.0,0.0,0.0,0.0,0.0,0.0,0.0,0.0,0.0,0.0,0.0,0.0,0.0,0.0,0.0,0.0,0.0,0.0,0.0,0.0,0.0,0.0,0.0,0.0,0.0,0.0,0.0,0.0,0.0,0.0,0.0,0.0,0.0,0.0,0.0,0.0,0.0,0.0,0.0,0.0,0.0,0.0,0.0,0.0,0.0,0.0,0.0,0.0,0.0,0.0,0.0,0.0,0.0,0.0,0.0,0.0,0.0,0.0,0.0,0.0,0.0,0.0,0.0,0.0,0.0,0.0,0.0,0.0,0.0,0.0,0.0,0.0,0.0,0.0,0.0,0.0,0.0,0.0,0.0,0.0,0.0,0.0,0.0,0.0,0.0,0.0,0.0,0.0,0.0,0.0045,0.0071,0.0095,0.0865,0.1436,0.1685,0.0,0.0,0.0,0.0,0.0,0.0,0.0,0.0,0.0,0.0,0.0,0.0,0.0,0.0,0.0,0.0,0.0,0.0,0.0,0.0,0.0,0.0,0.0,0.0,0.0,0.0,0.0,0.0,0.0,0.0,0.0,0.0,0.0,0.0,0.0,0.0,0.0,0.0,0.0,0.0,0.0,0.0,0.0,0.0,0.0,0.0,0.0,0.0,0.0,0.0,0.0,0.0,0.0,0.0,0.0,0.0,0.0,0.0,0.0,0.0,0.0,0.0,0.0,0.0,0.0,0.0,0.0,0.0,0.0,0.0,0.0,0.0,0.0,0.0,0.0,0.0,0.0,0.0,0.0,0.0,0.0,0.0,0.0,0.0,0.0,0.0,0.0,0.0,0.0,0.0,0.0,0.0,0.0,0.0,0.0,0.0,0.0,0.0,0.0,0.0,0.0,0.0,0.0,0.0,0.0,0.0,0.0,0.0,0.0,0.0773,0.1338,0.1528,0.272,0.0,0.0,0.0,0.0,0.0,0.0,0.0,0.0,0.0,0.0,0.0,0.0,0.0,0.0,0.0,0.0,0.0,0.0,0.0,0.0,0.0,0.0,0.0,0.0,0.0,0.0,0.0,0.0,0.0,0.0,0.0,0.0,0.0,0.0,0.0,0.0,0.0,0.0,0.0,0.0,0.0,0.0,0.0,0.0,0.0,0.0,0.0,0.0,0.0,0.0,0.0,0.0,0.0,0.0,0.0,0.0,0.0,0.0,0.0,0.0,0.0,0.0,0.0,0.0,0.0,0.0,0.0,0.0,0.0,0.0,0.0,0.0,0.0,0.0,0.0,0.0,0.0,0.0,0.0,0.0,0.0,0.0,0.0,0.0,0.0,0.0,0.0,0.0,0.0,0.0,0.0,0.0,0.0,0.0,0.0,0.0,0.0,0.0,0.0,0.0,0.0,0.0,0.0,0.0,0.0,0.0,0.0,0.0,0.0693,0.1224,0.1433,0.2608,0.0,0.0,0.0,0.0,0.0,0.0,0.0,0.0,0.0,0.0,0.0,0.0,0.0,0.0,0.0,0.0,0.0,0.0,0.0,0.0,0.0,0.0,0.0,0.0,0.0,0.0,0.0,0.0,0.0,0.0,0.0,0.0,0.0,0.0,0.0,0.0,0.0,0.0,0.0,0.0,0.0,0.0,0.0,0.0,0.0,0.0,0.0,0.0,0.0,0.0,0.0,0.0,0.0,0.0,0.0,0.0,0.0,0.0,0.0,0.0,0.0,0.0,0.0,0.0,0.0,0.0,0.0,0.0,0.0,0.0,0.0,0.0,0.0,0.0,0.0,0.0,0.0,0.0,0.0,0.0,0.0,0.0,0.0,0.0,0.0,0.0,0.0,0.0,0.0,0.0,0.0,0.0,0.0,0.0,0.0,0.0,0.0,0.0,0.0,0.0,0.0,0.0,0.0,0.0,0.0,0.0,0.0,0.0,0.0569,0.1035,0.1305,0.2332,0.0,0.0,0.0,0.0,0.0,0.0,0.0,0.0,0.0,0.0,0.0,0.0,0.0,0.0,0.0,0.0,0.0,0.0,0.0,0.0,0.0,0.0,0.0,0.0,0.0,0.0,0.0,0.0,0.0,0.0,0.0,0.0,0.0,0.0,0.0,0.0,0.0,0.0,0.0,0.0,0.0,0.0,0.0,0.0,0.0,0.0,0.0,0.0,0.0,0.0,0.0,0.0,0.0,0.0,0.0,0.0,0.0,0.0,0.0,0.0,0.0,0.0,0.0,0.0,0.0,0.0,0.0,0.0,0.0,0.0,0.0,0.0,0.0,0.0,0.0,0.0,0.0,0.0,0.0,0.0,0.0,0.0,0.0,0.0,0.0,0.0,0.0,0.0,0.0,0.0,0.0,0.0,0.0,0.0,0.0,0.0,0.0,0.0,0.0,0.0,0.0,0.0,0.0,0.0,0.0,0.0,0.0,0.0,0.0514,0.0892,0.1038,0.0,0.0,0.0,0.0,0.0,0.0,0.0,0.0,0.0,0.0,0.0,0.0,0.0,0.0,0.0,0.0,0.0,0.0,0.0,0.0,0.0,0.0,0.0,0.0,0.0,0.0,0.0,0.0,0.0,0.0,0.0,0.0,0.0,0.0,0.0,0.0,0.0,0.0,0.0,0.0,0.0,0.0,0.0,0.0,0.0,0.0,0.0,0.0,0.0,0.0,0.0,0.0,0.0,0.0,0.0,0.0,0.0,0.0,0.0,0.0,0.0,0.0,0.0,0.0,0.0,0.0,0.0,0.0,0.0,0.0,0.0,0.0,0.0,0.0,0.0,0.0,0.0,0.0,0.0,0.0,0.0,0.0,0.0,0.0,0.0,0.0,0.0,0.0,0.0,0.0,0.0,0.0,0.0,0.0,0.0,0.0,0.0,0.0,0.0,0.0,0.0,0.0,0.0,0.0,0.0,0.0,0.0,0.0,0.0,0.0398,0.0676,0.0732,0.0,0.0,0.0,0.0,0.0,0.0,0.0,0.0,0.0,0.0,0.0,0.0,0.0,0.0,0.0,0.0,0.0,0.0,0.0,0.0,0.0,0.0,0.0,0.0,0.0,0.0,0.0,0.0,0.0,0.0,0.0,0.0,0.0,0.0,0.0,0.0,0.0,0.0,0.0,0.0,0.0,0.0,0.0,0.0,0.0,0.0,0.0,0.0,0.0,0.0,0.0,0.0,0.0,0.0,0.0,0.0,0.0,0.0,0.0,0.0,0.0,0.0,0.0,0.0,0.0,0.0,0.0,0.0,0.0,0.0,0.0,0.0,0.0,0.0,0.0,0.0,0.0,0.0,0.0,0.0,0.0,0.0,0.0,0.0,0.0,0.0,0.0,0.0,0.0,0.0,0.0,0.0,0.0,0.0,0.0,0.0,0.0,0.0,0.0,0.0,0.0,0.0,0.0,0.0,0.0,0.0,0.0,0.0,0.0,0.0184,0.032,0.0,0.0,0.0,0.0,0.0,0.0,0.0,0.0,0.0,0.0,0.0,0.0,0.0,0.0,0.0,0.0,0.0,0.0,0.0,0.0,0.0,0.0,0.0,0.0,0.0,0.0,0.0,0.0,0.0,0.0,0.0,0.0,0.0,0.0,0.0,0.0,0.0,0.0,0.0,0.0,0.0,0.0,0.0,0.0,0.0,0.0,0.0,0.0,0.0,0.0,0.0,0.0,0.0,0.0,0.0,0.0,0.0,0.0,0.0,0.0,0.0,0.0,0.0,0.0,0.0,0.0,0.0,0.0,0.0,0.0,0.0,0.0,0.0,0.0,0.0,0.0,0.0,0.0,0.0,0.0,0.0,0.0,0.0,0.0,0.0,0.0,0.0,0.0,0.0,0.0,0.0,0.0,0.0,0.0,0.0,0.0,0.0,0.0,0.0,0.0,0.0,0.0,0.0,-0.0209,-0.0094,0.0,0.0,0.0,0.0,0.0,0.0182,0.0283,0.0255,0.0,0.0,0.0,0.0,0.0,0.0,0.0,0.0,0.0,0.0,0.0,0.0,0.0,0.0,0.0,0.0,0.0,0.0,0.0,0.0,0.0,0.0,0.0,0.0,0.0,0.0,0.0,0.0,0.0,0.0,0.0,0.0,0.0,0.0,0.0,0.0,0.0,0.0,0.0,0.0,0.0,0.0,0.0,0.0,0.0,0.0,0.0,0.0,0.0,0.0,0.0,0.0,0.0,0.0,0.0,0.0,0.0,0.0,0.0,0.0,0.0,0.0,0.0,0.0,0.0,0.0,0.0,0.0,0.0,0.0,0.0,0.0,0.0,0.0,0.0,0.0,0.0,0.0,0.0,0.0,0.0,0.0,0.0,0.0,0.0,0.0,0.0,0.0,0.0,0.0,0.0,0.0,0.0,0.0,0.0,0.0,0.0,0.0,0.0,0.0,0.0,0.0,-0.0672,-0.0514,-0.0404,-0.0398,-0.0263,-0.0155,-0.0169,0.004,0.017,0.0121,0.0,0.0,0.0,0.0,0.0,0.0,0.0,0.0,0.0,0.0,0.0,0.0,0.0,0.0,0.0,0.0,0.0,0.0,0.0,0.0,0.0,0.0,0.0,0.0,0.0,0.0,0.0,0.0,0.0,0.0,0.0,0.0,0.0,0.0,0.0,0.0,0.0,0.0,0.0,0.0,0.0,0.0,0.0,0.0,0.0,0.0,0.0,0.0,0.0,0.0,0.0,0.0,0.0,0.0,0.0,0.0,0.0,0.0,0.0,0.0,0.0,0.0,0.0,0.0,0.0,0.0,0.0,0.0,0.0,0.0,0.0,0.0,0.0,0.0,0.0,0.0,0.0,0.0,0.0,0.0,0.0,0.0,0.0,0.0,0.0,0.0,0.0,0.0,0.0,0.0,0.0,0.0,0.0,0.0,0.0,0.0,0.0,0.0,0.0,0.0,0.0,0.0,-0.1322,-0.1188,-0.1087,-0.1071,-0.0744,-0.0507,-0.0486,-0.0262,-0.0114,-0.0088,0.0,0.0,0.0,0.0,0.0,0.0,0.0,0.0,0.0,0.0,0.0,0.0,0.0,0.0,0.0,0.0,0.0,0.0,0.0,0.0,0.0,0.0,0.0,0.0,0.0,0.0,0.0,0.0,0.0,0.0,0.0,0.0,0.0,0.0,0.0,0.0,0.0,0.0,0.0,0.0,0.0,0.0,0.0,0.0,0.0,0.0,0.0,0.0,0.0,0.0,0.0,0.0,0.0,0.0,0.0,0.0,0.0,0.0,0.0,0.0,-1.2712,-1.2042,0.0,0.0,0.0,0.0,0.0,0.0,0.0,0.0,0.0,0.0,0.0,0.0,0.0,0.0,0.0,0.0,0.0,0.0,0.0,0.0,0.0,0.0,0.0,0.0,0.0,0.0,0.0,0.0,0.0,0.0,0.0,0.0,0.0,0.0,0.0,0.0,0.0,0.0,0.0,0.0,-0.2066,-0.1905,-0.1723,-0.1573,-0.1531,-0.1389,-0.1139,-0.1049,-0.0933,-0.0722,-0.0633,0.0,0.0,0.0,0.0,0.0,0.0,0.0,0.0,0.0,0.0,0.0,0.0,0.0,0.0,0.0,0.0,0.0,0.0,0.0,0.0,0.0,0.0,0.0,0.0,0.0,0.0,0.0,0.0,0.0,0.0,0.0,0.0,0.0,0.0,0.0,0.0,0.0,0.0,0.0,0.0,0.0,0.0,0.0,0.0,0.0,0.0,0.0,0.0,0.0,0.0,0.0,0.0,0.0,0.0,0.0,0.0,0.0,0.0,0.0,-1.4623,-1.3625,0.0,0.0,0.0,0.0,0.0,0.0,0.0,0.0,0.0,0.0,0.0,0.0,0.0,0.0,0.0,0.0,0.0,0.0,0.0,0.0,0.0,0.0,0.0,0.0,0.0,0.0,0.0,0.0,0.0,0.0,0.0,0.0,0.0,0.0,0.0,0.0,0.0,0.0,0.0,0.0,-0.3362,-0.3124,-0.2953,-0.2916,-0.2549,-0.2226,-0.2001,-0.1771,-0.1529,-0.129,-0.1186,0.0,0.0,0.0,0.0,0.0,0.0,0.0,0.0,0.0,0.0,0.0,0.0,0.0,0.0,0.0,0.0,0.0,0.0,0.0,0.0,0.0,0.0,0.0,0.0,0.0,0.0,0.0,0.0,0.0,0.0,0.0,0.0,0.0,0.0,0.0,0.0,0.0,0.0,0.0,0.0,0.0,0.0,0.0,0.0,0.0,0.0,0.0,0.0,0.0,0.0,0.0,0.0,0.0,-1.8157,-1.841,-1.8636,-1.8689,-1.897,-1.9303,-1.6934,-1.5658,-1.5239,-1.4627,0.0,0.0,0.0,0.0,0.0,0.0,0.0,0.0,0.0,0.0,0.0,0.0,0.0,0.0,0.0,0.0,0.0,0.0,0.0,0.0,0.0,0.0,0.0,0.0,-0.9936,-0.9327,-0.7739,0.0,0.0,0.0,0.0,0.0,0.0,0.0,0.0,0.0,0.0,0.0,-0.4692,-0.4451,-0.4312,-0.4372,-0.3758,-0.3263,-0.3092,-0.2699,-0.2351,-0.2107,-0.1954,-0.171,0.0,0.0,0.0,0.0,0.0,0.0,0.0,0.0,0.0,0.0,0.0,0.0,0.0,0.0,0.0,0.0,0.0,0.0,0.0,0.0,0.0,0.0,0.0,0.0,0.0,0.0,0.0,0.0,0.0,0.0,0.0,0.0,-1.4999,-1.5297,0.0,0.0,0.0,0.0,0.0,0.0,0.0,0.0,0.0,0.0,0.0,0.0,0.0,-1.8517,-1.9332,-1.9666,-2.008,-2.0588,-2.0927,-2.1087,-2.1127,-2.1381,-2.151,-2.155,-2.0949,0.0,-1.7503,-1.6678,0.0,0.0,0.0,0.0,0.0,0.0,0.0,0.0,0.0,0.0,0.0,0.0,0.0,0.0,0.0,0.0,0.0,0.0,0.0,0.0,0.0,0.0,-1.2788,-1.2596,-1.2517,-1.2112,0.0,-0.9147,-0.775,-0.7231,-0.7026,0.0,0.0,0.0,0.0,0.0,0.0,0.0,-0.5434,-0.5418,-0.5314,-0.5093,-0.5061,-0.4943,-0.4648,-0.4382,-0.4066,-0.3627,-0.3435,-0.3013,-0.2348,-0.2062,0.0,0.0,0.0,0.0,0.0,0.0,0.0,0.0,0.0,0.0,0.0,0.0,0.0,0.0,0.0,0.0,0.0,0.0,0.0,0.0,0.0,0.0,0.0,0.0,0.0,0.0,0.0,0.0,0.0,-1.5454,-1.5949,-1.6553,-1.6498,-1.6337,0.0,0.0,0.0,0.0,0.0,0.0,0.0,0.0,0.0,-1.9321,-1.9936,-2.0579,-2.1269,-2.1704,-2.2191,-2.2605,-2.2899,-2.3255,-2.3576,-2.371,-2.3728,-2.375,-2.342,-2.2512,-2.1122,-1.9225,-1.7876,-1.7022,0.0,0.0,0.0,0.0,-1.67,-1.686,-1.7208,-1.7195,-1.7023,-1.6921,0.0,0.0,0.0,0.0,0.0,0.0,0.0,0.0,0.0,0.0,-1.4797,-1.4744,-1.4482,-1.399,-1.3136,-1.1821,-1.0274,0.0,-0.7853,-0.7395,-0.6936,0.0,0.0,0.0,0.0,-0.6199,-0.6422,-0.6341,-0.63,-0.6331,-0.606,-0.5824,-0.5654,-0.5342,-0.4997,-0.4609,-0.4389,-0.3984,-0.3314,-0.3074,-0.2675,0.0,0.0,0.0,0.0,0.0,0.0,0.0,0.0,0.0,0.0,0.0,0.0,0.0,0.0,0.0,0.0,0.0,0.0,0.0,0.0,0.0,0.0,0.0,0.0,0.0,0.0,0.0,0.0,-1.6366,-1.6993,-1.7956,-1.7809,-1.7568,0.0,0.0,0.0,0.0,0.0,0.0,-1.9359,-2.0013,-2.0722,-2.1475,-2.2144,-2.2733,-2.3207,-2.3741,-2.4155,-2.4486,-2.473,-2.5104,-2.5531,-2.5598,-2.5636,-2.5518,-2.5253,-2.4863,-2.4165,-2.1537,-1.9797,-1.877,-1.841,-1.7943,-1.7555,-1.7983,-1.8277,-1.8451,-1.8811,-1.8838,-1.8663,-1.8516,-1.8036,-1.7448,-1.7048,0.0,0.0,0.0,0.0,-1.6403,-1.6369,-1.6545,-1.6747,-1.6707,-1.638,-1.5825,-1.508,-1.4215,-1.2783,0.0,-0.8945,-0.8355,-0.7832,0.0,0.0,0.0,0.0,-0.7074,-0.7291,-0.7146,-0.7073,-0.7289,-0.6892,-0.6597,-0.6502,-0.6192,-0.5845,-0.5505,-0.5308,-0.4954,-0.4406,-0.4194,-0.3799,-0.3174,0.0,0.0,0.0,0.0,0.0,0.0,0.0,0.0,0.0,0.0,0.0,0.0,0.0,0.0,0.0,0.0,0.0,0.0,0.0,0.0,0.0,0.0,0.0,0.0,0.0,0.0,0.0,0.0,0.0,-1.916,-1.9011,0.0,0.0,0.0,0.0,-1.9599,-2.0231,-2.0922,-2.1764,-2.2645,-2.3273,-2.3643,-2.4486,-2.505,-2.5358,-2.5703,-2.6011,-2.6266,-2.6547,-2.6707,-2.6747,-2.7028,-2.7001,-2.6694,-2.668,-2.6386,-2.5703,-2.3273,-2.1764,-2.0895,-2.029,-1.992,-1.9653,-1.9679,-2.004,-2.0481,-2.0197,-2.0321,-2.0485,-1.9893,-1.9132,-1.8317,-1.7742,-1.7541,0.0,0.0,-1.7689,-1.7969,-1.8262,-1.8555,-1.8697,-1.8442,-1.8357,-1.797,-1.6582,-1.5864,-1.4571,0.0,-1.0515,-0.9909,-0.9065,0.0,-0.8494,-0.8494,-0.8065,-0.7805,-0.7923,-0.7717,-0.756,-0.7574,-0.7543,-0.7483,-0.735,-0.715,-0.6886,-0.6557,-0.6394,-0.6125,-0.572,-0.5519,-0.5271,-0.4976,-0.4417,0.0,0.0,0.0,0.0,0.0,0.0,0.0,0.0,0.0,0.0,0.0,0.0,0.0,0.0,0.0,0.0,0.0,0.0,0.0,0.0,0.0,0.0,0.0,0.0,0.0,0.0,0.0,0.0,-2.0927,-2.082,0.0,-2.1283,-2.1069,-2.1136,-2.1756,-2.2358,-2.3081,-2.3964,-2.4673,-2.5369,-2.6038,-2.6507,-2.6814,-2.6921,-2.7028,-2.7134,-2.7228,-2.7335,-2.7482,-2.7724,-2.7817,-2.771,-2.7388,-2.7388,-2.7161,-2.676,-2.5678,-2.4409,-2.3046,-2.2425,-2.2031,-2.1823,-2.1991,-2.2205,-2.2365,-2.2225,-2.2164,-2.1957,-2.0962,-2.0307,-1.9786,-1.9185,-1.9011,-1.8971,-1.8812,-1.8945,-1.9199,-1.9305,-1.9546,-1.97,-1.9612,-1.9333,-1.8889,-1.8164,-1.7414,-1.6365,-1.4581,-1.2609,-1.1101,-1.0624,-0.9956,-0.9451,-0.9267,-0.8944,-0.8683,-0.8649,-0.8266,-0.8021,-0.8112,-0.789,-0.7712,-0.7658,-0.7428,-0.7179,-0.6943,-0.6797,-0.6565,-0.6197,-0.6114,-0.5907,-0.5547,-0.534,-0.5021,0.0,0.0,0.0,0.0,0.0,0.0,0.0,0.0,0.0,0.0,0.0,0.0,0.0,0.0,0.0,0.0,0.0,0.0,0.0,0.0,0.0,0.0,0.0,0.0,0.0,-1.9933,-2.1269,-2.288,-2.2893,-2.3,-2.3554,-2.3434,-2.3562,-2.4044,-2.4646,-2.5288,-2.5932,-2.6653,-2.7215,-2.7709,-2.8096,-2.8341,-2.8361,-2.8361,-2.8391,-2.8492,-2.8492,-2.8547,-2.8642,-2.8642,-2.8533,-2.8301,-2.8301,-2.8192,-2.803,-2.7527,-2.6756,-2.5721,-2.4626,-2.3968,-2.3669,-2.3848,-2.3915,-2.3901,-2.3772,-2.35,-2.3041,-2.2017,-2.143,-2.106,-2.0579,-2.0321,-2.0201,-2.0013,-2.0094,-2.0241,-2.0241,-2.0388,-2.0477,-2.037,-2.0094,-1.969,-1.9179,-1.8524,-1.7774,-1.6873,-1.4752,-1.2943,-1.2486,-1.1745,-1.1149,-1.0981,-1.0476,-1.0019,-0.9771,-0.92,-0.8723,-0.8552,-0.8213,-0.7935,-0.7814,-0.7631,-0.7455,-0.7283,-0.7188,-0.7043,-0.6805,-0.6805,-0.6675,-0.6415,-0.6263,-0.5868,-0.5258,0.0,0.0,0.0,0.0,0.0,0.0,0.0,0.0,0.0,0.0,0.0,0.0,0.0,0.0,0.0,0.0,0.0,0.0,0.0,0.0,0.0,0.0,0.0,-2.0726,-2.175,-2.3153,-2.4917,-2.5181,-2.5422,-2.6011,-2.6078,-2.6198,-2.6453,-2.7055,-2.751,-2.7762,-2.8561,-2.8908,-2.8684,-2.9232,-2.9599,-2.9754,-2.9754,-2.9849,-3.0042,-3.0056,-2.9888,-2.9593,-2.9593,-2.9593,-2.9593,-2.9593,-2.9593,-2.9509,-2.8814,-2.8772,-2.8962,-2.6889,-2.5728,-2.5219,-2.5181,-2.5168,-2.5077,-2.4746,-2.4289,-2.3736,-2.3148,-2.2559,-2.1991,-2.1716,-2.1422,-2.1162,-2.1136,-2.1136,-2.1122,-2.1122,-2.1122,-2.1042,-2.0762,-2.0712,-2.0472,-1.9615,-1.9182,-1.8766,-1.8248,-1.6842,-1.5447,-1.4621,-1.4007,-1.3649,-1.3649,-1.2679,0.0,-1.1311,-1.0551,-0.9751,-0.8947,-0.8609,-0.828,-0.7876,-0.7814,-0.7753,-0.7617,-0.7604,-0.7597,-0.7597,-0.7597,-0.7597,-0.7597,-0.7157,-0.6561,-0.5824,0.0,0.0,0.0,0.0,0.0,0.0,0.0,0.0,0.0,0.0,0.0,0.0,0.0,0.0,0.0,0.0,0.0,0.0,0.0,0.0,0.0,-2.0989,-2.2084,-2.1951,-2.3327,-2.485,-2.6186,-2.672,-2.7162,-2.755,-2.7791,-2.8003,-2.8283,-2.8657,-2.9142,-2.965,-2.986,-3.006,-3.0194,-3.0354,-3.0407,-3.0339,-3.0679,-3.0855,-3.0881,-3.1566,-3.1635,-3.125,-3.159,-3.1547,-3.1264,-3.159,-3.1373,-3.0803,-3.0967,-3.0723,-3.0157,-2.8137,-2.7496,-2.7584,-2.7265,-2.6676,-2.5985,-2.5692,-2.5064,-2.4332,-2.4209,-2.3754,-2.3215,-2.2693,-2.2479,-2.2331,-2.1871,-2.1622,-2.1462,-2.1462,-2.1269,-2.1082,-2.1002,-2.0828,-2.0646,-2.0391,-2.0087,-1.9665,-1.9152,-1.8671,-1.7884,-1.639,-1.5515,-1.4979,-1.4798,-1.4005,0.0,-1.2725,-1.1744,-1.0877,-1.0306,-0.9609,-0.9095,-0.8829,-0.8369,-0.8066,-0.8031,-0.7753,-0.7597,-0.7597,-0.7597,-0.7597,-0.7597,-0.7372,-0.7057,0.0,0.0,0.0,0.0,0.0,0.0,0.0,0.0,0.0,0.0,0.0,0.0,0.0,0.0,0.0,0.0,0.0,0.0,0.0,0.0,0.0,0.0,-2.296,-2.4352,-2.4756,-2.5743,-2.68,-2.7816,-2.8457,-2.8968,-2.9262,-2.9419,-2.9593,-2.9722,-2.9927,-3.0181,-3.0574,-3.0662,-3.0742,-3.0795,-3.1147,-3.1294,-3.1315,-3.2202,-3.2658,-3.2689,-3.3848,-3.4074,-3.352,-3.4193,-3.4279,-3.3806,-3.4081,-3.3936,-3.3464,-3.3018,-3.2787,0.0,0.0,0.0,0.0,0.0,-2.7338,-2.6533,-2.6279,-2.5757,-2.5144,-2.4903,-2.4502,-2.4048,-2.3567,-2.3247,-2.2979,-2.2645,-2.2245,-2.1917,-2.1796,-2.1555,-2.1269,-2.1136,-2.0975,-2.0828,-2.0726,-2.0535,-2.0281,-1.9813,-1.9626,0.0,-1.8228,-1.7268,-1.6571,-1.6411,-1.5685,-1.4931,-1.4294,-1.3325,-1.2342,-1.1524,-1.0789,-1.0197,-0.9746,-0.9133,0.0,0.0,0.0,-0.7876,-0.7763,-0.7763,0.0,0.0,0.0,-0.7517,-0.7248,0.0,0.0,0.0,-0.4448,-0.4044,0.0,0.0,0.0,0.0,0.0,0.0,0.0,0.0,0.0,0.0,0.0,0.0,0.0,0.0,0.0,0.0,-2.4954,-2.6787,-2.8192,-2.85,-2.8848,-2.9499,-3.0172,-3.0641,-3.0822,-3.0929,-3.0969,-3.0902,-3.0915,-3.0929,-3.0889,-3.1189,0.0,0.0,0.0,-3.2292,-3.2493,-3.3986,-3.4818,-3.5004,-3.6556,-3.6877,-3.6149,-3.7175,-3.7288,-3.6752,-3.6896,-3.6927,-3.6708,-3.529,-3.5063,-3.5279,-3.2307,-3.0642,-2.976,-2.8658,-2.7703,-2.6867,-2.6626,0.0,0.0,-2.5382,-2.4957,-2.4599,-2.4342,-2.3861,-2.3372,-2.3305,-2.2878,-2.2405,-2.2111,-2.185,-2.1555,-2.1229,-2.1162,-2.1082,-2.0788,-2.0753,-2.0641,-2.0304,-2.008,-1.9893,-1.9853,-1.8918,-1.8156,-1.81,-1.7453,-1.6656,-1.5889,-1.5055,-1.4044,-1.274,0.0,0.0,-1.0744,-1.0112,-0.9533,-0.8973,-0.8602,-0.8287,-0.8013,-0.7988,-0.802,-0.804,-0.804,-0.7922,-0.7691,-0.7691,-0.7554,-0.7224,-0.6235,-0.5761,0.0,0.0,0.0,0.0,0.0,0.0,0.0,0.0,0.0,0.0,0.0,0.0,0.0,0.0,0.0,-2.5115,-2.6934,-2.8444,-2.9432,-3.0394,-3.0841,-3.0306,-3.0962,-3.1343,-3.1156,-3.1784,-3.2059,-3.1577,-3.1717,-3.1744,-3.1564,-3.1921,-3.2157,-3.2102,-3.3051,-3.3626,-3.3819,-3.5288,-3.6347,-3.6881,-3.87,0.0,-3.8818,-3.9722,-3.9722,-3.8933,-3.9696,-3.9512,-3.8621,-3.9074,-3.8509,-3.7136,-3.4506,-3.2494,-3.1099,-3.0609,-2.9269,-2.7635,-2.7376,-2.6716,-2.5971,-2.5864,-2.5462,-2.4943,-2.4599,-2.4279,0.0,-2.3425,-2.306,-2.2746,-2.2418,-2.2124,-2.1863,-2.1569,-2.1502,-2.1422,-2.1082,-2.1029,-2.0935,-2.0641,-2.0579,-2.0428,-2.0157,-1.9367,-1.8753,-1.8725,-1.8221,-1.7618,-1.6969,-1.6314,-1.5571,-1.4656,-1.3904,-1.3152,-1.241,-1.1463,-1.0571,-0.9805,-0.8899,-0.8287,-0.8013,-0.7988,-0.8074,-0.8247,-0.8253,-0.8282,-0.832,-0.832,-0.8281,-0.8197,-0.7256,-0.6761,0.0,0.0,0.0,0.0,0.0,0.0,0.0,0.0,0.0,0.0,0.0,-2.1029,-2.2218,0.0,-2.5384,-2.7014,-2.8644,-2.9953,-3.0688,-3.1604,-3.1885,-3.1149,-3.1711,-3.2099,-3.1904,-3.234,-3.2474,-3.2179,-3.2104,-3.2038,-3.1891,-3.2219,-3.2502,-3.2786,-3.401,-3.49,-3.5445,-3.7219,-3.8373,-3.8919,-4.0892,-4.1604,-4.116,-4.2355,-4.2531,-4.1896,-4.24,-4.2246,-4.1695,-4.1534,-4.0422,-3.8776,-3.752,-3.5407,-3.299,-3.2212,-3.0732,-2.9094,-2.8735,-2.7925,-2.703,-2.6879,-2.6421,-2.5742,-2.5283,-2.4797,-2.4292,-2.3852,-2.3554,-2.3255,-2.2752,-2.2572,-2.2345,-2.1903,-2.1796,-2.1756,-2.1577,-2.143,-2.1315,-2.1181,-2.0913,-2.0659,-2.0481,-1.9943,-1.9503,-1.9386,-1.8871,-1.833,-1.7907,-1.7489,-1.6929,-1.6223,-1.5544,-1.4838,-1.4068,-1.2485,-1.1198,-1.0357,-0.9536,-0.89,-0.8466,-0.8459,-0.8424,-0.8403,-0.8403,-0.8437,-0.8505,-0.856,-0.8635,-0.8683,-0.8326,-0.7981,0.0,0.0,0.0,0.0,0.0,0.0,0.0,-1.9997,-2.0824,-2.1563,-2.2365,-2.3313,-2.4569,-2.5905,-2.7308,-2.8791,-3.0114,-3.1169,-3.1805,-3.23,-3.242,-3.1938,-3.2353,-3.2674,-3.2674,-3.2728,-3.2714,-3.2607,-3.2415,-3.2276,-3.2168,-3.2592,-3.3069,-3.3587,-3.518,-3.6404,-3.7242,-3.934,-4.0629,-4.1142,-4.3108,-4.3736,-4.3304,-4.4553,-4.487,-4.4314,-4.4384,-4.4418,-4.4352,-4.3223,-4.1914,-4.0525,-4.0347,-3.8451,-3.5617,-3.4039,-3.2309,-3.0688,-3.0238,-2.9372,-2.8377,-2.8027,-2.7418,-2.6683,-2.6081,-2.5334,-2.4626,-2.4369,-2.4075,-2.3763,-2.3215,-2.3081,-2.292,-2.2331,-2.2151,-2.2124,-2.205,-2.1836,-2.1662,-2.1662,-2.1234,-2.0873,-2.0873,-2.0548,-2.0184,-1.992,-1.945,-1.9046,-1.8726,-1.8488,-1.8136,-1.7517,-1.7005,-1.6343,-1.5363,-1.3498,-1.198,-1.0993,-1.0421,-0.9839,-0.9186,-0.9055,-0.89,-0.8673,-0.8627,-0.8601,-0.8682,-0.8784,-0.8906,-0.9,-0.9172,-0.9029,-1.7582,-1.7515,-1.7555,-1.7836,-1.8756,-1.9826,0.0,-2.155,-2.2498,-2.3621,-2.4356,-2.5224,-2.6693,-2.7709,-2.8845,-3.0314,-3.1129,-3.1818,-3.242,-3.2554,-3.2567,-3.25,-3.2781,-3.2982,-3.2982,-3.316,-3.3106,-3.2634,-3.2943,-3.2927,-3.2395,-3.3695,-3.4666,-3.5133,-3.7039,-3.8491,-3.9358,-4.1373,-4.2785,-4.3618,-4.5138,-4.5656,-4.5208,-4.5789,-4.5598,-4.4838,-4.4903,-4.4933,-4.4888,-4.4363,-4.3607,-4.2672,-4.1886,-4.0874,-3.9504,-3.6667,-3.4139,-3.2031,-3.1625,-3.0709,-2.9588,-2.8895,-2.8199,-2.7457,-2.6735,-2.5821,-2.497,-2.4639,-2.4346,-2.4075,-2.379,-2.371,-2.3549,-2.2947,-2.28,-2.2653,-2.2131,-2.1997,-2.197,-2.197,-2.1703,-2.1489,-2.1489,-2.102,-2.0521,-2.0197,-2.0104,-1.9863,-1.9356,-1.9263,-1.9008,-1.8405,-1.8092,-1.7256,-1.5693,-1.4662,-1.3544,-1.22,-1.1622,-1.0923,-1.0092,-0.9597,-0.9326,-0.9291,-0.8996,-0.8987,-0.9308,-0.9328,-0.9313,-0.9334,-0.9376,-0.9356,-1.7969,-1.809,-1.8557,-1.9372,-2.0454,-2.1611,-2.2852,-2.3848,-2.477,-2.5824,-2.66,-2.7428,-2.8377,-2.9285,-3.0194,-3.1142,-3.1845,-3.2313,-3.2567,-3.2594,-3.2527,-3.2305,-3.2251,-3.2393,-3.2741,-3.2888,-3.2947,-3.2997,-3.305,-3.3229,-3.3538,-3.4755,-3.5917,-3.6994,-3.8924,-4.06,-4.2074,-4.3288,-4.4297,-4.5169,-4.6155,-4.649,-4.6318,-4.6516,-4.6257,-4.5719,-4.5721,-4.5472,-4.4977,-4.4844,-4.4074,-4.3036,-4.2393,-4.1644,-4.0617,-3.8104,-3.6184,-3.4761,-3.4074,-3.3065,-3.1984,-3.1684,-3.0633,-2.9301,-2.855,-2.7567,-2.6509,-2.5691,-2.5266,-2.4968,-2.4428,-2.4155,-2.3915,-2.3522,-2.3429,-2.3308,-2.2859,-2.2619,-2.2479,-2.2271,-2.2004,-2.1783,-2.1609,-2.1381,-2.1114,-2.0757,-2.0424,-2.0117,-1.9907,-1.9867,-1.9653,-1.9093,-1.8757,-1.8097,-1.6859,-1.6166,-1.5313,-1.4168,-1.357,-1.2777,-1.1698,-1.1073,-1.048,-0.9929,-0.9617,-0.9459,-0.941,-0.9469,-0.9517,-0.9517,-0.9598,-0.9639,-1.849,-1.8945,-1.9813,-2.102,-2.2231,-2.3541,-2.5024,-2.6052,-2.6961,-2.775,-2.839,-2.9005,-2.9513,-3.0127,-3.0768,-3.1436,-3.2086,-3.25,-3.2581,-3.2527,-3.2326,-3.1904,-3.153,-3.1497,-3.1831,-3.2166,-3.2547,-3.3016,-3.3147,-3.3594,-3.4638,-3.6035,-3.743,-3.8738,-4.0637,-4.2458,-4.4199,-4.492,-4.5731,-4.6586,-4.7155,-4.7373,-4.7237,-4.7009,-4.6699,-4.6308,-4.6308,-4.582,-4.4977,-4.4977,-4.4316,-4.3203,-4.2637,-4.2027,-4.1299,-3.9379,-3.8066,-3.713,-3.6351,-3.5375,-3.4401,-3.4182,-3.2913,-3.133,-3.0349,-2.9186,-2.7898,-2.6718,-2.6133,-2.5657,-2.5005,-2.4663,-2.4369,-2.4075,-2.3941,-2.3808,-2.3514,-2.3273,-2.3054,-2.2692,-2.2432,-2.2171,-2.1877,-2.1689,-2.1515,-2.1269,-2.0802,-2.041,-2.033,-2.025,-2.0037,-1.9653,-1.9344,-1.8832,-1.804,-1.7531,-1.6867,-1.5952,-1.5332,-1.4501,-1.3383,-1.2536,-1.1672,-1.0804,-1.0317,-0.996,-0.965,-0.9641,-0.9666,-0.9673,-0.9744,-0.9792,-1.9281,-2.016,-2.1323,-2.2532,-2.3937,-2.5384,-2.6894,-2.7883,-2.8698,-2.9299,-2.9432,-2.9553,-2.9847,-2.9927,-3.0221,-3.1056,-3.173,-3.2211,-3.2554,-3.2291,-3.1904,-3.1316,-3.0742,-3.0333,-3.002,-3.1022,-3.1928,-3.2401,-3.3318,-3.4305,-3.5335,-3.7631,-3.9358,-4.0302,-4.2139,-4.3823,-4.526,-4.6213,-4.7178,-4.8015,-4.8597,-4.8594,-4.8118,-4.7279,-4.6699,-4.6308,-4.6308,-4.582,-4.4977,-4.4977,-4.4492,-4.3594,-4.2754,-4.2382,-4.2225,-4.0896,-3.9629,-3.8484,-3.8087,-3.7352,-3.6499,-3.5703,-3.4572,-3.3226,-3.1693,-3.0163,-2.8705,-2.7526,-2.6641,-2.6001,-2.5568,-2.5264,-2.4983,-2.4639,-2.4396,-2.4115,-2.3857,-2.379,-2.3661,-2.3354,-2.3046,-2.2773,-2.2445,-2.1924,-2.1614,-2.1569,-2.1283,-2.0989,-2.0726,-2.0414,-2.0197,-2.0184,-1.9917,-1.9535,-1.891,-1.8594,-1.8066,-1.721,-1.6582,-1.584,-1.4982,-1.3725,-1.2704,-1.1967,-1.1041,-1.0472,-1.0263,-0.996,-0.9785,-0.9785,-0.9792,-0.9792,-2.0552,-2.185,-2.3281,-2.481,-2.6212,-2.7483,-2.8738,-2.9259,-2.9472,-2.9486,-2.9325,-2.9098,-2.8834,-2.8911,-2.9272,-2.9953,-3.0728,-3.133,-3.1623,-3.1583,-3.1303,-3.0715,-3.0186,-2.9659,-2.9322,-3.0221,-3.1245,-3.2269,-3.3161,-3.4674,-3.7118,-3.8931,-4.0882,-4.3127,-4.4375,-4.5675,-4.7109,-4.7499,-4.7992,-4.8636,-4.8528,-4.8203,-4.7773,-4.7187,-4.6699,-4.6308,-4.6308,-4.5976,-4.543,-4.5137,-4.4512,-4.3652,-4.3086,-4.2676,-4.2343,-4.1931,-4.1322,-4.0578,-3.9584,-3.8898,-3.8405,-3.8101,-3.7155,-3.5943,-3.4897,-3.3436,-3.182,-3.0039,-2.8845,-2.7784,-2.6532,-2.6019,-2.5686,-2.5275,-2.4997,-2.4703,-2.4409,-2.4195,-2.3968,-2.3674,-2.338,-2.3073,-2.2766,-2.2392,-2.2058,-2.1903,-2.143,-2.1069,-2.0975,-2.0882,-2.0735,-2.0548,-2.0441,-2.0224,-1.981,-1.9661,-1.9328,-1.8632,-1.824,-1.7511,-1.6362,-1.5464,-1.4451,-1.3356,-1.2546,-1.1743,-1.0957,-1.0621,-1.0346,-1.0127,-1.0127,-1.0127,-2.2131,-2.3696,-2.5237,-2.6787,-2.7989,-2.9075,-3.0007,-3.006,-2.978,-2.9272,-2.8591,-2.7909,-2.7349,-2.7362,-2.7762,-2.8564,-2.97,-3.0621,-3.1009,-3.1249,-3.1129,-3.0493,-2.9927,-2.9486,-2.9041,-2.9918,-3.104,-3.2285,-3.3466,-3.5453,-3.8582,-4.0421,-4.2429,-4.4795,-4.5851,-4.6962,-4.8099,-4.808,-4.8358,-4.8894,-4.8418,-4.7988,-4.7558,-4.7129,-4.6699,-4.6308,-4.6308,-4.6055,-4.5688,-4.5371,-4.4746,-4.3906,-4.3476,-4.3027,-4.2637,-4.244,-4.2266,-4.1893,-4.0894,-4.0212,-3.9726,-3.9726,-3.8989,-3.7886,-3.6955,-3.5609,-3.3987,-3.174,-3.0286,-2.9064,-2.7365,-2.6607,-2.6178,-2.5794,-2.5451,-2.5184,-2.4959,-2.4716,-2.4436,-2.4142,-2.3848,-2.3514,-2.31,-2.2686,-2.2325,-2.2031,-2.167,-2.139,-2.1283,-2.1269,-2.1162,-2.0855,-2.0766,-2.0601,-2.0401,-2.0264,-2.0026,-1.9647,-1.9378,-1.8791,-1.7846,-1.7009,-1.6034,-1.4869,-1.392,-1.2918,-1.1878,-1.1285,-1.0816,-1.0467,-1.0347,-1.0315,-2.3955,-2.5638,-2.72,-2.843,-2.9339,-3.01,-3.0648,-3.0287,-2.9579,-2.8657,-2.7295,-2.6066,-2.5464,-2.5371,-2.5772,-2.7001,-2.8657,-3.0047,-3.0662,-3.1263,-3.1376,-3.0566,-3.0172,-2.9771,-2.9182,-3.0151,-3.1377,-3.2648,-3.4322,-3.6598,-3.9667,-4.2064,-4.3998,-4.5418,-4.6756,-4.7681,-4.8146,-4.8127,-4.8405,-4.8894,-4.8418,-4.7988,-4.7558,-4.7129,-4.6699,-4.6308,-4.6308,-4.6074,-4.5746,-4.5727,-4.5176,-4.4394,-4.3926,-4.3476,-4.3066,-4.2637,-4.244,-4.2362,-4.2012,-4.1287,-4.0568,-4.0548,-4.0001,-3.9198,-3.7985,-3.6741,-3.5237,-3.2706,-3.1185,-2.9873,-2.8137,-2.7191,-2.6635,-2.6194,-2.5797,-2.5531,-2.5531,-2.5304,-2.501,-2.4679,-2.4409,-2.4022,-2.3412,-2.2838,-2.2392,-2.2124,-2.2071,-2.197,-2.1649,-2.1609,-2.1489,-2.1162,-2.0882,-2.0753,-2.0726,-2.0441,-2.0237,-2.0224,-1.9994,-1.9676,-1.9346,-1.841,-1.7457,-1.6498,-1.5192,-1.4013,-1.2983,-1.1901,-1.118,-1.0813,-1.0495,-1.0335,-2.6118,-2.7615,-2.9032,-2.9993,-3.0408,-3.0555,-3.0533,-2.9673,-2.8497,-2.6988,-2.5503,-2.4182,-2.3354,-2.3394,-2.4031,-2.5449,-2.7349,-2.8995,-2.9993,-3.0835,-3.1309,-3.1234,-3.1204,-3.1053,-3.0807,-3.1831,-3.3102,-3.4488,-3.5821,-3.7917,-4.1119,-4.3163,-4.5204,-4.7305,-4.7744,-4.8173,-4.8682,-4.8682,-4.8775,-4.8894,-4.8418,-4.7988,-4.7558,-4.7129,-4.6699,-4.6308,-4.6308,-4.623,-4.6113,-4.5801,-4.5351,-4.4824,-4.4394,-4.3945,-4.3535,-4.3418,-4.3183,-4.2891,-4.2793,-4.2226,-4.1425,-4.1113,-4.0899,-4.0548,-3.9574,-3.8626,-3.7451,-3.5242,-3.373,-3.2308,-3.0335,-2.9029,-2.8069,-2.729,-2.6487,-2.5877,-2.5877,-2.5611,-2.5317,-2.5024,-2.4556,-2.4088,-2.3728,-2.3527,-2.3442,-2.3362,-2.3126,-2.2712,-2.201,-2.1903,-2.1796,-2.1502,-2.1408,-2.1274,-2.1015,-2.0935,-2.0788,-2.0575,-2.05,-2.0222,-1.9676,-1.9322,-1.8709,-1.7753,-1.6827,-1.5557,-1.4008,-1.2938,-1.1969,-1.1101,-1.074,-1.0609,-2.807,-2.9312,-3.0368,-3.0862,-3.0795,-3.0421,-2.9798,-2.847,-2.6947,-2.517,-2.342,-2.2017,-2.139,-2.1617,-2.2505,-2.4258,-2.6479,-2.85,-2.9913,-3.0982,-3.1732,-3.2087,-3.2167,-3.2208,-3.2243,-3.3314,-3.4575,-3.5868,-3.702,-3.9066,-4.2296,-4.4252,-4.6113,-4.8034,-4.8312,-4.859,-4.8913,-4.8913,-4.8913,-4.8894,-4.8418,-4.8086,-4.7832,-4.7207,-4.6797,-4.6562,-4.6387,-4.6308,-4.6289,-4.6055,-4.5703,-4.5293,-4.5058,-4.4687,-4.4258,-4.4082,-4.3848,-4.3594,-4.3203,-4.2637,-4.2012,-4.1582,-4.1328,-4.1055,-4.0137,-3.9458,-3.8527,-3.6415,-3.4907,-3.3472,-3.131,-2.9862,-2.8747,-2.7876,-2.7,-2.6333,-2.6333,-2.5999,-2.5625,-2.5331,-2.4903,-2.4489,-2.4195,-2.4048,-2.395,-2.383,-2.3634,-2.334,-2.2832,-2.2418,-2.2071,-2.181,-2.1783,-2.1649,-2.1368,-2.1309,-2.1176,-2.0882,-2.0869,-2.0726,-2.0381,-2.0151,-1.9726,-1.9052,-1.7997,-1.6785,-1.5439,-1.3899,-1.2712,-1.1892,-1.1218,-1.0914,-2.9793,-3.0702,-3.133,-3.1289,-3.0755,-2.9958,-2.8657,-2.6934,-2.5128,-2.3252,-2.1304,-1.9837,-1.9613,-2.008,-2.1194,-2.3241,-2.5745,-2.807,-2.9864,-3.1169,-3.2237,-3.2852,-3.3058,-3.3304,-3.3662,-3.4806,-3.6011,-3.7147,-3.8391,-4.0419,-4.331,-4.527,-4.6865,-4.8173,-4.8682,-4.8913,-4.8913,-4.8913,-4.8913,-4.8894,-4.8476,-4.8262,-4.8183,-4.7441,-4.6987,-4.687,-4.6543,-4.6348,-4.6308,-4.6308,-4.6055,-4.5727,-4.5727,-4.541,-4.498,-4.4609,-4.4453,-4.4297,-4.3516,-4.293,-4.2441,-4.1953,-4.1523,-4.1055,-4.0216,-3.9745,-3.9017,-3.701,-3.5565,-3.4191,-3.2067,-3.0525,-2.9277,-2.8342,-2.754,-2.6921,-2.6881,-2.6426,-2.5971,-2.5678,-2.5358,-2.505,-2.4759,-2.4543,-2.4289,-2.4071,-2.3977,-2.3924,-2.3924,-2.31,-2.2432,-2.2138,-2.2071,-2.1924,-2.1662,-2.1649,-2.1529,-2.1243,-2.1229,-2.1229,-2.1229,-2.0943,-2.0624,-2.0291,-1.9008,-1.7848,-1.6903,-1.487,-1.3519,-1.2784,-1.1752,-1.1234,-3.0875,-3.1463,-3.1891,-3.165,-3.0654,-2.9192,-2.7509,-2.5398,-2.3172,-2.1157,-1.949,-1.8355,-1.8329,-1.9038,-2.0217,-2.2037,-2.4566,-2.6827,-2.8353,-3.0167,-3.1793,-3.303,-3.3836,-3.4707,-3.5739,-3.6712,-3.7891,-3.9505,-4.1301,-4.2895,-4.4296,-4.6141,-4.7679,-4.8729,-4.8867,-4.8913,-4.8913,-4.8913,-4.8913,-4.8913,-4.8835,-4.86,-4.8203,-4.8047,-4.7598,-4.6889,-4.6855,0.0,-4.6308,-4.6308,-4.6055,-4.5727,-4.5727,-4.541,-4.4977,-4.4899,-4.4687,-4.4375,-4.4219,-4.3633,-4.2832,-4.2051,-4.1523,-4.1094,-4.0548,-4.0353,-4.0001,-3.8582,-3.7494,-3.6384,-3.4611,-3.273,-3.0939,-2.9674,-2.8548,-2.7595,-2.7269,-2.6774,-2.6293,-2.6253,-2.5798,-2.5424,-2.5333,-2.5317,-2.5264,-2.5224,-2.4796,-2.4452,-2.4452,-2.3679,-2.3046,-2.2773,-2.2485,-2.2231,-2.1937,-2.1943,-2.1917,-2.183,-2.183,-2.183,-2.183,-2.1798,-2.1601,-2.1241,-2.043,-1.9184,-1.7536,-1.5987,-1.442,-1.2784,-1.1986,-1.1476,-3.1797,-3.2118,-3.2185,-3.1583,-3.01,-2.8286,-2.6159,-2.3825,-2.1598,-1.972,-1.8249,-1.7315,-1.7315,-1.8049,-1.9252,-2.1015,-2.3442,-2.5757,-2.7684,-2.97,-3.1597,-3.325,-3.4518,-3.5765,-3.7214,-3.8468,-3.9836,-4.1409,-4.3143,-4.4479,-4.5353,-4.7136,-4.8405,-4.8848,-4.8913,-4.8913,-4.8913,-4.8913,-4.8913,-4.8913,-4.8913,-4.8796,-4.8535,-4.832,-4.7871,-4.7246,-4.7031,-4.6699,-4.6308,-4.6308,-4.6191,-4.5996,-4.5996,-4.5879,-4.5664,-4.5449,-4.5234,-4.5,-4.4551,-4.3965,-4.3301,-4.2676,-4.2031,-4.1386,-4.0704,-4.0509,-4.0236,-3.8956,-3.8163,-3.7268,-3.5561,-3.3847,-3.2253,-3.0954,-2.9363,-2.7989,-2.7417,-2.7081,-2.6881,-2.6881,-2.6613,-2.6373,-2.6226,-2.6066,-2.5919,-2.5772,-2.5371,-2.5053,-2.5053,-2.4426,-2.3834,-2.3415,-2.3207,-2.3006,-2.2712,-2.2686,-2.2619,-2.2492,-2.2479,-2.2412,-2.2218,-2.2205,-2.2071,-2.176,-2.0867,-1.9862,-1.8733,-1.693,-1.536,-1.4065,-1.2841,-1.2143,-3.234,-3.2541,-3.238,-3.145,-2.9579,-2.7376,-2.4983,-2.2525,-2.0254,-1.8585,-1.7301,-1.654,-1.6607,-1.7315,-1.8437,-2.005,-2.2291,-2.4609,-2.6759,-2.8977,-3.1085,-3.3117,-3.4758,-3.6456,-3.8246,-3.9964,-4.1657,-4.3158,-4.4791,-4.5953,-4.6493,-4.8027,-4.8913,-4.8913,-4.8913,-4.8913,-4.8913,-4.8913,-4.8913,-4.8913,-4.8913,-4.8913,-4.8894,-4.8496,-4.8105,-4.7695,-4.7344,-4.6973,-4.6562,-4.6484,-4.6445,-4.6426,-4.6328,-4.6308,-4.6269,-4.5937,-4.5762,-4.5629,-4.4902,-4.4316,-4.3789,-4.3359,-4.2578,-4.1659,-4.0995,-4.0704,-4.0392,-3.9312,-3.8719,-3.8026,-3.6368,-3.4896,-3.3388,-3.1647,-2.9798,-2.8289,-2.7632,-2.7443,-2.7403,-2.7403,-2.7349,-2.7229,-2.6961,-2.672,-2.6533,-2.6305,-2.5932,-2.5705,-2.5705,-2.5184,-2.4613,-2.4231,-2.395,-2.3674,-2.3447,-2.342,-2.3313,-2.3108,-2.3094,-2.2987,-2.2712,-2.2712,-2.2605,-2.2412,-2.147,-2.069,-2.0095,-1.7993,-1.65,-1.5459,-1.3822,-1.2859,-3.1984,-3.2393,-3.238,-3.145,-2.9272,-2.6774,-2.4419,-2.1636,-1.912,-1.7635,-1.654,-1.5992,-1.6284,-1.706,-1.7956,-1.8918,-2.1087,-2.3208,-2.4836,-2.7276,-2.9694,-3.1904,-3.4265,-3.6579,-3.886,-4.1249,-4.3205,-4.4744,-4.671,-4.7829,-4.7883,-4.8524,-4.8913,-4.8913,-4.8913,-4.8913,-4.8913,-4.8913,-4.8913,-4.8913,-4.8913,-4.8913,-4.8913,-4.8855,-4.8555,-4.8144,-4.8105,-4.7851,0.0,-4.7031,-4.6831,-4.6792,-4.6445,-4.6308,-4.6289,-4.625,-4.5996,-4.5707,-4.5629,-4.5019,-4.4258,-4.3789,-4.2812,-4.1797,-4.1718,-4.1426,-4.1016,-4.047,-4.0059,-3.943,-3.8105,-3.6488,-3.4384,-3.1108,-2.9523,-2.8643,-2.8196,-2.7898,-2.7655,-2.7655,-2.7483,-2.7296,-2.7269,-2.7242,-2.7215,-2.7188,-2.6707,-2.6306,-2.6306,-2.5798,-2.5411,-2.5358,-2.4409,-2.379,-2.3763,-2.3763,-2.375,-2.3723,-2.3723,-2.371,-2.3683,-2.3683,-2.3669,-2.3643,-2.3182,-2.2401,-2.1341,-1.9737,-1.801,-1.6159,-1.4568,-1.3393,-3.1062,-3.1664,-3.1805,-3.0702,-2.8711,-2.6293,-2.3581,-2.0962,-1.8677,-1.7194,-1.6313,-1.5896,-1.6184,-1.6693,-1.7456,-1.8648,-2.0454,-2.236,-2.4232,-2.6669,-2.9097,-3.1361,-3.4307,-3.7009,-3.9331,-4.2158,-4.4681,-4.6738,-4.7922,-4.859,-4.859,-4.8775,-4.8913,-4.8913,-4.8913,-4.8913,-4.8913,-4.8913,-4.8913,-4.8913,-4.8913,-4.8913,-4.8913,-4.8913,-4.8613,-4.8203,-4.8203,-4.7969,0.0,-4.7383,-4.7168,-4.687,-4.6694,-4.6523,-4.6308,-4.6308,-4.6191,-4.6016,-4.5762,-4.5273,-4.4707,-4.4258,-4.3418,-4.2519,-4.2266,-4.1894,-4.1464,-4.1052,-4.0584,-3.9962,-3.8679,-3.6488,-3.4001,-3.1565,-3.0067,-2.902,-2.8347,-2.8098,-2.8005,-2.8005,-2.7911,-2.7831,-2.7831,-2.7684,-2.7522,-2.7522,-2.7215,-2.6961,-2.6961,-2.656,-2.6267,-2.6267,-2.5411,-2.4823,-2.4823,-2.4823,-2.4823,-2.4823,-2.4823,-2.4663,-2.4302,-2.4289,-2.4128,-2.3817,-2.3411,-2.2755,-2.1798,-2.05,-1.8931,-1.7111,-1.5363,-1.4072,-2.9686,-3.0547,-3.0742,-2.9553,-2.7709,-2.544,-2.2779,-2.0347,-1.8263,-1.6981,-1.6208,-1.5879,-1.6153,-1.6539,-1.7269,-1.8597,-2.0182,-2.1916,-2.3946,-2.6221,-2.8584,-3.1046,-3.4325,-3.7385,-3.9813,-4.3309,-4.6215,-4.8181,-4.8682,-4.8913,-4.8913,-4.8913,-4.8913,-4.8913,-4.8913,-4.8913,-4.8913,-4.8913,-4.8913,-4.8913,-4.8913,-4.8913,-4.8913,-4.8913,-4.8737,-4.8398,-4.8398,-4.8223,0.0,-4.7812,-4.7519,-4.7109,-4.6928,-4.668,-4.6308,-4.6308,-4.6308,-4.6269,-4.5976,-4.5586,-4.5156,-4.4726,-4.4082,-4.3379,-4.2949,-4.2422,-4.1893,-4.1615,-4.095,-3.9975,-3.8566,-3.6172,-3.3649,-3.173,-3.0359,-2.9272,-2.8389,-2.8179,-2.8179,-2.8179,-2.8179,-2.8179,-2.8179,-2.8005,-2.7871,-2.7871,-2.7575,-2.7429,-2.7429,-2.7134,-2.6947,-2.6947,-2.64,-2.5959,-2.5785,-2.5692,-2.5638,-2.5638,-2.5558,-2.5331,-2.4879,-2.4853,-2.4703,-2.4289,-2.4034,-2.3471,-2.2567,-2.1397,-1.9859,-1.7931,-1.6059,-1.4455,-2.7898,-2.8861,-2.9219,-2.8016,-2.6172,-2.4079,-2.2064,-1.972,-1.7742,-1.6887,-1.6208,-1.5879,-1.6153,-1.6693,-1.7499,-1.8709,-2.0258,-2.1963,-2.384,-2.5723,-2.8002,-3.0872,-3.4257,-3.7533,-4.0398,-4.4787,-4.7829,-4.8828,-4.8913,-4.8913,-4.8913,-4.8913,-4.8913,-4.8913,-4.8913,-4.8913,-4.8913,-4.8913,-4.8913,-4.8913,-4.8913,-4.8913,-4.8913,-4.8913,-4.8913,-4.8894,-4.8894,-4.8894,0.0,-4.8379,-4.7949,-4.7539,-4.709,-4.668,-4.6308,-4.6308,-4.6308,-4.6308,-4.6289,-4.6016,-4.5605,-4.5156,-4.4726,-4.4297,-4.3828,-4.3086,-4.2382,-4.2382,-4.1191,-3.9489,-3.7776,-3.5709,-3.3551,-3.1316,-3.015,-2.9272,-2.8389,-2.8179,-2.8179,-2.8179,-2.8179,-2.8179,-2.8179,-2.8179,-2.8179,-2.8179,-2.7924,-2.7696,-2.7696,-2.7442,-2.7309,-2.7309,-2.7296,-2.7055,-2.6426,-2.6158,-2.5998,-2.5998,-2.5678,-2.5504,-2.5504,-2.5504,-2.5504,-2.5491,-2.5491,-2.4964,-2.3883,-2.2659,-2.0886,-1.8537,-1.6512,-1.4491,-2.5424,-2.64,-2.6881,-2.5852,-2.4502,-2.2886,-2.0828,-1.8985,-1.7475,-1.6618,-1.6099,-1.595,-1.64,-1.6828,-1.7545,-1.8903,-2.0497,-2.2152,-2.3854,-2.6225,-2.8711,-3.1178,-3.6338,-4.1081,-4.4584,-4.6542,-4.7949,-4.8855,-4.8913,-4.8913,-4.8913,-4.8913,-4.8913,-4.8913,-4.8574,-4.8418,-4.8418,-4.8418,-4.8418,-4.8418,-4.8757,-4.8913,-4.8913,-4.8913,-4.8913,-4.8913,-4.8913,-4.8737,-4.8398,-4.8262,-4.7773,-4.7129,-4.6948,-4.668,-4.6308,-4.6308,-4.6308,-4.6308,-4.6308,-4.6035,-4.5688,-4.5508,-4.5176,-4.4805,-4.4648,-4.3789,-4.2772,-4.2157,-4.1178,-3.9973,-3.8487,-3.6447,-3.4263,-3.2107,-3.0718,-2.9536,-2.8443,-2.8179,-2.8179,-2.8179,-2.8179,-2.8179,-2.8179,-2.8179,-2.8179,-2.8179,-2.8098,-2.8045,-2.8045,-2.7965,-2.7911,-2.7911,-2.7911,-2.767,-2.7081,-2.6948,-2.6894,-2.6894,-2.6573,-2.6319,-2.6119,-2.5919,-2.5718,-2.5518,-2.5518,-2.5197,-2.4571,-2.3333,-2.0886,-1.7325,-1.5797,-1.4309,-2.2726,-2.3621,-2.4004,-2.3313,-2.2338,-2.1154,-1.9506,-1.8156,-1.7086,-1.6431,-1.6032,-1.5927,-1.6376,-1.6818,-1.7552,-1.8873,-2.0479,-2.22,-2.4039,-2.6736,-3.0061,-3.4286,-3.914,-4.3459,-4.6786,-4.7541,-4.8105,-4.8855,-4.8913,-4.8913,-4.8913,-4.8757,-4.8659,-4.8659,-4.834,-4.8125,-4.7969,-4.8125,-4.8203,-4.8223,-4.8698,-4.8913,-4.8913,-4.8913,-4.8815,-4.8659,-4.8659,-4.8359,0.0,-4.7969,-4.7558,-4.6889,-4.6889,-4.668,-4.6308,-4.6308,-4.6308,-4.6308,-4.6308,-4.6133,-4.5879,-4.5766,-4.5371,-4.4977,-4.4977,-4.4453,-4.3626,-4.2735,-4.1647,-4.0331,-3.8652,-3.6417,-3.4092,-3.2114,-3.0752,-2.9642,-2.8695,-2.8484,-2.8486,-2.8379,-2.8366,-2.8326,-2.8205,-2.8179,-2.8179,-2.8179,-2.8179,-2.8179,-2.8179,-2.8179,-2.8179,-2.8179,-2.8179,-2.8031,-2.767,-2.7536,-2.7469,-2.7469,-2.7148,-2.6907,-2.6774,-2.6586,-2.6399,-2.6172,-2.6066,-2.5751,-2.5218,-2.3128,-2.0249,-1.6766,-1.5504,-1.4236,0.0,-2.0655,-2.0882,-2.0619,-1.9923,-1.9052,-1.8156,-1.7275,0.0,-1.6324,-1.6019,-1.5893,-1.6181,-1.6706,-1.7496,-1.8691,-2.0245,-2.2096,-2.436,-2.7382,-3.2106,-3.9322,-4.2278,-4.4706,-4.7261,-4.791,-4.8379,-4.8874,-4.8874,-4.8855,-4.8855,-4.8398,-4.8144,-4.8125,-4.8105,-4.793,-4.7539,-4.793,-4.8125,-4.8164,-4.862,-4.8835,-4.8855,-4.8835,-4.86,0.0,-4.8164,-4.793,-4.7539,-4.7539,-4.7285,-4.6831,-4.6831,-4.6641,-4.6308,-4.6308,-4.6308,-4.6308,-4.6308,-4.6308,-4.623,-4.584,-4.5449,-4.5074,-4.5074,-4.5035,-4.4807,-4.3847,-4.2409,-4.0633,-3.8375,-3.5826,-3.3456,-3.1612,-3.0418,-2.9624,-2.9132,-2.9001,-2.8921,-2.8684,-2.8644,-2.8551,-2.8299,-2.8245,-2.8245,-2.8245,-2.8245,-2.8245,-2.8245,-2.8232,-2.8219,-2.8219,-2.8205,-2.8179,-2.8179,-2.7896,-2.7736,-2.7736,-2.7496,-2.7336,-2.7336,-2.7322,-2.7309,-2.7309,-2.7001,-2.648,-2.5765,-2.2414,-1.9469,-1.6907,-1.5584,-1.4313,-1.714,0.0,-1.9343,-1.9078,-1.8677,-1.8156,0.0,-1.6872,-1.6286,-1.5968,-1.5848,-1.5946,-1.6477,-1.6867,-1.7489,-1.8699,-2.0252,-2.2009,-2.4093,-2.9568,-3.5274,-4.0398,-4.2894,-4.5052,-4.7373,-4.7936,-4.8379,-4.8874,-4.8555,-4.8359,-4.8359,-4.7949,-4.7578,-4.7246,-4.7226,-4.7187,-4.709,-4.7187,-4.7402,-4.7734,-4.7832,-4.8047,-4.834,-4.8073,-4.7877,-4.7734,-4.7734,-4.748,-4.709,-4.709,-4.6836,-4.6445,-4.6445,-4.6387,-4.6308,-4.6308,-4.6308,-4.6308,-4.6308,-4.6308,-4.6289,-4.6191,-4.6074,-4.5996,-4.5996,-4.5547,-4.4807,-4.3847,-4.2776,-4.1405,-3.9075,-3.6767,-3.4498,-3.2353,-3.0937,-2.9869,-2.9172,-2.9001,-2.8975,-2.8908,-2.8895,-2.8868,-2.8801,-2.8831,-2.8831,-2.8831,-2.8831,-2.8831,-2.8831,-2.8631,-2.8497,-2.8497,-2.8326,-2.8179,-2.8179,-2.8125,-2.8085,-2.8085,-2.7804,-2.7602,-2.7602,-2.7429,-2.7309,-2.7309,-2.7242,-2.6592,-2.5426,-2.3405,-2.1056,-1.8443,-1.6622,-1.5121,-1.6217,-1.6993,-1.7702,-1.7675,-1.7448,-1.7141,-1.6846,-1.6417,-1.6019,-1.5835,-1.5915,-1.6134,-1.6465,-1.6966,-1.7615,-1.8577,-2.0288,-2.2984,-2.7157,-3.233,-3.7311,-4.1574,-4.3914,-4.5853,-4.7683,-4.8262,-4.8659,-4.8894,-4.8457,-4.8203,-4.8203,-4.7617,-4.7168,-4.6889,-4.6738,-4.6596,-4.6596,-4.6792,-4.7051,-4.7285,-4.748,-4.7695,-4.791,-4.7676,-4.748,-4.7285,-4.7285,-4.7031,-4.6596,-4.6596,-4.6504,-4.6308,-4.6308,-4.6308,-4.6308,-4.6308,-4.6308,-4.6308,-4.6308,-4.6308,-4.6308,-4.6308,-4.6308,-4.6308,-4.6308,-4.5976,-4.539,-4.4462,-4.3398,-4.1941,-3.9321,-3.6961,-3.474,-3.2678,-3.1308,-3.0348,-2.9918,-2.974,-2.9606,-2.9428,-2.9295,-2.9205,-2.9015,-2.9001,-2.9001,-2.9001,-2.9001,-2.9001,-2.9001,-2.8855,-2.8751,-2.8617,-2.8457,-2.8339,-2.8192,-2.8179,-2.8179,-2.8179,-2.8031,-2.7938,-2.7938,-2.7791,-2.7643,-2.751,-2.7468,-2.6785,-2.5298,-2.3863,-2.1749,-1.9089,-1.7186,-1.5611,-1.6217,-1.6324,-1.6431,-1.67,-1.6618,-1.6431,-1.6431,-1.6179,-1.5941,-1.5941,-1.6166,-1.6391,-1.6484,-1.718,-1.7996,-1.8704,-2.0937,-2.4764,-3.1044,-3.48,-3.8469,-4.2604,-4.4926,-4.6758,-4.8073,-4.8594,-4.8913,-4.8913,-4.8398,-4.8105,-4.8105,-4.7305,-4.6792,-4.6792,-4.6484,-4.6308,-4.6308,-4.666,-4.6831,-4.6889,-4.7246,-4.7422,-4.748,-4.7422,-4.7187,-4.6792,-4.6792,0.0,-4.6308,-4.6308,-4.6308,-4.6308,-4.6308,-4.6308,-4.6308,-4.6308,-4.6308,-4.6308,-4.6308,-4.6308,-4.6308,-4.6308,-4.6308,-4.6308,-4.6308,-4.6308,-4.609,-4.5166,-4.3976,-4.2313,-3.9424,-3.6953,-3.4713,-3.2813,-3.156,-3.0795,-3.0795,-3.0595,-3.04,-3.01,-2.982,-2.9553,-2.9295,-2.9228,-2.9215,-2.9255,-2.9228,-2.9202,-2.9202,-2.9121,-2.8975,-2.8764,-2.8698,-2.8551,-2.8286,-2.8259,-2.8232,-2.8192,-2.8179,-2.8179,-2.8179,-2.8179,-2.8072,-2.7776,-2.7762,-2.702,-2.5546,-2.4086,-2.2039,-1.9508,-1.7544,-1.5945,-1.6217,-1.6484,-1.6714,-1.7033,-1.7099,-1.7072,-1.7072,-1.6805,-1.6567,-1.6567,-1.6607,-1.6794,-1.7314,-1.7943,-1.8784,-2.0151,-2.3666,-2.7674,-3.1879,-3.5178,-3.8731,-4.2982,-4.5114,-4.6758,-4.8073,-4.8594,-4.8913,-4.8913,-4.817,-4.7676,-4.7676,-4.6855,-4.6406,-4.6406,-4.6328,-4.6308,-4.6308,-4.6367,-4.6582,-4.6889,-4.6641,-4.668,-4.7012,-4.666,-4.6465,-4.6406,0.0,-4.6367,-4.6308,-4.6308,-4.6308,-4.6308,-4.6308,-4.6308,-4.6308,-4.6308,-4.6308,-4.6308,-4.6308,-4.6308,-4.6308,-4.6308,-4.6308,-4.6308,-4.6308,-4.6308,-4.609,-4.5166,-4.4118,-4.2666,-3.9767,-3.7303,-3.5105,-3.3094,-3.171,-3.0795,-3.0795,-3.0755,-3.0715,-3.0675,-3.0467,-3.0333,-3.0488,-3.0327,-3.0247,-3.0488,-3.0314,-3.0199,-3.0199,-2.9726,-2.9406,-2.9352,-2.9125,-2.8815,-2.8564,-2.8537,-2.843,-2.8205,-2.8179,-2.8179,-2.8179,-2.8179,-2.8165,-2.8112,-2.8112,-2.7635,-2.6571,-2.4608,-2.2625,-2.0665,-1.7902,-1.6128,-1.638,-1.6607,-1.686,-1.7475,-1.7515,-1.7408,-1.7408,-1.7408,-1.7396,-1.7382,-1.7649,-1.8036,-1.8491,-1.9187,-2.0544,-2.3077,-2.6261,-2.9733,-3.3499,-3.6607,-3.9827,-4.3449,-4.5423,-4.6942,-4.8092,-4.8594,-4.8796,-4.8535,-4.793,-4.748,-4.7246,-4.6641,-4.6308,-4.6308,-4.6074,-4.5976,-4.5976,-4.5723,-4.5937,-4.6582,-4.6387,-4.6406,-4.6582,-4.6387,-4.6308,-4.6308,0.0,-4.6308,-4.6308,-4.6308,-4.6308,-4.6308,-4.6308,-4.6308,-4.6308,-4.6308,-4.6308,-4.6308,-4.6308,-4.6308,-4.6348,-4.6562,-4.6641,-4.668,-4.6914,-4.6992,-4.6814,-4.5833,-4.4491,-4.2756,-3.9851,-3.7526,-3.5437,-3.3467,-3.2107,-3.1263,-3.1263,-3.1142,-3.1022,-3.1022,-3.0795,-3.0635,-3.0768,-3.0675,-3.0635,-3.0768,-3.0675,-3.0641,-3.0641,-3.0266,-2.9945,-2.974,-2.9459,-2.9165,-2.8828,-2.8801,-2.8644,-2.8219,-2.8179,-2.8179,-2.8179,-2.8179,-2.8179,-2.8179,-2.8179,-2.7757,-2.6796,-2.4821,-2.292,-2.1077,-1.8225,-1.638,-1.654,-1.67,-1.6902,-1.7769,-1.7889,-1.7862,-1.7996,-1.829,-1.8543,-1.8624,-1.9065,-1.9533,-1.9856,-2.086,-2.2673,-2.589,-2.8375,-3.125,-3.4981,-3.7887,-4.079,-4.4015,-4.5793,-4.719,-4.8248,-4.8574,-4.8574,-4.8223,-4.7734,-4.7285,-4.6909,-4.6445,-4.6152,-4.6152,-4.5742,-4.5527,-4.5527,-4.5195,-4.5351,-4.5996,-4.5996,-4.5996,-4.6016,-4.6113,-4.6152,-4.6152,-4.6269,-4.6308,-4.6308,-4.6308,-4.6308,-4.6308,-4.6308,-4.6308,-4.6308,-4.6308,-4.6308,-4.6308,-4.6308,-4.6367,-4.6504,-4.6772,-4.6948,-4.7148,-4.748,-4.7578,-4.7353,-4.625,-4.4784,-4.2892,-4.0058,-3.7753,-3.5701,-3.3847,-3.2627,-3.1925,-3.1925,-3.169,-3.153,-3.153,-3.1249,-3.1022,-3.1089,-3.0982,-3.0915,-3.0982,-3.0942,-3.0889,-3.0889,-3.0635,-3.0386,-3.0047,-2.982,-2.9539,-2.9135,-2.9041,-2.8818,-2.8326,-2.8219,-2.8179,-2.8179,-2.8179,-2.8179,-2.8179,-2.8179,-2.7757,-2.6796,-2.5025,-2.317,-2.1238,-1.8497,-1.6717,-1.654,-1.67,-1.6902,-1.7769,-1.8209,-1.8571,-1.9147,-1.9666,-2.0117,-2.0428,-2.0735,-2.1042,-2.1368,-2.302,-2.5093,-2.7455,-2.9579,-3.2222,-3.5953,-3.8356,-4.1084,-4.4781,-4.6148,-4.7351,-4.8723,-4.8476,-4.8242,-4.8203,-4.7441,-4.6928,-4.6889,-4.6152,-4.5723,-4.5723,-4.5293,-4.5035,-4.5035,-4.4996,-4.5016,-4.5074,-4.5074,-4.5074,-4.5137,-4.5527,-4.5723,-4.5742,-4.6133,-4.6308,-4.6308,-4.6308,-4.6308,-4.6308,-4.6308,-4.6308,-4.6308,-4.6308,-4.6308,-4.6308,-4.6308,-4.6562,-4.685,-4.687,-4.7207,-4.7539,-4.7578,-4.7578,-4.7308,-4.5841,-4.4691,-4.3288,-4.0784,-3.8245,-3.5975,-3.4403,-3.3256,-3.2527,-3.2527,-3.2514,-3.25,-3.25,-3.2045,-3.169,-3.1957,-3.1557,-3.1289,-3.1617,-3.137,-3.1196,-3.1196,-3.0942,-3.0648,-3.04,-3.036,-3.0119,-2.9499,-2.9205,-2.8868,-2.8591,-2.8353,-2.8179,-2.8179,-2.8179,-2.8179,-2.8179,-2.8179,-2.7728,-2.6796,-2.5367,-2.3514,-2.1228,-1.8846,-1.7016,-1.654,-1.6847,-1.726,-1.8289,-1.9063,-1.9679,-2.0124,-2.1087,-2.2004,-2.2532,-2.2832,-2.3126,-2.342,-2.4703,-2.646,-2.8661,-3.0692,-3.3184,-3.6683,-3.9011,-4.1423,-4.4334,-4.5861,-4.7052,-4.7953,-4.8118,-4.7988,-4.7441,-4.6875,-4.6426,-4.6172,-4.5586,-4.5273,-4.5273,-4.4863,-4.4629,-4.4629,-4.4355,-4.4199,-4.4219,-4.4766,-4.4977,-4.4996,-4.5469,-4.5727,-4.5703,-4.6113,-4.6308,-4.6308,-4.6308,-4.6308,-4.6308,-4.6308,-4.6308,-4.6308,-4.6308,-4.6308,-4.6348,-4.6601,-4.6753,-4.6967,-4.7558,-4.7832,-4.8027,-4.8346,-4.8424,-4.815,-4.7001,-4.5453,-4.3375,-4.0076,-3.7786,-3.5938,-3.4038,-3.3081,-3.2594,-3.2594,-3.2594,-3.2594,-3.2594,-3.226,-3.1971,-3.2078,-3.177,-3.1543,-3.1698,-3.157,-3.1503,-3.1503,-3.1249,-3.1022,-3.0902,-3.0627,-3.0239,-2.9793,-2.9486,-2.9272,-2.9165,-2.8698,-2.8393,-2.8192,-2.8179,-2.8179,-2.8179,-2.8179,-2.7897,-2.722,-2.5537,-2.3815,-2.2093,-1.9186,-1.7192,-1.6567,-1.702,-1.7582,-1.8651,-1.969,-2.0677,-2.1515,-2.2612,-2.3656,-2.4352,-2.477,-2.5117,-2.5411,-2.6199,-2.7473,-2.948,-3.1413,-3.3765,-3.6976,-3.9307,-4.1613,-4.3997,-4.5549,-4.669,-4.7419,-4.7696,-4.75,-4.6733,-4.6348,-4.5859,-4.5312,-4.4844,-4.4551,-4.4414,-4.4004,-4.3769,-4.3769,-4.3457,-4.3301,-4.3301,-4.4062,-4.4473,-4.4629,-4.5078,-4.5351,-4.5488,-4.5918,-4.6172,-4.6308,-4.6308,-4.6308,-4.6308,-4.6308,-4.6308,-4.6308,-4.6308,-4.6308,-4.6367,-4.6777,-4.7012,-4.7246,-4.7969,-4.8301,-4.8476,-4.8815,-4.8913,-4.8682,-4.7476,-4.5912,-4.3672,-3.9913,-3.7696,-3.6021,-3.4269,-3.3304,-3.2875,-3.2875,-3.2875,-3.2875,-3.2875,-3.2585,-3.2345,-3.2251,-3.1998,-3.1818,-3.1724,-3.1711,-3.1711,-3.1711,-3.149,-3.133,-3.1189,-3.0702,-3.0319,-3.0074,-2.9793,-2.9579,-2.9486,-2.9112,-2.8711,-2.8353,-2.8232,-2.8179,-2.8179,-2.8179,-2.7981,-2.7487,-2.575,-2.4158,-2.2611,-1.9491,-1.7447,-1.6633,-1.7141,-1.7809,-1.8676,-2.004,-2.159,-2.3415,-2.4235,-2.4866,-2.5837,-2.644,-2.6934,-2.7269,-2.7509,-2.8265,-2.9943,-3.169,-3.3834,-3.6775,-3.9083,-4.1416,-4.3985,-4.5293,-4.6351,-4.7381,-4.7108,-4.6738,-4.6328,-4.5898,-4.5293,-4.4433,-4.3945,-4.3496,-4.3127,-4.2656,-4.2382,-4.2382,-4.2382,-4.2382,-4.2401,-4.2871,-4.3301,-4.3711,-4.418,-4.4629,-4.4996,-4.5488,-4.5918,-4.6289,-4.6308,-4.6308,-4.6308,-4.6308,-4.6308,-4.6308,-4.6308,-4.6308,-4.6367,-4.6797,-4.7226,-4.7656,-4.8066,-4.8496,-4.8913,-4.8913,-4.8913,-4.857,-4.7056,-4.5912,-4.427,-4.0675,-3.8157,-3.635,-3.5259,-3.4164,-3.3414,-3.3414,-3.3414,-3.3414,-3.3414,-3.3173,-3.2929,-3.2648,-3.2291,-3.2011,-3.1764,-3.1711,-3.1711,-3.1711,-3.1711,-3.1557,-3.1263,-3.0715,-3.0413,-3.04,-3.0087,-2.9793,-2.9499,-2.9486,-2.9219,-2.8631,-2.8353,-2.8192,-2.8192,-2.8179,-2.7981,-2.7487,-2.6103,-2.4458,-2.2654,-1.9839,-1.7753,-1.6913,-1.7635,-1.8437,-1.9319,-2.0802,-2.2445,-2.3986,-2.5157,-2.6239,-2.7549,-2.8123,-2.8283,-2.7991,-2.8297,-2.9028,-3.0325,-3.201,-3.3997,-3.6358,-3.8568,-4.0642,-4.2592,-4.4383,-4.5621,-4.606,-4.6329,-4.6308,-4.5898,-4.4883,-4.418,-4.3926,-4.3203,-4.2754,-4.2617,-4.246,-4.2382,-4.2382,-4.2382,-4.2382,-4.2382,-4.2558,-4.2851,-4.3281,-4.4062,-4.4473,-4.4629,-4.5351,-4.5785,-4.5879,-4.6191,-4.6308,-4.6308,-4.6308,-4.6308,-4.6308,-4.6308,-4.6308,-4.6406,-4.7129,-4.748,-4.7695,-4.8437,-4.8796,-4.8913,-4.8913,-4.8913,-4.8729,-4.7894,-4.6429,-4.4602,-4.244,-3.9543,-3.6681,-3.4862,-3.3914,-3.3414,-3.3414,-3.3414,-3.3414,-3.3414,-3.3173,-3.2929,-3.2648,-3.2291,-3.2011,-3.1764,-3.1711,-3.1711,-3.1711,-3.1711,-3.1557,-3.1263,-3.1076,-3.0808,-3.044,-3.0319,-3.01,-2.9806,-2.9593,-2.9312,-2.8881,-2.8631,-2.847,-2.847,-2.8299,-2.815,-2.7981,-2.6261,-2.4757,-2.3514,-2.0091,-1.7928,-1.722,-1.809,-1.9078,-2.0067,-2.1643,-2.35,-2.5558,-2.676,-2.7789,-2.9045,-2.9446,-2.9459,-2.9129,-2.9325,-2.9802,-3.0587,-3.2274,-3.4003,-3.5621,-3.7961,-4.0013,-4.1442,-4.3156,-4.4343,-4.4674,-4.5214,-4.5269,-4.4686,-4.4077,-4.3476,-4.2969,-4.2461,-4.2109,-4.1933,-4.1933,-4.1933,-4.1933,-4.1933,-4.1933,-4.1933,-4.209,-4.2324,-4.2598,-4.3476,-4.3965,-4.418,-4.5039,-4.541,-4.5449,-4.5879,-4.6055,-4.6074,-4.623,-4.6308,-4.6308,-4.6308,-4.6308,-4.6426,-4.7285,-4.7578,-4.7715,-4.862,-4.8913,-4.8913,-4.8913,-4.8913,-4.8775,-4.8266,-4.6803,-4.4998,-4.327,-4.0271,-3.7224,-3.5295,-3.4114,-3.3414,-3.3414,-3.3414,-3.3414,-3.3414,-3.3267,-3.3026,-3.2661,-3.2447,-3.2144,-3.1778,-3.1711,-3.1711,-3.1711,-3.1711,-3.1597,-3.1423,-3.1289,-3.1089,-3.0742,-3.0533,-3.0333,-3.01,-2.982,-2.9579,-2.9348,-2.8948,-2.8778,-2.8778,-2.8484,-2.8419,-2.8497,-2.6528,-2.5153,-2.4251,-2.0471,-1.8238,-1.7595,-1.8558,-1.9762,-2.0895,-2.2632,-2.4807,-2.759,-2.8684,-2.9392,-3.0239,-3.0453,-3.048,-3.0453,-3.0467,-3.0574,-3.0795,-3.2393,-3.3929,-3.4741,-3.7265,-3.9388,-4.0421,-4.178,-4.2846,-4.3353,-4.3863,-4.3876,-4.3167,-4.3366,-4.3027,-4.1855,-4.1758,-4.1562,-4.123,-4.1211,-4.1211,-4.1211,-4.1211,-4.1211,-4.1211,-4.1562,-4.1738,-4.1777,-4.2637,-4.3262,-4.375,-4.459,-4.4957,-4.5016,-4.5449,-4.5644,-4.5766,-4.6094,-4.6269,-4.6308,-4.6308,-4.6308,-4.6426,-4.7285,-4.7578,-4.7715,-4.862,-4.8913,-4.8913,-4.8913,-4.8913,-4.8821,-4.8312,-4.7056,-4.5459,-4.3461,-4.0513,-3.7716,-3.6251,-3.4612,-3.3414,-3.3414,-3.3414,-3.3414,-3.3414,-3.3414,-3.3227,-3.2701,-3.2594,-3.2393,-3.1805,-3.1711,-3.1711,-3.1711,-3.1711,-3.1711,-3.1711,-3.1423,-3.1203,-3.1176,-3.0742,-3.048,-3.044,-3.014,-2.998,-2.9953,-2.9392,-2.9041,-2.9041,-2.8791,-2.8778,-2.9001,-2.6847,-2.5497,-2.4706,-2.0856,-1.8589,-1.809,-1.9158,-2.0304,-2.151,-2.3995,-2.6573,-2.815,-2.9325,-3.0172,-3.036,-3.0715,-3.0969,-3.0742,-3.0889,-3.1062,-3.1116,-3.2198,-3.3414,-3.4393,-3.6295,-3.8071,-3.9306,-4.1039,-4.2272,-4.252,-4.3055,-4.3302,-4.3109,-4.255,-4.209,-4.1816,-4.1484,-4.1308,-4.1211,-4.1211,-4.1211,-4.1211,-4.1211,-4.1211,-4.1211,-4.1308,-4.1348,-4.1387,-4.2187,-4.2988,-4.373,-4.4297,-4.4726,-4.4996,-4.5117,-4.5371,-4.5727,-4.5824,-4.6016,-4.6308,-4.6308,-4.6308,-4.6426,-4.7285,-4.7578,-4.7715,-4.862,-4.8913,-4.8913,-4.8913,-4.8913,-4.8867,-4.8775,-4.7382,-4.5601,-4.4317,-4.1045,-3.7814,-3.6696,-3.4862,-3.3414,-3.3414,-3.3414,-3.3414,-3.3414,-3.3414,-3.3227,-3.2701,-3.2594,-3.2393,-3.1805,-3.1711,-3.1711,-3.1711,-3.1711,-3.1711,-3.1711,-3.1657,-3.1476,-3.1203,-3.1116,-3.0942,-3.0715,-3.0635,-3.0501,-3.0319,-2.97,-2.9392,-2.9392,-2.9098,-2.8935,-2.9001,-2.7047,-2.5674,-2.4706,-2.0856,-1.8658,-1.845,-1.9423,-2.0757,-2.31,-2.5478,-2.7522,-2.8534,-2.9513,-3.0226,-3.0373,-3.0942,-3.1396,-3.1236,-3.133,-3.1396,-3.1249,-3.2022,-3.2884,-3.3488,-3.5062,-3.6544,-3.7662,-3.9054,-4.0123,-4.069,-4.1412,-4.1843,-4.1838,-4.1828,-4.1719,-4.1504,-4.1289,-4.1211,-4.1211,-4.1211,-4.1211,-4.1211,-4.1211,-4.1211,-4.1211,-4.1211,-4.1211,-4.123,-4.1836,-4.2598,-4.3418,-4.3652,-4.4004,-4.4414,-4.4629,-4.4863,-4.5098,-4.5551,-4.5801,-4.6035,-4.623,-4.6308,-4.6426,-4.7285,-4.7578,-4.7715,-4.862,-4.8913,-4.8913,-4.8913,-4.8729,-4.8497,-4.8497,-4.6897,-4.4903,-4.3842,-4.0707,-3.7519,-3.6449,-3.4762,-3.3414,-3.3414,-3.3414,-3.3414,-3.3414,-3.3414,-3.3227,-3.2701,-3.2367,-3.2072,-3.1764,-3.1711,-3.1711,-3.1711,-3.1711,-3.1711,-3.1711,-3.1711,-3.161,-3.145,-3.1303,-3.1156,-3.1009,-3.0862,-3.0728,-3.0614,-3.0186,-2.9878,-2.9686,-2.9406,-2.9194,-2.9092,-2.727,-2.5774,-2.446,-2.1088,-1.89,-1.8649,-1.9757,-2.1424,-2.4636,-2.6547,-2.7843,-2.8655,-2.9419,-2.998,-3.0279,-3.1029,-3.1597,-3.1597,-3.1597,-3.1517,-3.1263,-3.1759,-3.2316,-3.2566,-3.3787,-3.4983,-3.5925,-3.6816,-3.7671,-3.8493,-3.956,-4.0201,-4.0266,-4.1086,-4.1425,-4.1113,-4.1172,-4.1211,-4.1211,-4.1211,-4.1211,-4.1211,-4.1211,-4.1211,-4.1211,-4.1211,-4.1211,-4.123,-4.1523,-4.2129,-4.2871,-4.3008,-4.3281,-4.3633,-4.4082,-4.4375,-4.457,-4.5293,-4.5664,-4.582,-4.6172,-4.6308,-4.6426,-4.7285,-4.7578,-4.7715,-4.862,-4.8913,-4.8913,-4.8913,-4.8544,-4.808,-4.7987,-4.6129,-4.3937,-4.2936,-3.998,-3.7027,-3.6053,-3.4563,-3.3414,-3.3414,-3.3414,-3.3414,-3.3414,-3.3374,-3.3187,-3.2755,-3.2179,-3.1791,-3.1791,-3.1751,-3.1711,-3.1711,-3.1764,-3.1764,-3.1724,-3.1764,-3.1764,-3.1724,-3.145,-3.1303,-3.1303,-3.1076,-3.0915,-3.0862,-3.0635,-3.0368,-3.0074,-2.974,-2.9477,-2.926,-2.7578,-2.5946,-2.4298,-2.1348,-1.9241,-1.8649,-2.0681,-2.2974,-2.474,-2.6279,-2.7523,-2.8165,-2.9125,-2.9927,-2.9967,-3.0675,-3.1289,-3.1289,-3.1289,-3.1276,-3.1236,-3.1095,-3.1351,-3.2231,-3.2905,-3.3568,-3.4389,-3.5637,-3.6537,-3.6896,-3.8106,-3.8999,-3.9347,-4.0167,-4.0645,-4.0588,-4.0958,-4.1211,-4.1211,-4.1211,-4.1211,-4.1211,-4.1211,-4.1211,-4.1211,-4.1211,-4.1211,-4.1211,-4.1269,-4.1523,-4.2012,-4.2754,-4.3105,-4.3183,-4.3613,-4.4258,-4.4961,-4.5058,-4.5566,-4.623,-4.6289,-4.6308,-4.6426,-4.7285,-4.7578,-4.7715,-4.862,-4.8913,-4.8913,-4.8913,-4.8544,-4.8034,-4.7596,-4.5659,-4.3431,-4.2409,-3.9445,-3.6568,-3.5954,-3.4563,-3.3414,-3.3414,-3.3414,-3.3414,-3.3414,-3.3213,-3.3013,-3.2982,-3.2438,-3.2051,-3.2051,-3.1837,-3.1711,-3.1711,-3.1891,-3.1944,-3.1738,-3.1891,-3.1944,-3.1738,-3.1684,-3.161,-3.161,-3.1617,-3.1436,-3.1183,-3.1129,-3.0969,-3.0688,-3.014,-2.9737,-2.9528,-2.8016,-2.6387,-2.458,-2.1555,-1.9434,-1.8878,-2.0735,-2.2719,-2.4044,-2.5489,-2.6814,-2.7724,-2.8473,-2.9018,-2.9308,-2.986,-3.0394,-3.0889,-3.0982,-3.0929,-3.0768,-3.0488,-3.0474,-3.1063,-3.1151,-3.1517,-3.2425,-3.3297,-3.4202,-3.5076,-3.6345,-3.7515,-3.8457,-3.9524,-4.0236,-4.0509,-4.0958,-4.1211,-4.1211,-4.1211,-4.1211,-4.1211,-4.1211,-4.1211,-4.1211,-4.1211,-4.1211,-4.1211,-4.1211,-4.1406,-4.1816,-4.2207,-4.2637,-4.3086,-4.3281,-4.373,-4.4336,-4.4824,-4.5211,-4.5644,-4.6133,-4.6308,-4.6426,-4.7285,-4.7578,-4.7715,-4.862,-4.8913,-4.8867,-4.8544,-4.7894,-4.7056,-4.5941,-4.3842,-4.1544,-4.019,-3.7799,-3.5593,-3.5061,-3.4114,-3.3414,-3.3414,-3.3414,-3.3414,-3.3414,-3.3173,-3.2973,-3.2973,-3.2674,-3.234,-3.2131,-3.1998,-3.1904,-3.1904,-3.2024,-3.2118,-3.2206,-3.2131,-3.2051,-3.1917,-3.1805,-3.1711,-3.1711,-3.1711,-3.161,-3.1476,-3.1316,-3.1122,-3.1036,-3.0621,-3.0109,-2.9446,-2.8199,-2.6397,-2.397,-2.1483,-1.9433,-1.9,-2.0374,-2.183,-2.3054,-2.4459,-2.5837,-2.6894,-2.759,-2.8125,-2.8684,-2.9058,-2.9486,-3.0207,-3.0408,-3.0394,-3.0212,-2.9887,-2.9753,-3.0052,-2.9863,-2.9988,-3.0809,-3.1446,-3.2239,-3.3276,-3.4654,-3.6046,-3.7268,-3.87,-3.9726,-4.0157,-4.0841,-4.1211,-4.1211,-4.1211,-4.1211,-4.1211,-4.1211,-4.1211,-4.1211,-4.1211,-4.1211,-4.1211,-4.1211,-4.1348,-4.1641,-4.1758,-4.2226,-4.291,-4.3027,-4.3398,-4.3965,-4.4726,-4.5098,-4.5273,-4.6035,-4.6308,-4.6426,-4.7285,-4.7578,-4.7715,-4.862,-4.8913,-4.8821,-4.8266,-4.7382,-4.6241,-4.4572,-4.2265,-3.9947,-3.8338,-3.6385,-3.4712,-3.4313,-3.3814,-3.3414,-3.3414,-3.3414,-3.3414,-3.3414,-3.324,-3.3093,-3.3093,-3.2902,-3.2634,-3.2358,-3.2265,-3.2211,-3.2211,-3.2278,-3.2385,-3.2581,-3.246,-3.2291,-3.2225,-3.2059,-3.1938,-3.1938,-3.1872,-3.1784,-3.1784,-3.149,-3.1343,-3.1343,-3.1129,-3.0564,-2.9602,-2.847,-2.6566,-2.3977,-2.1608,-1.9551,-1.8743,-1.9597,-2.057,-2.179,-2.3193,-2.4529,-2.5424,-2.6493,-2.7523,-2.8112,-2.8473,-2.8751,-2.9028,-2.9366,-2.9539,-2.9526,-2.9285,-2.9202,-2.9667,-2.9683,-2.979,-3.0042,-3.0807,-3.1393,-3.1624,-3.3198,-3.4571,-3.548,-3.7472,-3.888,-3.9333,-4.0529,-4.1211,-4.1211,-4.1211,-4.1211,-4.1211,-4.1211,-4.1211,-4.1211,-4.1211,-4.1211,-4.1211,-4.1211,-4.123,-4.1269,-4.1621,-4.2051,-4.246,-4.291,-4.3574,-4.4414,-4.4801,-4.5273,-4.5703,-4.6133,-4.6308,-4.6426,-4.7285,-4.7578,-4.7715,-4.862,-4.8913,-4.8821,-4.8266,-4.7382,-4.6213,-4.4192,-4.1737,-3.9364,-3.7863,-3.5841,-3.4214,-3.4214,-3.3814,-3.3414,-3.3414,-3.3414,-3.3414,-3.3414,-3.34,-3.3387,-3.3387,-3.3146,-3.2946,-3.2982,-3.2755,-3.2567,-3.2567,-3.2808,-3.2888,-3.2621,-3.2835,-3.2875,-3.2594,-3.2554,-3.2554,-3.2554,-3.2238,-3.2078,-3.2078,-3.1797,-3.165,-3.165,-3.1684,-3.1254,-3.0426,-2.8942,-2.7211,-2.5329,-2.2203,-1.9963,-1.8223,-1.897,-1.9867,-2.0655,-2.1931,-2.3287,-2.4195,-2.5195,-2.6118,-2.6894,-2.7255,-2.7602,-2.8096,-2.8738,-2.9205,-2.9205,-2.8951,-2.8807,-2.8966,-2.8848,-2.8757,-2.8819,-2.9354,-2.9818,-3.0165,-3.155,-3.2911,-3.4042,-3.5686,-3.7019,-3.804,-3.8814,-3.9452,-3.995,-3.9989,-4.0239,-4.0762,-4.0762,-4.0898,-4.1211,-4.1211,-4.1211,-4.1211,-4.1211,-4.1211,-4.1211,-4.1328,-4.1797,-4.2401,-4.2598,-4.3164,-4.4023,-4.4746,-4.5117,-4.5351,-4.6035,-4.6308,-4.6426,-4.7285,-4.7578,-4.7715,-4.862,-4.8913,-4.8709,-4.7894,-4.6962,-4.5601,-4.2857,-4.0433,-3.824,-3.6336,-3.4798,-3.3714,-3.3714,-3.3564,-3.3414,-3.3414,-3.3414,-3.3414,-3.3414,-3.3414,-3.3414,-3.3414,-3.332,-3.3187,-3.3013,-3.2942,-3.2875,-3.2875,-3.2969,-3.3013,-3.3093,-3.3026,-3.2982,-3.2875,-3.2701,-3.2594,-3.2594,-3.25,-3.2433,-3.2433,-3.234,-3.2286,-3.2286,-3.2286,-3.1758,-3.076,-2.9227,-2.7445,-2.5448,-2.227,-1.9971,-1.7929,-1.8449,-1.9092,-1.9773,-2.0784,-2.1924,-2.2853,-2.3736,-2.4609,-2.5598,-2.6039,-2.648,-2.7255,-2.7854,-2.8348,-2.8684,-2.8577,-2.8457,-2.8457,-2.8312,-2.8179,-2.8179,-2.8571,-2.8908,-2.923,-3.0484,-3.1629,-3.2535,-3.412,-3.5452,-3.6354,-3.7231,-3.8138,-3.9089,-3.9241,-3.9641,-4.0274,-4.0411,-4.0664,-4.0957,-4.1094,-4.1211,-4.1211,-4.1211,-4.1211,-4.1211,-4.1211,-4.1562,-4.2226,-4.2323,-4.2851,-4.3594,-4.4629,-4.4977,-4.5137,-4.5996,-4.6308,-4.6426,-4.7285,-4.7578,-4.7715,-4.862,-4.8913,-4.8729,-4.7894,-4.6822,-4.5318,-4.257,-3.9996,-3.7666,-3.5741,-3.4363,-3.3414,-3.3414,-3.3414,-3.3414,-3.3414,-3.3414,-3.3414,-3.3414,-3.3414,-3.3414,-3.3414,-3.3414,-3.3347,-3.3146,-3.312,-3.312,-3.312,-3.312,-3.32,-3.3387,-3.324,-3.312,-3.312,-3.2946,-3.2888,-3.2888,-3.2795,-3.2741,-3.2741,-3.2648,-3.2594,-3.2594,-3.2594,-3.2213,-3.1491,-2.9745,-2.7976,-2.6163,-2.2675,-1.9858,0.0,0.0,0.0,-1.916,-1.9786,-2.041,-2.1341,-2.2211,-2.3174,-2.4279,-2.481,-2.5384,-2.6547,-2.6734,-2.7068,-2.7978,-2.8152,-2.8165,-2.8165,-2.8165,-2.8165,-2.8165,-2.8516,-2.8768,-2.8768,-2.9983,-3.0795,-3.0922,-3.2888,-3.411,-3.4312,-3.5892,-3.7374,-3.8538,-3.8994,-3.9429,-3.9845,-4.0235,-4.0469,-4.0489,-4.0957,-4.1211,-4.1211,-4.1211,-4.1211,-4.1211,-4.1211,-4.1406,-4.1816,-4.2246,-4.2676,-4.3203,-4.4512,-4.4977,-4.5137,-4.5996,-4.6308,-4.6426,-4.7285,-4.7578,-4.7715,-4.862,-4.8913,-4.8821,-4.8266,-4.7056,-4.5459,-4.3366,-4.0513,-3.7716,-3.6152,-3.4563,-3.3414,-3.3414,-3.3414,-3.3414,-3.3414,-3.3414,-3.3414,-3.3414,-3.3414,-3.3414,-3.3414,-3.3414,-3.3414,-3.3414,-3.3414,-3.3414,-3.3414,-3.3414,-3.3414,-3.3414,-3.3414,-3.3414,-3.3414,-3.3414,-3.3414,-3.3414,-3.3146,-3.2986,-3.2986,-3.2768,-3.2621,-3.2621,-3.2621,-3.2621,-3.2621,-3.0439,-2.885,-2.7688,-2.3385,-1.9608,-1.8049,0.0,0.0,0.0,0.0,0.0,-2.0227,-2.0962,-2.1804,-2.2565,-2.33,-2.4102,-2.5026,-2.5585,-2.6026,-2.6533,-2.7309,-2.7791,-2.7576,-2.7724,-2.7791,-2.7576,-2.782,-2.7996,-2.7996,-2.8662,-2.92,-2.9514,-3.0298,-3.1163,-3.2116,-3.4001,-3.5364,-3.6005,-3.6998,-3.7671,-3.8085,-3.8763,-3.9449,-4.0048,-4.0491,-4.0859,-4.1211,-4.1211,-4.1211,-4.1211,-4.1211,-4.125,-4.1406,-4.2129,-4.2676,-4.3203,-4.4512,-4.4977,-4.5137,-4.5996,-4.6308,-4.6426,-4.7285,-4.7578,-4.7715,-4.862,-4.8913,-4.8821,-4.8266,-4.7056,-4.5459,-4.3366,-4.0513,-3.7455,-3.4748,-3.3714,-3.3414,-3.3414,-3.3414,-3.3414,-3.3414,-3.3414,-3.3414,-3.3414,-3.3414,-3.3414,-3.3414,-3.3414,-3.3414,-3.3414,-3.3414,-3.3414,-3.3414,-3.3414,-3.3414,-3.3414,-3.3414,-3.3414,-3.3414,-3.3414,-3.3414,-3.3414,-3.3334,-3.3293,-3.3293,-3.3213,-3.3173,-3.3173,-3.3173,-3.3173,-3.3173,-3.0627,-2.885,-2.7688,-2.258,-1.8905,0.0,0.0,0.0,-1.8677,0.0,0.0,-1.9412,-1.9826,-2.0401,-2.1109,-2.1764,-2.2565,-2.3688,-2.4182,-2.4583,-2.5168,-2.5999,-2.672,-2.7041,-2.7335,-2.7496,-2.7322,-2.7456,-2.7522,-2.7522,-2.7934,-2.8263,-2.837,-2.8868,-2.9626,-3.0731,-3.2112,-3.3293,-3.4218,-3.5082,-3.59,-3.6624,-3.7446,-3.8274,-3.9165,-3.9894,-4.0472,-4.0919,-4.1094,-4.1211,-4.1211,-4.1211,-4.1211,-4.1269,-4.1894,-4.2422,-4.293,-4.4258,-4.4863,-4.5137,-4.5996,-4.6308,-4.6426,-4.7285,-4.7578,-4.7715,-4.862,-4.8913,-4.8867,-4.8544,-4.7243,-4.5554,-4.389,-4.0562,-3.6829,-3.41,-3.3414,-3.3414,-3.3414,-3.3414,-3.3414,-3.3414,-3.3414,-3.3414,-3.3414,-3.3414,-3.3414,-3.3414,-3.3414,-3.3414,-3.3414,-3.3414,-3.3414,-3.3414,-3.3414,-3.3414,-3.3414,-3.3414,-3.3414,-3.3414,-3.3414,-3.3414,-3.3414,-3.3414,-3.3414,-3.3414,-3.3414,-3.3414,-3.3414,-3.3414,-3.2963,-3.2045,-3.0477,-2.8207,-2.5265,-2.1676,-1.8821,0.0,0.0,0.0,0.0,-1.8758,0.0,-1.885,-1.889,-1.9116,-1.9903,-2.0321,-2.098,-2.2358,-2.2653,-2.2987,-2.3821,-2.4449,-2.5251,-2.6453,-2.6921,-2.7148,-2.7122,-2.7148,-2.7162,-2.7162,-2.7487,-2.7594,-2.7361,-2.8063,-2.8869,-2.969,-3.0192,-3.113,-3.2712,-3.3239,-3.405,-3.5101,-3.6061,-3.6952,-3.7832,-3.9089,-3.9912,-4.0314,-4.0802,-4.1016,-4.0977,-4.1094,-4.1133,-4.1152,-4.1582,-4.2012,-4.2518,-4.3828,-4.4609,-4.5074,-4.5937,-4.6269,-4.6426,-4.7226,-4.7539,-4.776,-4.8561,-4.8855,-4.8913,-4.8821,-4.7476,-4.5601,-4.4032,-4.0174,-3.6053,-3.3964,-3.3414,-3.3414,-3.3414,-3.3414,-3.3414,-3.3414,-3.3414,-3.3414,-3.3414,-3.3414,-3.3414,-3.3414,-3.3414,-3.3414,-3.3414,-3.3414,-3.3414,-3.3414,-3.3414,-3.3414,-3.3414,-3.3414,-3.3414,-3.3414,-3.3414,-3.3414,-3.3414,-3.3414,-3.3414,-3.3414,-3.3414,-3.3414,-3.3414,-3.3414,-3.2347,-3.0189,-3.0076,-2.7254,-2.1959,-2.0833,-1.9119,0.0,0.0,0.0,0.0,-1.9065,0.0,-1.893,-1.889,-1.8943,-1.9116,-1.9412,-1.9883,-2.057,-2.1136,-2.167,-2.2311,-2.2947,-2.383,-2.5224,-2.5917,-2.6158,-2.5879,-2.6105,-2.6252,-2.6252,-2.633,-2.6343,-2.6289,-2.6487,-2.6861,-2.7402,-2.8359,-2.9181,-2.987,-3.1112,-3.1906,-3.2135,-3.3967,-3.5278,-3.6103,-3.7676,-3.8643,-3.8998,-3.9784,-3.9981,-3.9706,-4.0372,-4.0627,-4.0685,-4.1133,-4.1738,-4.2479,-4.3476,-4.4316,-4.5098,-4.5605,-4.6016,-4.6367,-4.6875,-4.7285,-4.7656,-4.8164,-4.8574,-4.8821,-4.8405,-4.7149,-4.4969,-4.0562,-3.77,-3.5557,-3.3864,-3.3414,-3.3414,-3.3414,-3.3414,-3.3414,-3.3414,-3.3414,-3.3414,-3.3414,-3.3414,-3.3414,-3.3414,-3.3414,-3.3414,-3.3414,-3.3414,-3.3414,-3.3414,-3.3414,-3.3414,-3.3414,-3.3414,-3.3414,-3.3414,-3.3414,-3.3414,-3.3414,-3.3414,-3.3414,-3.3414,-3.3414,-3.3414,-3.3414,-3.3414,-3.2347,-3.0189,-2.9303,-2.6476,-2.1959,-2.0833,-1.9119,0.0,0.0,0.0,-1.9583,0.0,0.0,0.0,-1.9025,-1.885,-1.8731,-1.8824,-1.9065,-1.9463,-1.9947,-2.0428,-2.1015,-2.1603,-2.2385,-2.3429,-2.4459,-2.5077,-2.5077,-2.5211,-2.5291,-2.5291,-2.5438,-2.5623,-2.5718,-2.579,-2.5976,-2.6433,-2.6954,-2.7631,-2.8441,-2.918,-2.983,-3.0408,-3.1846,-3.3149,-3.439,-3.5832,-3.6901,-3.7689,-3.8524,-3.8938,-3.9017,-3.9844,-4.0314,-4.0568,-4.123,-4.1855,-4.246,-4.3144,-4.4062,-4.5078,-4.5508,-4.5937,-4.6367,-4.6777,-4.7207,-4.7656,-4.7794,-4.8148,-4.8358,-4.7569,-4.5753,-4.3079,-3.8925,-3.6829,-3.5408,-3.3814,-3.3414,-3.3414,-3.3414,-3.3414,-3.3414,-3.3414,-3.3414,-3.3414,-3.3414,-3.3414,-3.3414,-3.3414,-3.3414,-3.3414,-3.3414,-3.3414,-3.3414,-3.3414,-3.3414,-3.3414,-3.3414,-3.3414,-3.3414,-3.3414,-3.3414,-3.3414,-3.3414,-3.3414,-3.3414,-3.3414,-3.3414,-3.3414,-3.3414,-3.3414,-3.2347,-3.0189,-2.9038,-2.6271,-2.1959,-2.0833,-1.9119,0.0,0.0,0.0,0.0,0.0,-1.9893,0.0,0.0,0.0,-1.8637,-1.8531,-1.8557,-1.877,-1.9038,-1.9401,-1.9863,-2.0397,-2.0975,-2.1563,-2.2726,-2.3714,-2.4199,-2.4252,-2.4252,-2.4252,-2.4516,-2.477,-2.5064,-2.509,-2.5257,-2.5718,-2.5772,-2.624,-2.7234,-2.7476,-2.7994,-2.8939,-2.9967,-3.1191,-3.2618,-3.3942,-3.5055,-3.5965,-3.6912,-3.7552,-3.791,-3.8977,-3.9726,-4.0352,-4.1227,-4.1852,-4.236,-4.291,-4.3867,-4.5058,-4.543,-4.5859,-4.6348,-4.6699,-4.7148,-4.7592,-4.7424,-4.7381,-4.7177,-4.6194,-4.3699,-4.0707,-3.7995,-3.6385,-3.516,-3.3764,-3.3414,-3.3414,-3.3414,-3.3414,-3.3414,-3.3414,-3.3414,-3.3414,-3.3414,-3.3414,-3.3414,-3.3414,-3.3414,-3.3414,-3.3414,-3.3414,-3.3414,-3.3414,-3.3414,-3.3414,-3.3414,-3.3414,-3.3414,-3.3414,-3.3414,-3.3414,-3.3414,-3.3414,-3.3414,-3.3414,-3.3414,-3.3414,-3.3414,-3.3414,-3.2347,-3.0189,-2.9038,-2.6271,-2.1959,-2.0833,-1.9119,0.0,0.0,0.0,0.0,-2.0788,0.0,0.0,0.0,-1.9267,-1.8903,0.0,-1.8504,-1.8531,0.0,0.0,-1.8996,-1.9345,-1.9773,-2.0317,-2.0802,-2.1609,-2.2934,-2.3094,-2.3094,-2.3094,-2.3134,-2.3281,-2.3519,-2.3545,-2.3808,-2.4402,-2.4633,-2.4988,-2.5397,-2.6268,-2.6788,-2.6945,-2.8739,-3.0073,-3.0896,-3.2531,-3.3282,-3.3281,-3.4531,-3.5099,-3.5221,-3.6855,-3.8325,-3.9488,-4.0298,-4.1134,-4.1958,-4.2788,-4.3867,-4.4996,-4.5078,-4.5605,-4.6308,-4.6367,-4.6914,-4.7533,-4.7031,-4.5918,-4.4554,-4.3556,-4.1045,-3.8289,-3.7061,-3.5593,-3.4214,-3.3564,-3.3414,-3.3414,-3.3414,-3.3414,-3.3414,-3.3414,-3.3414,-3.3414,-3.3414,-3.3414,-3.3414,-3.3414,-3.3414,-3.3414,-3.3414,-3.3414,-3.3414,-3.3414,-3.3414,-3.3414,-3.3414,-3.3414,-3.3414,-3.3414,-3.3414,-3.3414,-3.3414,-3.3414,-3.3414,-3.3414,-3.3414,-3.3414,-3.3414,-3.3414,-3.2347,-3.0189,-2.9038,-2.6271,-2.1959,-2.0833,-1.9119,0.0,0.0,0.0,0.0,0.0,0.0,-2.0815,0.0,-2.003,0.0,0.0,0.0,0.0,0.0,0.0,0.0,-1.8918,-1.9199,-1.941,-1.9586,-2.0201,-2.167,-2.1844,-2.1977,-2.2358,-2.2512,-2.2726,-2.3033,-2.322,-2.3399,-2.3639,-2.4128,-2.4516,-2.481,-2.555,-2.6055,-2.627,-2.7454,-2.8511,-2.9448,-3.0375,-3.1123,-3.1689,-3.2705,-3.347,-3.4042,-3.5787,-3.733,-3.8637,-3.9681,-4.0456,-4.1125,-4.191,-4.3204,-4.4655,-4.4927,-4.5565,-4.6265,-4.6002,-4.6456,-4.6915,-4.5742,-4.3845,-4.1912,-4.0852,-3.9007,-3.7012,-3.5989,-3.4947,-3.4064,-3.3564,-3.3414,-3.3414,-3.3414,-3.3414,-3.3414,-3.3414,-3.3414,-3.3414,-3.3414,-3.3414,-3.3414,-3.3414,-3.3414,-3.3414,-3.3414,-3.3414,-3.3414,-3.3414,-3.3414,-3.3414,-3.3414,-3.3414,-3.3414,-3.3414,-3.3414,-3.3414,-3.3414,-3.3414,-3.3414,-3.3414,-3.3414,-3.3414,-3.3414,-3.3414,-3.2347,-3.0189,-2.9038,-2.6271,-2.1959,-2.0833,-1.9119,-2.2472,0.0,0.0,0.0,0.0,0.0,0.0,0.0,0.0,0.0,0.0,0.0,0.0,0.0,0.0,0.0,0.0,-1.8783,-1.8783,-1.8783,-1.9265,-2.0481,-2.0708,-2.0949,-2.1456,-2.1697,-2.1937,-2.2278,-2.2552,-2.2785,-2.3025,-2.3647,-2.4128,-2.4466,-2.517,-2.5611,-2.5877,-2.6644,-2.7478,-2.8409,-2.8815,-2.9467,-3.0276,-3.1052,-3.1865,-3.2772,-3.4409,-3.6016,-3.752,-3.8625,-3.9354,-3.9777,-4.0637,-4.1959,-4.348,-4.441,-4.5285,-4.589,-4.5634,-4.5628,-4.5509,-4.4134,-4.1912,-3.9656,-3.8763,-3.7307,-3.5791,-3.5011,-3.4413,-3.3914,-3.3514,-3.3414,-3.3414,-3.3414,-3.3414,-3.3414,-3.3414,-3.3414,-3.3414,-3.3414,-3.3414,-3.3414,-3.3414,-3.3414,-3.3414,-3.3414,-3.3414,-3.3414,-3.3414,-3.3414,-3.3414,-3.3414,-3.3414,-3.3414,-3.3414,-3.3414,-3.3414,-3.3414,-3.3414,-3.3414,-3.3414,-3.3414,-3.3414,-3.3414,-3.3414,-3.2347,-3.0189,-2.9038,-2.6271,-2.1959,-2.0833,-1.9119,0.0,0.0,0.0,-2.3252,0.0,0.0,0.0,0.0,-2.0699,0.0,0.0,0.0,0.0,0.0,0.0,0.0,0.0,0.0,0.0,-1.8504,-1.8759,-1.9374,-1.9666,-1.996,-2.0224,-2.0264,-2.0397,-2.0753,-2.1015,-2.155,-2.2371,-2.2985,-2.3585,-2.4195,-2.5064,-2.5518,-2.5531,-2.6497,-2.7333,-2.7921,-2.8409,-2.8729,-2.8866,-2.9356,-3.0053,-3.0954,-3.2319,-3.4088,-3.6053,-3.6922,-3.7465,-3.7809,-3.9017,-4.0079,-4.127,-4.3416,-4.4504,-4.5003,-4.5293,-4.4344,-4.2922,-4.2273,-4.032,-3.8093,-3.7617,-3.5989,-3.4263,-3.4263,-3.3864,-3.3414,-3.3414,-3.3414,-3.3414,-3.3414,-3.3414,-3.3414,-3.3414,-3.3414,-3.3414,-3.3414,-3.3414,-3.3414,-3.3414,-3.3414,-3.3414,-3.3414,-3.3414,-3.3414,-3.3414,-3.3414,-3.3414,-3.3414,-3.3414,-3.3414,-3.3414,-3.3414,-3.3414,-3.3414,-3.3414,-3.3414,-3.3414,-3.3414,-3.3414,-3.3414,-3.3414,-3.2347,-3.0189,-2.9038,-2.6271,-2.1959,-2.0833,-1.9119,0.0,0.0,-2.3621,-2.3621,0.0,0.0,0.0,0.0,0.0,0.0,0.0,0.0,0.0,0.0,0.0,0.0,0.0,0.0,0.0,-1.8023,-1.8036,-1.8424,-1.9092,-1.9626,-1.992,-2.009,-2.0237,-2.0344,-2.0655,-2.1029,-2.1491,-2.2265,-2.2972,-2.3607,-2.4663,-2.5317,-2.5504,-2.6411,-2.7082,-2.7513,-2.7825,-2.8136,-2.8445,-2.8866,-2.9356,-3.0025,-3.1581,-3.2984,-3.4266,-3.5323,-3.5759,-3.5938,-3.7106,-3.7914,-3.8913,-4.2039,-4.3734,-4.4356,-4.3588,-4.2062,-4.0266,-3.9626,-3.7897,-3.594,-3.5444,-3.4549,-3.3664,-3.3664,-3.3564,-3.3414,-3.3414,-3.3414,-3.3414,-3.3414,-3.3414,-3.3414,-3.3414,-3.3414,-3.3414,-3.3414,-3.3414,-3.3414,-3.3414,-3.3414,-3.3414,-3.3414,-3.3414,-3.3414,-3.3414,-3.3414,-3.3414,-3.3414,-3.3414,-3.3414,-3.3414,-3.3414,-3.3414,-3.3414,-3.3414,-3.3414,-3.3414,-3.3614,-3.3627,-3.3414,-3.3614,-3.2554,-3.0189,-2.9038,-2.6271,-2.1959,-2.0833,-1.9119,-2.4396,-2.4315,0.0,-2.4102,-2.3669,0.0,-2.3081,0.0,-2.2138,0.0,0.0,0.0,0.0,0.0,0.0,0.0,0.0,0.0,0.0,-1.8036,-1.8009,-1.8303,-1.8664,-1.9011,-1.9305,-1.9506,-1.9623,-1.973,-2.004,-2.0458,-2.0922,-2.179,-2.2592,-2.3265,-2.4462,-2.5302,-2.5665,-2.644,-2.7028,-2.7415,-2.7602,-2.7898,-2.8234,-2.8487,-2.8878,-2.9495,-3.0706,-3.1798,-3.2774,-3.3643,-3.4037,-3.4183,-3.5382,-3.6204,-3.7128,-4.0625,-4.2487,-4.3081,-4.1537,-3.991,-3.8386,-3.7542,-3.6138,-3.4662,-3.4313,-3.3814,-3.3414,-3.3414,-3.3414,-3.3414,-3.3414,-3.3414,-3.3414,-3.3414,-3.3414,-3.3414,-3.3414,-3.3414,-3.3414,-3.3414,-3.3414,-3.3414,-3.3414,-3.3414,-3.3414,-3.3414,-3.3414,-3.3414,-3.3414,-3.3414,-3.3414,-3.3414,-3.3414,-3.3414,-3.3414,-3.3414,-3.3414,-3.3414,-3.3414,-3.3414,-3.3414,-3.3721,-3.3734,-3.3414,-3.3569,-3.2505,-3.0189,-2.8682,-2.5912,-2.1959,-2.0616,-1.891]},{"header":{"parameterUnit":"m.s-1","parameterCategory":1,"la1":30.6,"la2":29.2853,"lo1":-89.7004,"lo2":-87.6739,"dy":0.0162,"dx":0.0183,"nx":112,"ny":82,"refTime":"2023-10-23T18:00:00:Z","depth":0,"parameterNumber":3,"parameterNumberName":"V-component_of_WINDS"},"data":[0.0,0.0,0.0,0.0,0.0,0.0,0.0,0.0,0.0,0.0,0.0,0.0,0.0,0.0,0.0,0.0,0.0,0.0,0.0,0.0,0.0,0.0,0.0,0.0,0.0,0.0,0.0,0.0,0.0,0.0,0.0,0.0,0.0,0.0,0.0,0.0,0.0,0.0,0.0,0.0,0.0,0.0,0.0,0.0,0.0,0.0,0.0,0.0,0.0,0.0,0.0,0.0,0.0,0.0,0.0,0.0,0.0,0.0,0.0,0.0,0.0,0.0,0.0,0.0,0.0,0.0,0.0,0.0,0.0,0.0,0.0,0.0,0.0,0.0,0.0,0.0,0.0,0.0,0.0,0.0,0.0,0.0,0.0,0.0,0.0,0.0,0.0,0.0,0.0,0.0,3.082,3.4062,3.8671,4.1482,4.1519,3.9906,3.7737,3.4977,0.0,0.0,0.0,0.0,0.0,0.0,0.0,0.0,0.0,0.0,0.0,0.0,0.0,0.0,0.0,0.0,0.0,0.0,0.0,0.0,0.0,0.0,0.0,0.0,0.0,0.0,0.0,0.0,0.0,0.0,0.0,0.0,0.0,0.0,0.0,0.0,0.0,0.0,0.0,0.0,0.0,0.0,0.0,0.0,0.0,0.0,0.0,0.0,0.0,0.0,0.0,0.0,0.0,0.0,0.0,0.0,0.0,0.0,0.0,0.0,0.0,0.0,0.0,0.0,0.0,0.0,0.0,0.0,0.0,0.0,0.0,0.0,0.0,0.0,0.0,0.0,0.0,0.0,0.0,0.0,0.0,0.0,0.0,0.0,0.0,0.0,0.0,0.0,0.0,0.0,0.0,0.0,0.0,0.0,0.0,0.0,0.0,0.0,0.0,0.0,0.0,0.0,0.0,0.0,3.1992,3.8242,4.1562,4.332,4.332,4.171,3.9271,3.5898,0.0,0.0,0.0,0.0,0.0,0.0,0.0,0.0,0.0,0.0,0.0,0.0,0.0,0.0,0.0,0.0,0.0,0.0,0.0,0.0,0.0,0.0,0.0,0.0,0.0,0.0,0.0,0.0,0.0,0.0,0.0,0.0,0.0,0.0,0.0,0.0,0.0,0.0,0.0,0.0,0.0,0.0,0.0,0.0,0.0,0.0,0.0,0.0,0.0,0.0,0.0,0.0,0.0,0.0,0.0,0.0,0.0,0.0,0.0,0.0,0.0,0.0,0.0,0.0,0.0,0.0,0.0,0.0,0.0,0.0,0.0,0.0,0.0,0.0,0.0,0.0,0.0,0.0,0.0,0.0,0.0,0.0,0.0,0.0,0.0,0.0,0.0,0.0,0.0,0.0,0.0,0.0,0.0,0.0,0.0,0.0,0.0,0.0,0.0,0.0,0.0,0.0,0.0,3.1836,3.5547,4.0117,4.2891,4.4219,4.375,4.1672,3.8922,3.5436,3.1484,0.0,0.0,0.0,0.0,0.0,0.0,0.0,0.0,0.0,0.0,0.0,0.0,0.0,0.0,0.0,0.0,0.0,0.0,0.0,0.0,0.0,0.0,0.0,0.0,0.0,0.0,0.0,0.0,0.0,0.0,0.0,0.0,0.0,0.0,0.0,0.0,0.0,0.0,0.0,0.0,0.0,0.0,0.0,0.0,0.0,0.0,0.0,0.0,0.0,0.0,0.0,0.0,0.0,0.0,0.0,0.0,0.0,0.0,0.0,0.0,0.0,0.0,0.0,0.0,0.0,0.0,0.0,0.0,0.0,0.0,0.0,0.0,0.0,0.0,0.0,0.0,0.0,0.0,0.0,0.0,0.0,0.0,0.0,0.0,0.0,0.0,0.0,0.0,0.0,0.0,0.0,0.0,0.0,0.0,0.0,0.0,0.0,0.0,0.0,0.0,0.0,0.0,3.4453,3.8086,4.0898,4.3125,4.4101,4.3437,4.101,3.8027,3.4541,3.118,0.0,0.0,0.0,0.0,0.0,0.0,0.0,0.0,0.0,0.0,0.0,0.0,0.0,0.0,0.0,0.0,0.0,0.0,0.0,0.0,0.0,0.0,0.0,0.0,0.0,0.0,0.0,0.0,0.0,0.0,0.0,0.0,0.0,0.0,0.0,0.0,0.0,0.0,0.0,0.0,0.0,0.0,0.0,0.0,0.0,0.0,0.0,0.0,0.0,0.0,0.0,0.0,0.0,0.0,0.0,0.0,0.0,0.0,0.0,0.0,0.0,0.0,0.0,0.0,0.0,0.0,0.0,0.0,0.0,0.0,0.0,0.0,0.0,0.0,0.0,0.0,0.0,0.0,0.0,0.0,0.0,0.0,0.0,0.0,0.0,0.0,0.0,0.0,0.0,0.0,0.0,0.0,0.0,0.0,0.0,0.0,0.0,0.0,0.0,0.0,0.0,0.0,3.3945,3.7383,4.082,4.2031,4.2578,4.25,4.0152,3.7212,3.3686,3.0928,0.0,0.0,0.0,0.0,0.0,0.0,0.0,0.0,0.0,0.0,0.0,0.0,0.0,0.0,0.0,0.0,0.0,0.0,0.0,0.0,0.0,0.0,0.0,0.0,0.0,0.0,0.0,0.0,0.0,0.0,0.0,0.0,0.0,0.0,0.0,0.0,0.0,0.0,0.0,0.0,0.0,0.0,0.0,0.0,0.0,0.0,0.0,0.0,0.0,0.0,0.0,0.0,0.0,0.0,0.0,0.0,0.0,0.0,0.0,0.0,0.0,0.0,0.0,0.0,0.0,0.0,0.0,0.0,0.0,0.0,0.0,0.0,0.0,0.0,0.0,0.0,0.0,0.0,0.0,0.0,0.0,0.0,0.0,0.0,0.0,0.0,0.0,0.0,0.0,0.0,0.0,0.0,0.0,0.0,0.0,0.0,0.0,0.0,0.0,0.0,0.0,0.0,3.4375,3.7734,4.0117,4.207,4.2773,4.1758,3.9293,3.6317,3.2796,0.0,0.0,0.0,0.0,0.0,0.0,0.0,0.0,0.0,0.0,0.0,0.0,0.0,0.0,0.0,0.0,0.0,0.0,0.0,0.0,0.0,0.0,0.0,0.0,0.0,0.0,0.0,0.0,0.0,0.0,0.0,0.0,0.0,0.0,0.0,0.0,0.0,0.0,0.0,0.0,0.0,0.0,0.0,0.0,0.0,0.0,0.0,0.0,0.0,0.0,0.0,0.0,0.0,0.0,0.0,0.0,0.0,0.0,0.0,0.0,0.0,0.0,0.0,0.0,0.0,0.0,0.0,0.0,0.0,0.0,0.0,0.0,0.0,0.0,0.0,0.0,0.0,0.0,0.0,0.0,0.0,0.0,0.0,0.0,0.0,0.0,0.0,0.0,0.0,0.0,0.0,0.0,0.0,0.0,0.0,0.0,0.0,0.0,0.0,0.0,0.0,0.0,3.1055,3.457,3.7656,3.9687,4.1719,4.2344,4.0898,3.8396,3.5423,3.1945,0.0,0.0,0.0,0.0,0.0,0.0,0.0,0.0,0.0,0.0,0.0,0.0,0.0,0.0,0.0,0.0,0.0,0.0,0.0,0.0,0.0,0.0,0.0,0.0,0.0,0.0,0.0,0.0,0.0,0.0,0.0,0.0,0.0,0.0,0.0,0.0,0.0,0.0,0.0,0.0,0.0,0.0,0.0,0.0,0.0,0.0,0.0,0.0,0.0,0.0,0.0,0.0,0.0,0.0,0.0,0.0,0.0,0.0,0.0,0.0,0.0,0.0,0.0,0.0,0.0,0.0,0.0,0.0,0.0,0.0,0.0,0.0,0.0,0.0,0.0,0.0,0.0,0.0,0.0,0.0,0.0,0.0,0.0,0.0,0.0,0.0,0.0,0.0,0.0,0.0,0.0,0.0,0.0,0.0,0.0,0.0,0.0,0.0,0.0,0.0,0.0,0.0,3.1875,3.4414,3.6992,3.9609,4.0664,4.0859,3.9961,3.7499,3.453,0.0,0.0,0.0,0.0,0.0,0.0,0.0,0.0,0.0,0.0,0.0,0.0,0.0,0.0,0.0,0.0,0.0,0.0,0.0,0.0,0.0,0.0,0.0,0.0,0.0,0.0,0.0,0.0,0.0,0.0,0.0,0.0,0.0,0.0,0.0,0.0,0.0,0.0,0.0,0.0,0.0,0.0,0.0,0.0,0.0,0.0,0.0,0.0,0.0,0.0,0.0,0.0,0.0,0.0,0.0,0.0,0.0,0.0,0.0,0.0,0.0,0.0,0.0,0.0,0.0,0.0,0.0,0.0,0.0,0.0,0.0,0.0,0.0,0.0,0.0,0.0,0.0,0.0,0.0,0.0,0.0,0.0,0.0,0.0,0.0,0.0,0.0,0.0,0.0,0.0,0.0,0.0,0.0,0.0,0.0,0.0,0.0,0.0,0.0,0.0,0.0,0.0,0.0,3.1874,3.4375,3.6758,3.8789,4.0312,4.0586,3.9101,3.7148,3.453,3.1132,0.0,0.0,0.0,0.0,0.0,0.0,0.0,0.0,0.0,0.0,0.0,0.0,0.0,0.0,0.0,0.0,0.0,0.0,0.0,0.0,0.0,0.0,0.0,0.0,0.0,0.0,0.0,0.0,0.0,0.0,0.0,0.0,0.0,0.0,0.0,0.0,0.0,0.0,0.0,0.0,0.0,0.0,0.0,0.0,0.0,0.0,0.0,0.0,0.0,0.0,0.0,0.0,0.0,0.0,0.0,0.0,0.0,0.0,0.0,0.0,0.0,0.0,0.0,0.0,0.0,0.0,0.0,0.0,0.0,0.0,0.0,0.0,0.0,0.0,0.0,0.0,0.0,0.0,0.0,0.0,0.0,0.0,0.0,0.0,0.0,0.0,0.0,0.0,0.0,0.0,0.0,0.0,0.0,0.0,0.0,0.0,0.0,0.0,0.0,0.0,0.0,0.0,3.2415,3.4918,3.7068,3.8435,4.0155,4.0468,3.875,3.6992,3.4687,3.1601,0.0,0.0,0.0,0.0,0.0,0.0,0.0,0.0,0.0,0.0,0.0,0.0,0.0,0.0,0.0,0.0,0.0,0.0,0.0,0.0,0.0,0.0,0.0,0.0,0.0,0.0,0.0,0.0,0.0,0.0,0.0,0.0,0.0,0.0,0.0,0.0,0.0,0.0,0.0,0.0,0.0,0.0,0.0,0.0,0.0,0.0,0.0,0.0,0.0,0.0,0.0,0.0,0.0,0.0,0.0,0.0,0.0,0.0,0.0,0.0,0.0,0.0,0.0,0.0,0.0,0.0,0.0,0.0,0.0,0.0,0.0,0.0,0.0,0.0,0.0,0.0,0.0,0.0,0.0,0.0,0.0,0.0,0.0,0.0,0.0,0.0,0.0,0.0,0.0,0.0,0.0,0.0,0.0,0.0,0.0,0.0,0.0,0.0,0.0,0.0,0.0,0.0,3.3177,3.5683,3.7601,3.8501,4.011,4.0426,3.8747,3.6991,3.4922,3.2344,0.0,0.0,0.0,0.0,0.0,0.0,0.0,0.0,0.0,0.0,0.0,0.0,0.0,0.0,0.0,0.0,0.0,0.0,0.0,0.0,0.0,0.0,0.0,0.0,0.0,0.0,0.0,0.0,0.0,0.0,0.0,0.0,0.0,0.0,0.0,0.0,0.0,0.0,0.0,0.0,0.0,0.0,0.0,0.0,0.0,0.0,0.0,0.0,0.0,0.0,0.0,0.0,0.0,0.0,0.0,0.0,0.0,0.0,0.0,0.0,3.6853,3.5926,0.0,0.0,0.0,0.0,0.0,0.0,0.0,0.0,0.0,0.0,0.0,0.0,0.0,0.0,0.0,0.0,0.0,0.0,0.0,0.0,0.0,0.0,0.0,0.0,0.0,0.0,0.0,0.0,0.0,0.0,0.0,0.0,0.0,0.0,0.0,0.0,0.0,0.0,0.0,0.0,3.3178,3.5613,3.7578,3.8444,4.0088,4.0406,3.8655,3.6977,3.4909,3.2297,3.054,0.0,0.0,0.0,0.0,0.0,0.0,0.0,0.0,0.0,0.0,0.0,0.0,0.0,0.0,0.0,0.0,0.0,0.0,0.0,0.0,0.0,0.0,0.0,0.0,0.0,0.0,0.0,0.0,0.0,0.0,0.0,0.0,0.0,0.0,0.0,0.0,0.0,0.0,0.0,0.0,0.0,0.0,0.0,0.0,0.0,0.0,0.0,0.0,0.0,0.0,0.0,0.0,0.0,0.0,0.0,0.0,0.0,0.0,0.0,4.1151,3.9017,0.0,0.0,0.0,0.0,0.0,0.0,0.0,0.0,0.0,0.0,0.0,0.0,0.0,0.0,0.0,0.0,0.0,0.0,0.0,0.0,0.0,0.0,0.0,0.0,0.0,0.0,0.0,0.0,0.0,0.0,0.0,0.0,0.0,0.0,0.0,0.0,0.0,0.0,0.0,0.0,3.4328,3.639,3.805,3.8953,4.0232,4.0368,3.8581,3.7302,3.5475,3.2826,3.1501,0.0,0.0,0.0,0.0,0.0,0.0,0.0,0.0,0.0,0.0,0.0,0.0,0.0,0.0,0.0,0.0,0.0,0.0,0.0,0.0,0.0,0.0,0.0,0.0,0.0,0.0,0.0,0.0,0.0,0.0,0.0,0.0,0.0,0.0,0.0,0.0,0.0,0.0,0.0,0.0,0.0,0.0,0.0,0.0,0.0,0.0,0.0,0.0,0.0,0.0,0.0,0.0,0.0,4.9801,5.0582,5.1289,5.1436,5.2207,5.3125,4.7003,4.3685,4.259,4.1522,0.0,0.0,0.0,0.0,0.0,0.0,0.0,0.0,0.0,0.0,0.0,0.0,0.0,0.0,0.0,0.0,0.0,0.0,0.0,0.0,0.0,0.0,0.0,0.0,4.08,4.0101,3.7411,0.0,0.0,0.0,0.0,0.0,0.0,0.0,0.0,0.0,0.0,0.0,3.5787,3.7432,3.8784,3.9524,4.0412,4.0337,3.8744,3.7716,3.6174,3.3841,3.2832,3.1633,0.0,0.0,0.0,0.0,0.0,0.0,0.0,0.0,0.0,0.0,0.0,0.0,0.0,0.0,0.0,0.0,0.0,0.0,0.0,0.0,0.0,0.0,0.0,0.0,0.0,0.0,0.0,0.0,0.0,0.0,0.0,0.0,4.114,4.2029,0.0,0.0,0.0,0.0,0.0,0.0,0.0,0.0,0.0,0.0,0.0,0.0,0.0,5.0875,5.3115,5.4032,5.517,5.6565,5.7398,5.7838,5.7948,5.8646,5.9098,5.9208,5.7556,0.0,4.8335,4.6057,0.0,0.0,0.0,0.0,0.0,0.0,0.0,0.0,0.0,0.0,0.0,0.0,0.0,0.0,0.0,0.0,0.0,0.0,0.0,0.0,0.0,0.0,4.2574,4.3567,4.3834,4.3583,0.0,4.0423,3.8525,3.8546,3.7909,0.0,0.0,0.0,0.0,0.0,0.0,0.0,3.663,3.8251,3.9369,3.9517,4.0308,4.0441,3.9454,3.7912,3.6571,3.544,3.3928,3.2988,3.2807,3.2826,0.0,0.0,0.0,0.0,0.0,0.0,0.0,0.0,0.0,0.0,0.0,0.0,0.0,0.0,0.0,0.0,0.0,0.0,0.0,0.0,0.0,0.0,0.0,0.0,0.0,0.0,0.0,0.0,0.0,4.2388,4.3746,4.548,4.525,4.481,0.0,0.0,0.0,0.0,0.0,0.0,0.0,0.0,0.0,5.2994,5.4682,5.6444,5.8437,5.9734,6.097,6.2108,6.2915,6.3783,6.4664,6.5031,6.5191,6.5141,6.4347,6.1851,5.8033,5.2821,4.9197,4.6847,0.0,0.0,0.0,0.0,4.5883,4.6324,4.7278,4.7324,4.693,4.6967,0.0,0.0,0.0,0.0,0.0,0.0,0.0,0.0,0.0,0.0,4.5711,4.6672,4.6549,4.621,4.6094,4.431,4.2285,0.0,3.9819,3.8953,3.7767,0.0,0.0,0.0,0.0,3.742,3.8768,3.9613,4.0489,4.1433,4.1474,4.1113,4.023,3.909,3.7638,3.5759,3.496,3.4143,3.3273,3.3257,3.3291,0.0,0.0,0.0,0.0,0.0,0.0,0.0,0.0,0.0,0.0,0.0,0.0,0.0,0.0,0.0,0.0,0.0,0.0,0.0,0.0,0.0,0.0,0.0,0.0,0.0,0.0,0.0,0.0,4.4966,4.6608,4.9251,4.8847,4.8186,0.0,0.0,0.0,0.0,0.0,0.0,5.3188,5.4987,5.6932,5.8902,6.0737,6.2352,6.3759,6.5228,6.6366,6.716,6.7944,6.8972,7.0146,7.033,7.0316,7.011,6.9499,6.8311,6.6279,5.9171,5.4483,5.1657,5.0582,4.9297,4.8233,4.9407,5.0131,5.0608,5.1683,5.1756,5.1363,5.0959,4.9554,4.7856,4.6838,0.0,0.0,0.0,0.0,4.6239,4.7203,4.8051,4.8808,4.9482,4.9221,4.8704,4.8286,4.7325,4.5707,0.0,4.1748,4.0953,3.9942,0.0,0.0,0.0,0.0,3.9488,4.0958,4.1181,4.1709,4.298,4.261,4.1945,4.1051,4.0229,3.882,3.6699,3.6333,3.5673,3.4485,3.4472,3.4518,3.4542,0.0,0.0,0.0,0.0,0.0,0.0,0.0,0.0,0.0,0.0,0.0,0.0,0.0,0.0,0.0,0.0,0.0,0.0,0.0,0.0,0.0,0.0,0.0,0.0,0.0,0.0,0.0,0.0,0.0,5.2553,5.2234,0.0,0.0,0.0,0.0,5.3849,5.5489,5.7483,5.9795,6.2218,6.3943,6.4848,6.716,6.8825,6.9669,7.0499,7.1344,7.2165,7.2936,7.3377,7.3487,7.4258,7.4184,7.3465,7.3428,7.2496,7.0499,6.3943,5.9795,5.7409,5.5842,5.473,5.3995,5.4069,5.506,5.6271,5.5585,5.5831,5.6187,5.4656,5.2564,5.0325,4.8663,4.8113,0.0,0.0,4.8683,4.9537,5.0345,5.1153,5.1808,5.1899,5.1929,5.1278,4.9112,4.8733,4.8034,0.0,4.4116,4.3134,4.1642,0.0,4.1403,4.1403,4.1489,4.1857,4.2748,4.2945,4.3012,4.3089,4.3055,4.2709,4.182,4.0943,4.0077,3.9182,3.8338,3.7867,3.7851,3.7921,3.7956,3.7956,3.8026,0.0,0.0,0.0,0.0,0.0,0.0,0.0,0.0,0.0,0.0,0.0,0.0,0.0,0.0,0.0,0.0,0.0,0.0,0.0,0.0,0.0,0.0,0.0,0.0,0.0,0.0,0.0,0.0,5.7398,5.7104,0.0,5.8474,5.7886,5.807,5.9673,6.1325,6.3306,6.5729,6.7674,6.9582,7.1417,7.2826,7.367,7.3964,7.4258,7.4551,7.4808,7.5102,7.5506,7.6041,7.6298,7.6004,7.5249,7.5249,7.4625,7.3399,7.055,6.7063,6.3319,6.1716,6.0529,5.9857,6.0419,6.1006,6.1447,6.1165,6.0896,6.0224,5.7593,5.5794,5.4363,5.2711,5.2234,5.2123,5.1599,5.205,5.2747,5.3041,5.3702,5.4311,5.4343,5.3571,5.261,5.1831,5.0933,4.972,4.7786,4.5755,4.4214,4.3728,4.2803,4.2197,4.2237,4.2307,4.268,4.3604,4.3797,4.4081,4.458,4.4184,4.3739,4.3431,4.2124,4.0977,4.0146,3.9299,3.8586,3.8053,3.8067,3.8099,3.8114,3.8144,3.8463,0.0,0.0,0.0,0.0,0.0,0.0,0.0,0.0,0.0,0.0,0.0,0.0,0.0,0.0,0.0,0.0,0.0,0.0,0.0,0.0,0.0,0.0,0.0,0.0,0.0,5.4766,5.8437,6.2756,6.2793,6.3086,6.4714,6.4383,6.4628,6.5949,6.76,6.9362,7.1248,7.3105,7.4771,7.613,7.7194,7.7604,7.7264,7.7264,7.7086,7.6716,7.6716,7.6862,7.7118,7.7118,7.6825,7.6328,7.6328,7.6035,7.5471,7.474,7.2526,6.9369,6.7317,6.5852,6.4921,6.5521,6.5705,6.5668,6.5424,6.4567,6.3196,6.0493,5.8877,5.7765,5.6444,5.5831,5.55,5.4987,5.5207,5.5611,5.5611,5.6014,5.6356,5.6062,5.5207,5.419,5.3419,5.2491,5.1347,4.9797,4.7692,4.5987,4.5505,4.4612,4.4,4.4042,4.4165,4.4391,4.4766,4.4967,4.5141,4.5452,4.4999,4.4573,4.4316,4.3278,4.2277,4.1435,4.0896,4.0327,3.9734,3.9734,3.9756,3.9799,3.9823,4.0159,4.0795,0.0,0.0,0.0,0.0,0.0,0.0,0.0,0.0,0.0,0.0,0.0,0.0,0.0,0.0,0.0,0.0,0.0,0.0,0.0,0.0,0.0,0.0,0.0,5.6847,5.9758,6.3613,6.8458,6.9068,6.9729,7.1344,7.1527,7.1857,7.2679,7.4206,7.5454,7.6276,7.8605,7.9559,7.8809,8.0314,8.0638,7.958,7.958,7.9044,7.8009,7.8045,7.7608,7.6842,7.6842,7.6842,7.6842,7.6842,7.6842,7.6749,7.6178,7.5818,7.5327,7.2519,7.0449,6.9054,6.9068,6.9032,6.8898,6.8104,6.6733,6.5105,6.349,6.1875,6.0419,5.9563,5.8756,5.8143,5.807,5.807,5.8033,5.8033,5.8033,5.7813,5.7042,5.6811,5.615,5.3801,5.3335,5.2903,5.1263,4.9973,4.8621,4.6997,4.6817,4.6922,4.6922,4.7113,0.0,4.6335,4.6393,4.6249,4.5496,4.5481,4.5225,4.4385,4.4316,4.397,4.3201,4.3124,4.3085,4.3085,4.3085,4.3085,4.3085,4.32,4.3255,4.3321,0.0,0.0,0.0,0.0,0.0,0.0,0.0,0.0,0.0,0.0,0.0,0.0,0.0,0.0,0.0,0.0,0.0,0.0,0.0,0.0,0.0,5.7666,6.0676,6.0309,6.409,6.8274,7.1945,7.3413,7.45,7.5564,7.6225,7.6937,7.7708,7.8736,7.9931,8.1326,8.2039,8.259,8.2957,8.3398,8.2838,8.128,8.111,8.0249,7.8647,7.8374,7.8177,7.808,7.7943,7.796,7.8116,7.7943,7.7651,7.7207,7.6888,7.6523,7.595,7.4388,7.3418,7.2926,7.3046,7.2431,7.1394,7.0587,6.8862,6.6966,6.6512,6.5264,6.3673,6.2242,6.1655,6.1251,6.0089,5.9306,5.8866,5.8866,5.8437,5.7923,5.7703,5.7226,5.6627,5.593,5.5376,5.449,5.2889,5.2273,5.1391,4.9341,4.8107,4.7417,4.7474,4.7184,0.0,4.6776,4.6992,4.688,4.6128,4.6199,4.5984,4.516,4.4612,4.4192,4.4,4.3415,4.3085,4.3085,4.3085,4.3085,4.3085,4.3758,4.4087,0.0,0.0,0.0,0.0,0.0,0.0,0.0,0.0,0.0,0.0,0.0,0.0,0.0,0.0,0.0,0.0,0.0,0.0,0.0,0.0,0.0,0.0,6.2976,6.6793,6.8017,7.061,7.3509,7.6423,7.8185,7.9454,8.0262,8.0828,8.1305,8.1799,8.2223,8.292,8.3858,8.4242,8.4462,8.4609,8.4855,8.4259,8.2791,8.2408,8.1471,8.0026,7.95,7.9191,7.9088,7.8757,7.8719,7.8924,7.838,7.7931,7.754,7.6967,7.6428,0.0,0.0,0.0,0.0,0.0,7.3977,7.2899,7.2078,7.0646,6.9082,6.8421,6.732,6.6072,6.4751,6.387,6.3135,6.2218,6.1117,6.0114,5.9783,5.9123,5.8437,5.807,5.7629,5.7226,5.6847,5.6418,5.5721,5.4436,5.3922,0.0,5.2016,5.024,4.8992,4.9046,4.8544,4.8087,4.7872,4.7746,4.7404,4.6765,4.6499,4.6233,4.5851,4.514,0.0,0.0,0.0,4.4107,4.4167,4.4167,0.0,0.0,0.0,4.4922,4.4966,0.0,0.0,0.0,4.4662,4.4543,0.0,0.0,0.0,0.0,0.0,0.0,0.0,0.0,0.0,0.0,0.0,0.0,0.0,0.0,0.0,0.0,6.8444,7.3472,7.7326,7.817,7.9124,8.1048,8.2757,8.4042,8.4682,8.4976,8.5086,8.4903,8.4939,8.4976,8.4866,8.5546,0.0,0.0,0.0,8.5094,8.4097,8.3463,8.2653,8.1598,8.0914,8.0339,7.9898,7.9383,7.9286,7.9493,7.8564,7.8075,7.7832,7.6769,7.6057,7.5655,7.5996,7.5841,7.5309,7.49,7.4342,7.3692,7.2907,0.0,0.0,6.9619,6.8568,6.77,6.688,6.5558,6.4323,6.4139,6.2964,6.1557,6.075,5.993,5.9123,5.8327,5.8143,5.7923,5.7116,5.6921,5.6712,5.5879,5.517,5.4656,5.4546,5.26,5.1005,5.1025,5.0507,4.987,4.9176,4.858,4.7987,4.7339,0.0,0.0,4.6309,4.5731,4.5337,4.5371,4.5443,4.5541,4.559,4.5594,4.5629,4.5744,4.5744,4.5804,4.5962,4.5962,4.6381,4.7105,4.638,4.6087,0.0,0.0,0.0,0.0,0.0,0.0,0.0,0.0,0.0,0.0,0.0,0.0,0.0,0.0,0.0,6.8885,7.3876,7.8148,8.0865,8.3508,8.4592,8.3124,8.4922,8.6114,8.56,8.7325,8.7932,8.6611,8.7142,8.7215,8.6574,8.6526,8.6439,8.6292,8.6101,8.55,8.4499,8.3896,8.2974,8.1753,8.0908,0.0,8.0591,8.0106,8.0106,8.0492,7.9945,7.9033,7.7993,7.7417,7.6608,7.572,7.5281,7.5406,7.5781,7.5053,7.4663,7.4409,7.3588,7.2416,7.1233,7.094,6.9839,6.8531,6.77,6.6819,0.0,6.447,6.3356,6.2389,6.1594,6.0786,5.9967,5.9159,5.8976,5.8756,5.7923,5.7776,5.7519,5.6712,5.6444,5.6124,5.5475,5.3393,5.1787,5.1797,5.1189,5.045,4.9723,4.9654,4.9196,4.7844,4.7702,4.7226,4.6012,4.5975,4.5788,4.5279,4.5386,4.5541,4.559,4.5594,4.5936,4.662,4.6658,4.6971,4.7638,4.7638,4.7724,4.7858,4.714,4.7174,0.0,0.0,0.0,0.0,0.0,0.0,0.0,0.0,0.0,0.0,0.0,5.7776,6.1043,0.0,6.9743,7.4221,7.8699,8.2296,8.4315,8.6684,8.7455,8.5436,8.6978,8.8042,8.7655,8.8702,8.9069,8.8262,8.8206,8.8023,8.7619,8.7041,8.6643,8.6536,8.6063,8.5706,8.5439,8.4212,8.3477,8.3224,8.1793,8.1214,8.1439,8.0824,8.0732,8.1019,8.0271,7.9557,7.8832,7.7502,7.6324,7.5288,7.4438,7.4861,7.5872,7.5315,7.5002,7.4815,7.4493,7.3465,7.2175,7.1772,7.0901,6.9778,6.8532,6.767,6.6856,6.5645,6.4714,6.3783,6.2511,6.1912,6.1288,6.0077,5.9783,5.9673,5.9281,5.8877,5.8462,5.8095,5.7361,5.6664,5.6271,5.4887,5.3676,5.3261,5.2201,5.1317,5.101,5.0701,5.0232,4.9561,4.8836,4.8156,4.7491,4.7003,4.6643,4.6477,4.6613,4.6738,4.6819,4.678,4.7025,4.7505,4.7505,4.7697,4.8082,4.8548,4.8971,4.9399,4.9421,4.9003,0.0,0.0,0.0,0.0,0.0,0.0,0.0,5.5034,5.731,5.9245,6.1447,6.4053,6.7504,7.1174,7.5028,7.9103,8.2737,8.5637,8.7234,8.8592,8.8923,8.7601,8.8739,8.962,8.962,8.9767,8.973,8.9436,8.8758,8.8227,8.7933,8.7027,8.6429,8.6229,8.5591,8.5502,8.6035,8.4364,8.3881,8.4588,8.2811,8.2039,8.2091,8.142,8.1156,8.1194,8.0175,7.962,7.9298,7.7379,7.6006,7.5028,7.3925,7.4357,7.5626,7.5236,7.4975,7.4894,7.5077,7.4329,7.3208,7.2422,7.1777,7.1012,6.9527,6.8555,6.7774,6.6953,6.6145,6.5178,6.3673,6.3306,6.2866,6.1251,6.086,6.0786,6.0481,5.9893,5.9416,5.9416,5.8242,5.7251,5.7251,5.6455,5.5548,5.473,5.3529,5.2595,5.2336,5.1758,5.1303,5.1146,4.9917,4.911,4.9098,4.8062,4.7497,4.7615,4.7743,4.7826,4.7956,4.7981,4.8169,4.8567,4.8615,4.8779,4.9082,4.9817,5.051,5.1207,5.1851,5.1043,4.8306,4.8039,4.8233,4.9087,5.162,5.4473,0.0,5.9208,6.1814,6.4897,6.6916,6.9302,7.3215,7.613,7.925,8.3287,8.5527,8.7271,8.8923,8.929,8.9326,8.9143,8.9913,9.0464,9.0464,9.1106,9.0959,8.951,8.9147,8.8361,8.6933,8.6228,8.5801,8.561,8.4803,8.4583,8.5131,8.4127,8.3856,8.435,8.3458,8.2685,8.2085,8.1762,8.1421,8.0995,7.9975,7.9016,7.8142,7.7227,7.649,7.5807,7.4412,7.4215,7.4688,7.4252,7.416,7.433,7.4503,7.4252,7.3696,7.3005,7.2397,7.1762,7.1034,6.9874,6.8605,6.7811,6.7003,6.6145,6.5251,6.5031,6.4591,6.2939,6.2536,6.2132,6.0701,6.0334,6.026,6.026,5.9526,5.8939,5.8939,5.7655,5.6381,5.5585,5.5328,5.4667,5.3272,5.3015,5.2401,5.0999,5.0738,5.0203,4.9116,4.8333,4.7725,4.7279,4.7384,4.755,4.7734,4.7836,4.8685,5.0282,5.0375,5.113,5.262,5.2736,5.2818,5.2933,5.3005,5.289,4.937,4.9701,5.0986,5.3225,5.6198,5.9477,6.2891,6.5521,6.8054,7.083,7.3083,7.5359,7.7965,8.0461,8.2957,8.5563,8.7344,8.8629,8.9326,8.94,8.9216,8.8757,8.861,8.8849,8.9803,9.0207,9.0061,8.9293,8.869,8.7997,8.7085,8.6565,8.6047,8.5589,8.5287,8.5239,8.5436,8.4388,8.4084,8.4506,8.3481,8.2802,8.2496,8.18,8.1139,8.0501,8.0096,7.9158,7.8,7.7671,7.6627,7.5106,7.4079,7.3606,7.3464,7.3393,7.3576,7.3913,7.4233,7.4047,7.3669,7.3415,7.2717,7.1958,7.1335,7.0547,6.9741,6.9172,6.8371,6.7565,6.689,6.6366,6.5705,6.4517,6.4261,6.393,6.2805,6.2144,6.1655,6.119,6.0456,5.9747,5.9269,5.8646,5.7912,5.7127,5.6209,5.5365,5.4693,5.4583,5.3995,5.237,5.2242,5.1731,5.0296,5.0031,4.989,4.9821,4.9988,5.0196,5.0418,5.0599,5.1084,5.199,5.2049,5.2474,5.3197,5.3703,5.3972,5.3972,5.4434,5.4664,5.0802,5.205,5.4436,5.7655,6.108,6.4677,6.8752,7.1578,7.3949,7.6114,7.8002,7.969,8.1085,8.2774,8.4535,8.6371,8.8005,8.9143,8.9363,8.9216,8.8666,8.7655,8.6628,8.639,8.7308,8.8225,8.8668,8.8453,8.7778,8.7231,8.6822,8.6463,8.5954,8.5372,8.5437,8.5508,8.5589,8.4594,8.4336,8.4805,8.3773,8.3201,8.2963,8.1834,8.0885,8.0209,8.0209,7.9363,7.8,7.8,7.6758,7.483,7.3849,7.3253,7.2904,7.2717,7.2929,7.3366,7.3712,7.3751,7.3564,7.3408,7.2958,7.2377,7.1607,7.1119,7.0711,7.0289,6.9549,6.8851,6.8467,6.776,6.6953,6.6145,6.5778,6.5411,6.4604,6.3943,6.3233,6.245,6.163,6.0811,6.0003,5.949,5.9013,5.8437,5.7152,5.6172,5.5952,5.5732,5.5144,5.3995,5.3692,5.3087,5.175,5.1554,5.1528,5.1573,5.1761,5.196,5.2218,5.2468,5.2787,5.3251,5.3387,5.3574,5.3869,5.4505,5.4818,5.4857,5.5439,5.5708,5.2884,5.539,5.8584,6.1802,6.5655,6.9743,7.3766,7.6607,7.8846,8.0498,8.0865,8.1195,8.2003,8.2223,8.303,8.547,8.7178,8.85,8.929,8.872,8.7655,8.604,8.4462,8.3197,8.248,8.5233,8.6981,8.6806,8.6375,8.5987,8.5569,8.5396,8.5131,8.4732,8.475,8.486,8.5121,8.4563,8.4566,8.5082,8.4705,8.4167,8.3449,8.1994,8.0885,8.0209,8.0209,7.9363,7.8,7.8,7.7063,7.5506,7.4052,7.35,7.332,7.21,7.2047,7.2665,7.2873,7.3209,7.3507,7.2898,7.3096,7.3331,7.2134,7.1601,7.1272,7.0898,7.0318,6.989,7.0008,6.9412,6.8641,6.7811,6.7026,6.6256,6.5435,6.5251,6.5007,6.4163,6.3319,6.2462,6.1667,6.0236,5.9184,5.9159,5.8474,5.7666,5.6847,5.6088,5.5585,5.5548,5.4814,5.4038,5.3308,5.2508,5.1824,5.125,5.1416,5.1608,5.1823,5.213,5.279,5.3842,5.4119,5.467,5.5544,5.5599,5.567,5.567,5.5708,5.5708,5.637,5.993,6.3857,6.8164,7.1894,7.538,7.8956,8.0388,8.0975,8.1012,8.0571,7.9947,7.9087,7.9433,8.0424,8.2296,8.4425,8.6077,8.6885,8.6775,8.6004,8.4389,8.2794,8.1489,8.0697,8.303,8.4694,8.4894,8.5137,8.5418,8.5621,8.5799,8.571,8.5216,8.5586,8.5564,8.5096,8.4924,8.4825,8.4773,8.4159,8.349,8.2746,8.1731,8.0885,8.0209,8.0209,7.9634,7.8686,7.8179,7.7096,7.5608,7.4627,7.3916,7.3432,7.2993,7.2666,7.2458,7.2339,7.2488,7.2707,7.2514,7.2432,7.2388,7.2248,7.1601,7.1052,7.1526,7.0837,7.0084,7.0609,7.0175,6.9507,6.9325,6.8678,6.7871,6.7063,6.6476,6.5852,6.5044,6.4237,6.3392,6.2548,6.152,6.0603,6.0077,5.8877,5.7886,5.7629,5.7373,5.6969,5.6455,5.6161,5.5658,5.4894,5.4574,5.4112,5.3447,5.3541,5.3496,5.3205,5.4042,5.4766,5.5365,5.6155,5.6767,5.7202,5.7305,5.7395,5.7434,5.7434,5.7434,6.0701,6.4995,6.9339,7.3597,7.69,7.9748,8.2443,8.259,8.1819,8.0424,7.8552,7.668,7.5014,7.5175,7.6276,7.8479,8.1599,8.4132,8.5196,8.5857,8.5527,8.3638,8.2223,8.1012,7.9926,8.1644,8.302,8.3424,8.3883,8.4547,8.54,8.5583,8.5566,8.5367,8.578,8.5712,8.5124,8.509,8.4932,8.458,8.3862,8.3118,8.2374,8.1629,8.0885,8.0209,8.0209,7.9769,7.9034,7.8585,7.7502,7.6048,7.5303,7.4525,7.3849,7.3601,7.3206,7.2744,7.228,7.2081,7.2038,7.2038,7.1996,7.2009,7.214,7.1812,7.1557,7.2241,7.1676,7.1042,7.1756,7.1165,7.0366,7.0508,6.9926,6.9192,6.8692,6.7907,6.7136,6.6329,6.5521,6.4604,6.3466,6.2328,6.1337,6.0529,5.9538,5.8767,5.8474,5.8437,5.8143,5.7299,5.6957,5.6602,5.6051,5.5768,5.5397,5.4911,5.5007,5.4962,5.4619,5.5417,5.6032,5.6352,5.7157,5.7672,5.7896,5.8054,5.8183,5.8247,5.8308,5.8313,6.5815,7.044,7.486,7.8112,8.0608,8.27,8.4205,8.3214,8.1269,7.8736,7.4992,7.1615,6.9963,6.9706,7.0807,7.4059,7.8736,8.2553,8.4242,8.5894,8.606,8.3695,8.2757,8.1656,8.0041,8.1183,8.2141,8.2485,8.2733,8.3546,8.4945,8.4831,8.4858,8.5082,8.5335,8.5359,8.5097,8.5063,8.4906,8.458,8.3862,8.3118,8.2374,8.1629,8.0885,8.0209,8.0209,7.9803,7.9135,7.9101,7.8247,7.6893,7.6082,7.5303,7.4593,7.3849,7.3601,7.3466,7.2766,7.2146,7.1612,7.1578,7.1886,7.2193,7.1912,7.2205,7.2647,7.2923,7.2695,7.2568,7.33,7.2365,7.1238,7.136,7.0756,7.0146,7.0146,6.9522,6.8715,6.7921,6.7063,6.5999,6.4433,6.2854,6.152,6.0786,6.0639,6.026,5.938,5.9269,5.8939,5.8143,5.7373,5.6921,5.6847,5.6161,5.5695,5.5658,5.5783,5.5854,5.5887,5.6243,5.6546,5.6833,5.7196,5.7537,5.7818,5.801,5.8193,5.8342,5.84,5.8429,7.1637,7.5873,7.9764,8.2406,8.3544,8.3948,8.3748,8.1525,7.8295,7.4023,6.9949,6.6439,6.4163,6.4273,6.5912,6.9802,7.5014,7.9528,8.2406,8.4719,8.5586,8.4239,8.3876,8.3056,8.1313,8.2385,8.3103,8.2749,8.3627,8.4542,8.5249,8.5286,8.524,8.5121,8.5144,8.5037,8.4747,8.4747,8.4694,8.458,8.3862,8.3118,8.2374,8.1629,8.0885,8.0209,8.0209,8.0073,7.987,7.9329,7.8551,7.7638,7.6893,7.6115,7.5405,7.5202,7.4796,7.4289,7.4119,7.3229,7.2113,7.1571,7.1468,7.1578,7.1854,7.1792,7.1751,7.2558,7.2541,7.2459,7.3349,7.2994,7.2531,7.287,7.1918,7.0977,7.0977,7.0367,6.9559,6.8752,6.7467,6.6182,6.5191,6.464,6.4297,6.4077,6.3539,6.2401,6.037,6.0077,5.9783,5.8976,5.8719,5.8352,5.774,5.7519,5.7116,5.6528,5.6514,5.6323,5.5854,5.6515,5.705,5.7395,5.8324,5.8959,5.9346,5.9588,5.983,6.0077,6.0142,6.0165,7.7121,8.0534,8.3434,8.4792,8.4609,8.3581,8.1729,7.8222,7.4037,6.9155,6.4347,6.0493,5.8767,5.9391,6.1728,6.6536,7.2628,7.817,8.2186,8.5123,8.6595,8.5964,8.5893,8.5293,8.3859,8.4573,8.491,8.4372,8.4385,8.462,8.5065,8.5122,8.5151,8.5116,8.4958,8.48,8.4614,8.4614,8.4614,8.458,8.3862,8.3287,8.2847,8.1765,8.1054,8.0648,8.0344,8.0209,8.0175,7.9769,7.916,7.845,7.8044,7.7401,7.6657,7.6352,7.5946,7.5506,7.483,7.3849,7.2766,7.2022,7.1582,7.1379,7.1854,7.1829,7.189,7.2938,7.298,7.2919,7.3873,7.3796,7.3567,7.3943,7.3186,7.2349,7.2349,7.1431,7.0403,6.9596,6.8421,6.7283,6.6476,6.6072,6.5692,6.5362,6.4934,6.4127,6.2732,6.1594,6.0639,5.982,5.9747,5.938,5.8609,5.8547,5.818,5.7373,5.7336,5.7138,5.6765,5.7302,5.7698,5.7883,5.8751,5.9514,6.024,6.0654,6.1114,6.1716,6.1842,6.1897,8.1856,8.4352,8.6077,8.5967,8.4499,8.217,7.8736,7.4001,6.8921,6.3992,5.8632,5.4594,5.3885,5.517,5.8132,6.3747,7.0734,7.7121,8.1913,8.5637,8.7825,8.7722,8.7978,8.776,8.6702,8.6965,8.6938,8.6332,8.51,8.4503,8.4772,8.4806,8.4874,8.5037,8.4747,8.4614,8.4614,8.4614,8.4614,8.458,8.3964,8.3592,8.3456,8.2171,8.1486,8.1283,8.0615,8.0276,8.0209,8.0209,7.9769,7.9101,7.9101,7.8653,7.7908,7.7266,7.6995,7.6724,7.5371,7.4356,7.351,7.2665,7.1921,7.1379,7.181,7.2072,7.2424,7.3426,7.353,7.3533,7.4526,7.4496,7.4324,7.4686,7.4277,7.3839,7.3854,7.2606,7.1233,7.055,6.9669,6.8825,6.8141,6.743,6.6733,6.6022,6.5765,6.5618,6.5618,6.3466,6.163,6.0823,6.0639,6.0236,5.9416,5.938,5.9049,5.8364,5.8327,5.8327,5.8327,5.843,5.8544,5.8618,5.9047,5.9775,6.082,6.1348,6.21,6.3013,6.3214,6.3308,8.4829,8.6444,8.7619,8.6958,8.4078,8.0204,7.5579,6.9779,6.3772,5.8228,5.3639,5.0602,5.0445,5.2307,5.5453,6.0444,6.738,7.3582,7.7766,8.2884,8.6323,8.6611,8.8435,8.9104,8.7768,8.8085,8.7797,8.6311,8.5986,8.5683,8.5319,8.5314,8.5136,8.472,8.464,8.4614,8.4614,8.4614,8.4614,8.4614,8.4478,8.4072,8.349,8.3219,8.2441,8.1317,8.1156,0.0,8.0209,8.0209,7.9769,7.9101,7.9101,7.8653,7.8,7.7865,7.7401,7.686,7.6589,7.5574,7.4187,7.2834,7.1921,7.1356,7.1578,7.1688,7.1886,7.2657,7.3093,7.3477,7.4329,7.4494,7.4579,7.5091,7.4858,7.4549,7.4668,7.3435,7.2239,7.2129,7.0881,6.9853,6.972,6.9559,6.9412,6.9302,6.8128,6.7297,6.7297,6.5167,6.3319,6.2462,6.1777,6.108,6.0272,6.0187,6.0114,5.9979,5.9979,5.9979,5.9979,5.9991,6.0062,6.019,6.0511,6.0959,6.1534,6.1955,6.2459,6.3013,6.313,6.3264,8.7362,8.8243,8.8426,8.6775,8.27,7.7582,7.1872,6.5571,5.944,5.4179,5.0225,4.7655,4.7655,4.9674,5.2894,5.774,6.4297,7.0646,7.5931,8.1599,8.5646,8.6903,8.9052,9.0073,8.9018,8.8867,8.8305,8.706,8.665,8.6016,8.5072,8.5036,8.4906,8.4606,8.4614,8.4614,8.4614,8.4614,8.4614,8.4614,8.4614,8.4411,8.4065,8.3693,8.2915,8.1832,8.146,8.0885,8.0209,8.0209,8.0006,7.9667,7.9667,7.9464,7.9092,7.872,7.8348,7.7942,7.7164,7.6149,7.4999,7.3916,7.28,7.1864,7.167,7.16,7.1754,7.2501,7.2922,7.334,7.4139,7.4594,7.4957,7.5545,7.5507,7.5236,7.4947,7.428,7.3729,7.3729,7.312,7.2459,7.2055,7.1615,7.1211,7.0807,6.9706,6.8949,6.8949,6.7223,6.5485,6.4224,6.3759,6.3209,6.2401,6.2328,6.2144,6.1692,6.1655,6.1471,6.1043,6.1006,6.0847,6.0503,6.0817,6.1357,6.212,6.2635,6.3521,6.478,6.4555,6.473,8.8702,8.9253,8.8812,8.6407,8.1269,7.5087,6.8641,6.1887,5.5647,5.0975,4.7535,4.5443,4.5626,4.7655,5.0655,5.4807,6.0933,6.7156,7.29,7.9077,8.3837,8.5992,8.8665,9.0091,8.9558,8.8976,8.8325,8.7515,8.6734,8.5859,8.4855,8.4671,8.4614,8.4614,8.4614,8.4614,8.4614,8.4614,8.4614,8.4614,8.4614,8.4614,8.458,8.3998,8.3321,8.2611,8.2002,8.1359,8.0648,8.0513,8.0445,8.0412,8.0242,8.0209,8.0141,7.9566,7.9261,7.8932,7.7773,7.6758,7.5845,7.51,7.3747,7.2338,7.1908,7.167,7.1666,7.2309,7.2628,7.295,7.3747,7.4411,7.51,7.5934,7.6134,7.6041,7.5534,7.527,7.516,7.516,7.5014,7.4683,7.4074,7.3413,7.2775,7.2151,7.1248,7.0624,7.0624,6.9192,6.7737,6.6463,6.5692,6.5044,6.442,6.4347,6.4053,6.338,6.3343,6.305,6.2401,6.2401,6.2108,6.1471,6.1807,6.2401,6.3252,6.38,6.4969,6.6628,6.6269,6.6542,8.7876,8.8849,8.8812,8.6407,8.0424,7.3435,6.6976,5.9343,5.2443,4.8287,4.5443,4.3938,4.4663,4.6792,4.9001,5.0853,5.6589,6.1969,6.5446,7.2833,7.8894,8.1644,8.5751,8.831,8.8185,8.7956,8.7491,8.6759,8.5805,8.5186,8.5066,8.4792,8.4614,8.4614,8.4614,8.4614,8.4614,8.4614,8.4614,8.4614,8.4614,8.4614,8.4614,8.4512,8.4099,8.3389,8.3321,8.2881,0.0,8.146,8.1215,8.1148,8.0445,8.0209,8.0175,8.0107,7.9667,7.9067,7.8932,7.7976,7.6657,7.5845,7.4153,7.2394,7.2349,7.1842,7.1401,7.1622,7.1898,7.2245,7.2908,7.3687,7.4692,7.6157,7.6785,7.6993,7.7075,7.6518,7.5983,7.5983,7.538,7.4867,7.4793,7.472,7.4647,7.4573,7.3252,7.2275,7.2275,7.0881,6.9816,6.9669,6.7063,6.5251,6.5178,6.5178,6.5141,6.5068,6.5068,6.5031,6.4958,6.4958,6.4921,6.4848,6.5014,6.5287,6.5682,6.6101,6.6632,6.7306,6.7628,6.7911,8.5343,8.6995,8.7234,8.4352,7.8883,7.2239,6.4787,5.7593,5.1316,4.7241,4.4819,4.3599,4.3868,4.5096,4.6687,4.8658,5.3111,5.7777,6.1911,6.9136,7.5066,7.7867,8.2443,8.537,8.5316,8.5961,8.6175,8.5745,8.5134,8.48,8.48,8.4694,8.4614,8.4614,8.4614,8.4614,8.4614,8.4614,8.4614,8.4614,8.4614,8.4614,8.4614,8.4614,8.42,8.349,8.349,8.3084,0.0,8.2069,8.1697,8.1283,8.0978,8.0581,8.0209,8.0209,8.0006,7.9701,7.9261,7.8416,7.7435,7.6657,7.5202,7.3646,7.3206,7.2563,7.2,7.2191,7.2007,7.1907,7.2649,7.3687,7.4824,7.5969,7.6574,7.6977,7.7227,7.7069,7.6812,7.6812,7.6555,7.6335,7.6335,7.5931,7.5616,7.5616,7.4647,7.3949,7.3949,7.2973,7.229,7.229,6.9816,6.8201,6.8201,6.8201,6.8201,6.8201,6.8201,6.776,6.6769,6.6733,6.6292,6.5325,6.543,6.562,6.5861,6.6277,6.6985,6.7997,6.7893,6.8212,8.1562,8.3785,8.4462,8.1195,7.613,7.0013,6.2585,5.5904,5.0261,4.6654,4.4607,4.348,4.3421,4.4236,4.5505,4.7211,5.0827,5.4846,5.9082,6.5619,7.1195,7.4492,7.9296,8.2511,8.2887,8.4202,8.5007,8.4943,8.4747,8.4614,8.4614,8.4614,8.4614,8.4614,8.4614,8.4614,8.4614,8.4614,8.4614,8.4614,8.4614,8.4614,8.4614,8.4614,8.4309,8.3828,8.3828,8.3524,0.0,8.2813,8.2306,8.1596,8.1384,8.0851,8.0209,8.0209,8.0209,8.0141,7.9634,7.8957,7.8213,7.7468,7.6352,7.5134,7.439,7.3477,7.2744,7.2904,7.2563,7.2302,7.3108,7.406,7.5026,7.59,7.6459,7.6882,7.7212,7.7289,7.7289,7.7289,7.7289,7.7289,7.7289,7.6812,7.6445,7.6445,7.5763,7.5234,7.5234,7.4551,7.4037,7.4037,7.2532,7.1321,7.0844,7.0587,7.044,7.044,7.022,6.9596,6.8471,6.8398,6.7871,6.6733,6.6825,6.6859,6.684,6.7223,6.7857,6.8714,6.8534,6.893,7.6518,7.9161,8.0277,7.6974,7.1908,6.6269,6.0517,5.4179,4.883,4.6397,4.4607,4.348,4.3421,4.472,4.5961,4.6452,4.9828,5.3436,5.642,6.1814,6.7085,7.1426,7.638,8.0034,8.1471,8.3026,8.4109,8.4573,8.4614,8.4614,8.4614,8.4614,8.4614,8.4614,8.4614,8.4614,8.4614,8.4614,8.4614,8.4614,8.4614,8.4614,8.4614,8.4614,8.4614,8.458,8.458,8.458,0.0,8.3795,8.305,8.234,8.1562,8.0851,8.0209,8.0209,8.0209,8.0209,8.0175,7.9701,7.8991,7.8213,7.7468,7.6724,7.5912,7.4627,7.35,7.35,7.3458,7.359,7.444,7.4761,7.5027,7.6072,7.6541,7.6882,7.7212,7.7289,7.7289,7.7289,7.7289,7.7289,7.7289,7.7289,7.7289,7.7289,7.6592,7.6093,7.6093,7.5395,7.4903,7.4903,7.4867,7.4206,7.2606,7.1747,7.1307,7.1307,7.055,7.0073,7.0073,7.0073,7.0073,7.0036,7.0036,6.977,6.9239,6.9608,6.9671,6.9484,6.9952,7.0439,6.9853,7.2532,7.3729,7.1027,6.732,6.2879,5.7226,5.216,4.8012,4.5581,4.4232,4.3454,4.3286,4.4127,4.519,4.6205,4.9181,5.2426,5.5437,6.0583,6.5252,6.8513,7.4196,7.9022,8.2114,8.2683,8.3366,8.4512,8.4614,8.4614,8.4614,8.4614,8.4614,8.4614,8.4133,8.3862,8.3862,8.3862,8.3862,8.3862,8.4343,8.4614,8.4614,8.4614,8.4614,8.4614,8.4614,8.4309,8.3828,8.3592,8.2746,8.1629,8.1418,8.0851,8.0209,8.0209,8.0209,8.0209,8.0209,7.9735,7.9034,7.8822,7.8247,7.7604,7.7333,7.5845,7.4177,7.3854,7.4002,7.4394,7.513,7.588,7.6506,7.6801,7.7241,7.7575,7.7358,7.7289,7.7289,7.7289,7.7289,7.7289,7.7289,7.7289,7.7289,7.7289,7.7069,7.6922,7.6922,7.6702,7.6555,7.6555,7.6555,7.5894,7.428,7.3913,7.3766,7.3766,7.301,7.2312,7.1762,7.1211,7.066,7.011,7.011,7.006,6.9992,7.0373,7.0934,7.1646,7.1998,7.2348,6.2438,6.4897,6.5839,6.4053,6.1374,5.8022,5.3592,4.9884,4.6865,4.5067,4.4048,4.3463,4.3295,4.4172,4.5355,4.6639,4.9442,5.2618,5.5868,6.0316,6.5114,7.0199,7.5188,7.9524,8.2905,8.297,8.3321,8.4512,8.4614,8.4614,8.4614,8.4343,8.4174,8.4174,8.3727,8.3355,8.3084,8.3355,8.349,8.3524,8.4242,8.4614,8.4614,8.4614,8.4444,8.4174,8.4174,8.3761,0.0,8.3084,8.2374,8.1317,8.1317,8.0851,8.0209,8.0209,8.0209,8.0209,8.0209,7.9904,7.9464,7.9169,7.8585,7.8,7.8,7.6995,7.5849,7.5727,7.5618,7.5753,7.658,7.7106,7.748,7.7771,7.8193,7.8496,7.8306,7.8259,7.8133,7.7839,7.7803,7.7693,7.7362,7.7289,7.7289,7.7289,7.7289,7.7289,7.7289,7.7289,7.7289,7.7289,7.7289,7.6885,7.5894,7.5527,7.5344,7.5344,7.4588,7.3927,7.3435,7.2922,7.2408,7.1908,7.1615,7.1355,7.1213,7.118,7.1647,7.2621,7.2941,7.3238,0.0,5.6748,5.7373,5.6554,5.4645,5.2344,4.9968,4.7545,0.0,4.4773,4.4011,4.3517,4.3494,4.4757,4.6255,4.7678,5.0424,5.3677,5.7388,6.1141,6.6655,7.5137,7.8477,8.1068,8.3534,8.3613,8.3795,8.4546,8.4546,8.4512,8.4512,8.3828,8.3389,8.3355,8.3321,8.3016,8.234,8.3016,8.3355,8.3422,8.4106,8.4478,8.4512,8.4478,8.4072,0.0,8.3422,8.3016,8.234,8.234,8.19,8.1215,8.1215,8.0784,8.0209,8.0209,8.0209,8.0209,8.0209,8.0209,8.0073,7.9397,7.872,7.817,7.817,7.8102,7.8098,7.8596,7.8006,7.7537,7.8679,7.85,7.8224,7.8987,7.9371,7.9629,7.9769,7.9816,7.9596,7.8809,7.8699,7.8442,7.7619,7.7472,7.7472,7.7472,7.7472,7.7472,7.7472,7.7436,7.7399,7.7399,7.7362,7.7289,7.7289,7.6644,7.6203,7.6203,7.5417,7.4977,7.4977,7.494,7.4903,7.4903,7.4184,7.35,7.2885,7.2186,7.2186,7.2869,7.3123,7.3422,4.7012,0.0,5.3235,5.2417,5.1316,4.9968,0.0,4.6278,4.4745,4.3947,4.3616,4.3664,4.4217,4.5114,4.6466,4.8555,5.0841,5.3713,5.7543,6.4137,7.0364,7.5185,7.8186,8.0653,8.2571,8.3238,8.3795,8.4546,8.4099,8.3761,8.3761,8.305,8.2408,8.1832,8.1799,8.1731,8.1562,8.1731,8.2103,8.2678,8.2847,8.3219,8.3727,8.3159,8.2821,8.2678,8.2678,8.2238,8.1562,8.1562,8.1122,8.0445,8.0445,8.0344,8.0209,8.0209,8.0209,8.0209,8.0209,8.0209,8.0175,8.0006,7.9803,7.9667,7.9667,7.8889,7.8098,7.8596,7.8784,7.9117,8.0337,8.0561,8.0539,8.071,8.0594,8.0288,7.9879,7.9816,7.9743,7.9559,7.9522,7.9449,7.9265,7.9213,7.9213,7.9213,7.9213,7.9213,7.9213,7.8662,7.8295,7.8295,7.7693,7.7289,7.7289,7.7142,7.7032,7.7032,7.6261,7.5836,7.5836,7.5234,7.4903,7.4903,7.472,7.4705,7.4903,7.4373,7.4503,7.5193,7.4976,7.5373,4.448,4.6608,4.8636,4.8563,4.7939,4.7095,4.6205,4.503,4.4011,4.3579,4.38,4.4177,4.4555,4.5911,4.7587,4.9604,5.2338,5.6268,6.2179,6.8452,7.3624,7.677,7.9632,8.1771,8.2798,8.3592,8.4174,8.458,8.393,8.349,8.349,8.2475,8.1697,8.1317,8.0953,8.0809,8.0809,8.1148,8.1494,8.19,8.2238,8.2611,8.2983,8.2577,8.2238,8.19,8.19,8.146,8.0809,8.0809,8.0547,8.0209,8.0209,8.0209,8.0209,8.0209,8.0209,8.0209,8.0209,8.0209,8.0209,8.0209,8.0209,8.0209,8.0209,7.9634,7.9115,7.9595,7.9825,8.0247,8.152,8.1931,8.2092,8.2431,8.2501,8.2401,8.206,8.1709,8.1342,8.0991,8.0624,8.0241,7.9853,7.9816,7.9816,7.9816,7.9816,7.9816,7.9816,7.9412,7.8993,7.8626,7.8185,7.7729,7.7326,7.7289,7.7289,7.7289,7.6885,7.6628,7.6628,7.6225,7.5821,7.5454,7.5469,7.5507,7.5606,7.5539,7.5849,7.6562,7.6531,7.6948,4.448,4.4773,4.5067,4.5883,4.5581,4.5067,4.5067,4.4452,4.3873,4.3873,4.4415,4.4957,4.5214,4.7122,4.9361,5.1389,5.5352,6.0815,6.8316,7.2858,7.6322,7.8878,8.1572,8.3279,8.3475,8.4167,8.4614,8.4614,8.3828,8.3321,8.3321,8.1934,8.1148,8.1148,8.0513,8.0209,8.0209,8.0818,8.1215,8.1317,8.1832,8.2137,8.2238,8.2137,8.1731,8.1148,8.1148,0.0,8.0209,8.0209,8.0209,8.0209,8.0209,8.0209,8.0209,8.0209,8.0209,8.0209,8.0209,8.0209,8.0209,8.0209,8.0209,8.0209,8.0209,8.0209,8.0335,8.0857,8.0889,8.1067,8.2424,8.2877,8.3163,8.3973,8.441,8.4609,8.4609,8.4058,8.3381,8.27,8.1929,8.1195,8.0624,8.044,8.0404,8.0514,8.044,8.0367,8.0367,8.0147,7.9743,7.9029,7.8846,7.8442,7.7582,7.7509,7.7436,7.7326,7.7289,7.7289,7.7289,7.7289,7.6995,7.6313,7.6276,7.617,7.5935,7.6247,7.6701,7.7343,7.7732,7.8155,4.448,4.5214,4.592,4.6718,4.6819,4.6746,4.6746,4.6094,4.5516,4.5516,4.5626,4.614,4.7489,4.9214,5.161,5.5269,6.1753,6.7644,7.1496,7.5012,7.7894,7.9784,8.1914,8.3279,8.3475,8.4167,8.4614,8.4614,8.3328,8.2577,8.2577,8.1156,8.0378,8.0378,8.0242,8.0209,8.0209,8.031,8.0682,8.1317,8.0784,8.0851,8.1426,8.0818,8.0479,8.0378,0.0,8.031,8.0209,8.0209,8.0209,8.0209,8.0209,8.0209,8.0209,8.0209,8.0209,8.0209,8.0209,8.0209,8.0209,8.0209,8.0209,8.0209,8.0209,8.0209,8.0335,8.0857,8.1256,8.1852,8.3256,8.3662,8.3973,8.4827,8.4813,8.4609,8.4609,8.4499,8.4389,8.4278,8.3564,8.3197,8.3765,8.3324,8.3104,8.3765,8.3287,8.283,8.283,8.1672,8.0791,8.0645,8.0021,7.9302,7.8479,7.8405,7.8112,7.7362,7.7289,7.7289,7.7289,7.7289,7.7252,7.7105,7.7105,7.7236,7.7443,7.7311,7.7467,7.7972,7.7931,7.8397,4.5002,4.5626,4.6324,4.8012,4.8122,4.7746,4.7746,4.7829,4.7875,4.7838,4.8573,4.9554,5.0719,5.2627,5.5874,6.1517,6.6989,7.1781,7.535,7.7837,7.988,8.1395,8.2903,8.3713,8.3509,8.4167,8.4411,8.4065,8.3016,8.2238,8.1832,8.0784,8.0209,8.0209,7.9803,7.9634,7.9634,7.9194,7.9566,8.0682,8.0344,8.0378,8.0682,8.0344,8.0209,8.0209,0.0,8.0209,8.0209,8.0209,8.0209,8.0209,8.0209,8.0209,8.0209,8.0209,8.0209,8.0209,8.0209,8.0209,8.0276,8.0648,8.0784,8.0851,8.1257,8.1393,8.1495,8.2051,8.1943,8.2025,8.3432,8.4161,8.4766,8.5646,8.5874,8.5894,8.5894,8.5563,8.5233,8.5233,8.4609,8.4168,8.4535,8.4278,8.4168,8.4535,8.4278,8.4042,8.4042,8.3014,8.2133,8.1709,8.0938,8.0131,7.9339,7.9265,7.8699,7.7399,7.7289,7.7289,7.7289,7.7289,7.7289,7.7289,7.7289,7.7441,7.782,7.7981,7.8316,7.8832,7.9139,7.9621,4.5443,4.5883,4.6517,4.8986,4.9233,4.8994,4.9361,5.0251,5.1032,5.1169,5.238,5.3665,5.4462,5.7214,6.1459,6.7887,7.2035,7.5677,7.9265,8.0904,8.2149,8.3217,8.3903,8.4156,8.378,8.4133,8.4133,8.3524,8.2678,8.19,8.1351,8.0445,7.9938,7.9938,7.9228,7.8855,7.8855,7.828,7.8551,7.9667,7.9667,7.9667,7.9701,7.987,7.9938,7.9938,8.0141,8.0209,8.0209,8.0209,8.0209,8.0209,8.0209,8.0209,8.0209,8.0209,8.0209,8.0209,8.0209,8.031,8.0547,8.1114,8.1418,8.1663,8.2238,8.2408,8.2537,8.3116,8.2806,8.2615,8.3983,8.5044,8.5925,8.6756,8.7264,8.7565,8.7565,8.7068,8.6628,8.6628,8.5857,8.5233,8.5416,8.5123,8.4939,8.5123,8.5013,8.4866,8.4866,8.4168,8.3344,8.2553,8.1929,8.1158,8.0183,7.9926,7.9176,7.7693,7.7399,7.7289,7.7289,7.7289,7.7289,7.7289,7.7289,7.7441,7.782,7.8326,7.8854,7.9436,8.0119,8.0589,4.5443,4.5883,4.6517,4.8986,5.0115,5.1022,5.2517,5.4032,5.5365,5.6124,5.6969,5.7813,5.8609,6.3246,6.8477,7.3309,7.7308,8.0636,8.2933,8.4044,8.4703,8.4889,8.4554,8.4335,8.4498,8.3964,8.3558,8.349,8.2171,8.1384,8.1317,7.9938,7.9194,7.9194,7.845,7.8102,7.8102,7.8034,7.8068,7.817,7.817,7.817,7.8179,7.8855,7.9194,7.9228,7.9904,8.0209,8.0209,8.0209,8.0209,8.0209,8.0209,8.0209,8.0209,8.0209,8.0209,8.0209,8.0209,8.0648,8.1249,8.1283,8.1765,8.234,8.2408,8.2408,8.2563,8.3342,8.3831,8.4388,8.5627,8.6791,8.7798,8.8468,8.8947,8.9216,8.9216,8.9179,8.9143,8.9143,8.7895,8.7068,8.7802,8.6701,8.5967,8.6721,8.6187,8.571,8.571,8.5013,8.4205,8.3381,8.3271,8.261,8.1048,8.0241,7.9449,7.8552,7.7766,7.7289,7.7289,7.7289,7.7289,7.7289,7.7289,7.7493,7.782,7.8216,7.8752,7.9398,8.0037,8.0486,4.5443,4.6287,4.7342,5.0335,5.2464,5.4069,5.5196,5.7838,6.0456,6.1802,6.2732,6.3539,6.4347,6.7871,7.1845,7.54,7.9181,8.2523,8.4745,8.5849,8.636,8.6311,8.5687,8.4993,8.4219,8.3764,8.3118,8.2171,8.119,8.0412,7.9972,7.8957,7.8416,7.8416,7.7705,7.7299,7.7299,7.6826,7.6555,7.6589,7.7536,7.8,7.8034,7.8754,7.9101,7.916,7.987,8.0209,8.0209,8.0209,8.0209,8.0209,8.0209,8.0209,8.0209,8.0209,8.0209,8.0276,8.0716,8.108,8.1452,8.2374,8.2847,8.3186,8.3633,8.3768,8.3926,8.4575,8.5373,8.6054,8.6435,8.7162,8.7982,8.8818,8.9221,8.94,8.94,8.94,8.94,8.94,8.8482,8.7839,8.8133,8.7288,8.6664,8.6941,8.6738,8.6554,8.6554,8.5857,8.5233,8.4903,8.4005,8.2941,8.1856,8.1012,8.0424,8.0131,7.8846,7.7876,7.7326,7.7289,7.7289,7.7289,7.7289,7.7433,7.7673,7.816,7.8661,7.9162,7.9916,8.0449,4.5516,4.6682,4.8223,5.1242,5.419,5.6907,5.9013,6.2022,6.4884,6.6793,6.8054,6.9009,6.9816,7.1982,7.4594,7.7555,8.1039,8.41,8.6193,8.7258,8.7612,8.7052,8.6118,8.5104,8.4027,8.3241,8.2272,8.1046,8.0276,7.9431,7.8483,7.7671,7.7164,7.6927,7.6217,7.5811,7.5811,7.527,7.4999,7.4999,7.6318,7.7029,7.7299,7.8077,7.8551,7.8788,7.9532,7.9972,8.0209,8.0209,8.0209,8.0209,8.0209,8.0209,8.0209,8.0209,8.0209,8.031,8.1021,8.1426,8.1832,8.3084,8.3659,8.3964,8.4444,8.4614,8.4747,8.5428,8.6235,8.6997,8.7455,8.8136,8.8876,8.9566,8.9971,9.017,9.017,9.017,9.017,9.017,8.9528,8.8867,8.861,8.7912,8.7271,8.7014,8.6978,8.6978,8.6978,8.6518,8.6077,8.5837,8.4352,8.3161,8.2627,8.1856,8.1269,8.1012,7.9984,7.8883,7.7766,7.7436,7.7289,7.7289,7.7289,7.7402,7.762,7.809,7.8557,7.9016,7.9843,8.0354,4.57,4.7095,4.893,5.14,5.506,5.9318,6.4224,6.6586,6.8435,7.0866,7.2642,7.4001,7.4793,7.5579,7.7133,8.0219,8.3234,8.5754,8.7297,8.8299,8.8439,8.7146,8.5634,8.4487,8.3959,8.2317,8.0953,8.0242,7.9498,7.845,7.6961,7.6115,7.5337,7.4603,7.3883,7.35,7.35,7.35,7.35,7.3534,7.4255,7.4999,7.5709,7.6521,7.7299,7.8034,7.8788,7.9532,8.0175,8.0209,8.0209,8.0209,8.0209,8.0209,8.0209,8.0209,8.0209,8.031,8.1054,8.1799,8.2543,8.3253,8.3998,8.4614,8.4614,8.4614,8.4766,8.566,8.6235,8.7002,8.8739,8.9893,9.0681,9.111,9.1527,9.1803,9.1803,9.1803,9.1803,9.1803,9.1143,9.0317,8.9546,8.872,8.7949,8.7124,8.6978,8.6978,8.6978,8.6978,8.6701,8.5894,8.4389,8.3418,8.3381,8.2663,8.1856,8.1048,8.1012,8.0277,7.8662,7.7766,7.7326,7.7326,7.7289,7.7402,7.762,7.8014,7.8464,7.9004,7.9757,8.0287,4.6388,4.837,5.0655,5.3078,5.7152,6.1667,6.6012,6.9119,7.2092,7.5689,7.7268,7.7708,7.6775,7.7745,7.9349,8.1243,8.4073,8.6445,8.764,8.8568,8.8539,8.6966,8.5714,8.4352,8.2774,8.1368,8.0209,7.9498,7.7739,7.6521,7.6082,7.483,7.4052,7.3815,7.3635,7.35,7.35,7.35,7.35,7.35,7.3713,7.4221,7.4965,7.6318,7.7029,7.7299,7.8551,7.9203,7.9464,8.0006,8.0209,8.0209,8.0209,8.0209,8.0209,8.0209,8.0209,8.0378,8.1629,8.2238,8.2611,8.3896,8.4411,8.4614,8.4614,8.4614,8.472,8.5194,8.5958,8.6832,8.7865,8.9207,9.0505,9.1263,9.162,9.1803,9.1803,9.1803,9.1803,9.1803,9.1143,9.0317,8.9546,8.872,8.7949,8.7124,8.6978,8.6978,8.6978,8.6978,8.6701,8.5894,8.538,8.4646,8.3491,8.3161,8.27,8.1893,8.1305,8.0534,7.9486,7.8662,7.8222,7.8222,7.7619,7.7341,7.7402,7.792,7.837,7.8752,7.9654,8.0248,4.7232,4.9618,5.2417,5.5133,5.9465,6.4567,7.022,7.3523,7.635,7.98,8.0901,8.0938,7.9895,8.0571,8.1603,8.2771,8.5185,8.7156,8.8027,8.849,8.8311,8.713,8.5157,8.3397,8.2066,8.0427,7.9004,7.7987,7.6536,7.5303,7.4424,7.3544,7.2935,7.2631,7.2631,7.2631,7.2631,7.2631,7.2631,7.2631,7.2902,7.3308,7.3781,7.5303,7.6149,7.6521,7.801,7.8653,7.872,7.9464,7.9769,7.9803,8.0073,8.0209,8.0209,8.0209,8.0209,8.0412,8.19,8.2408,8.2644,8.4106,8.4614,8.4614,8.4614,8.4614,8.4694,8.4985,8.5754,8.6671,8.7503,8.888,9.0283,9.1055,9.1546,9.1803,9.1803,9.1803,9.1803,9.1803,9.14,9.0739,8.9583,8.8996,8.8316,8.7161,8.6978,8.6978,8.6978,8.6978,8.6811,8.6334,8.5967,8.5416,8.4462,8.3748,8.3197,8.27,8.1929,8.1269,8.0771,7.9669,7.9066,7.9066,7.8259,7.7949,7.8295,7.8572,7.9023,7.9631,8.0605,8.1219,4.826,5.0902,5.4205,5.7409,6.2181,6.8041,7.5674,7.8809,8.0755,8.2941,8.3528,8.3601,8.3528,8.3564,8.3858,8.4609,8.6351,8.7814,8.8336,8.8192,8.7821,8.7179,8.4143,8.1978,8.1535,7.9437,7.755,7.62,7.5683,7.4525,7.2496,7.2326,7.1988,7.1323,7.1289,7.1289,7.1289,7.1289,7.1289,7.1289,7.1988,7.2293,7.236,7.3849,7.4931,7.5777,7.7232,7.7967,7.8068,7.872,7.9058,7.9169,7.9837,8.0141,8.0209,8.0209,8.0209,8.0412,8.19,8.2408,8.2644,8.4106,8.4614,8.4614,8.4614,8.4614,8.4667,8.4958,8.566,8.6518,8.7408,8.877,9.0079,9.072,9.1358,9.1803,9.1803,9.1803,9.1803,9.1803,9.1803,9.1289,8.9693,8.94,8.8849,8.7234,8.6978,8.6978,8.6978,8.6978,8.6978,8.6978,8.6334,8.5874,8.58,8.4462,8.3601,8.3491,8.281,8.237,8.2296,8.0755,7.9926,7.9926,7.9103,7.9066,7.9816,7.966,8.0102,8.1126,8.2119,8.2782,4.9701,5.2637,5.5879,5.9098,6.5925,7.301,7.7341,8.0571,8.2757,8.3271,8.4389,8.5086,8.4462,8.4866,8.5343,8.549,8.684,8.776,8.7591,8.7624,8.691,8.4897,8.3333,8.1748,8.0075,7.7874,7.6438,7.6098,7.4259,7.2902,7.2428,7.1853,7.1458,7.1289,7.1289,7.1289,7.1289,7.1289,7.1289,7.1289,7.1458,7.1526,7.1594,7.3071,7.4458,7.5743,7.6724,7.7468,7.8034,7.8145,7.8585,7.9101,7.927,7.9701,8.0209,8.0209,8.0209,8.0412,8.19,8.2408,8.2644,8.4106,8.4614,8.4614,8.4614,8.4614,8.464,8.4694,8.548,8.6444,8.6977,8.8525,9.0038,9.0541,9.1263,9.1803,9.1803,9.1803,9.1803,9.1803,9.1803,9.1289,8.9693,8.94,8.8849,8.7234,8.6978,8.6978,8.6978,8.6978,8.6978,8.6978,8.6831,8.6481,8.5874,8.549,8.5013,8.4389,8.4168,8.3801,8.3161,8.1599,8.0755,8.0755,7.9947,7.9633,7.9816,8.0252,8.0661,8.1126,8.2119,8.3087,5.0692,5.3455,5.7127,6.3466,7.0,7.5616,7.8531,8.1085,8.2904,8.3308,8.5013,8.6261,8.582,8.6077,8.6261,8.5857,8.6655,8.7084,8.6393,8.6104,8.5443,8.3972,8.1994,8.0255,7.9004,7.6769,7.5197,7.4707,7.3277,7.2259,7.1887,7.1515,7.1289,7.1289,7.1289,7.1289,7.1289,7.1289,7.1289,7.1289,7.1289,7.1289,7.1323,7.2462,7.3781,7.5202,7.5608,7.6217,7.6927,7.7299,7.7705,7.8111,7.8797,7.9329,7.9735,8.0073,8.0209,8.0412,8.19,8.2408,8.2644,8.4106,8.4614,8.4614,8.4614,8.472,8.4853,8.4853,8.5703,8.672,8.7218,8.8681,9.0161,9.0641,9.1301,9.1803,9.1803,9.1803,9.1803,9.1803,9.1803,9.1289,8.9693,8.8776,8.7968,8.7124,8.6978,8.6978,8.6978,8.6978,8.6978,8.6978,8.6978,8.6848,8.6407,8.6004,8.56,8.5196,8.4792,8.4425,8.3968,8.2794,8.195,8.1562,8.0791,8.0619,8.1029,8.1207,8.1899,8.3075,8.3995,8.5034,5.1326,5.4373,5.8963,6.7687,7.2936,7.6497,7.8862,8.0828,8.237,8.3051,8.5106,8.6811,8.6811,8.6811,8.6591,8.5894,8.6086,8.6004,8.5115,8.4554,8.3939,8.3242,8.0668,7.8759,7.8056,7.5894,7.4138,7.3301,7.262,7.2022,7.139,7.1312,7.1289,7.1289,7.1289,7.1289,7.1289,7.1289,7.1289,7.1289,7.1289,7.1289,7.1323,7.1921,7.2969,7.4255,7.4492,7.4965,7.5574,7.6352,7.686,7.7198,7.845,7.9092,7.9363,7.9972,8.0209,8.0412,8.19,8.2408,8.2644,8.4106,8.4614,8.4614,8.4614,8.4826,8.509,8.5142,8.6075,8.717,8.7667,8.9011,9.0364,9.0799,9.1377,9.1803,9.1803,9.1803,9.1803,9.1803,9.1693,9.1179,8.984,8.8262,8.7198,8.7198,8.7088,8.6978,8.6978,8.7124,8.7124,8.7014,8.7124,8.7124,8.7014,8.6407,8.6004,8.6004,8.538,8.4939,8.4792,8.4168,8.3434,8.2627,8.1709,8.168,8.2628,8.2422,8.3401,8.544,8.6224,8.7239,5.1326,5.6822,6.3013,6.7857,7.2078,7.5491,7.7252,8.0021,8.2223,8.2333,8.4278,8.5967,8.5967,8.5967,8.593,8.582,8.5289,8.4696,8.424,8.3937,8.3084,8.1138,8.0042,7.8689,7.6921,7.5192,7.4027,7.371,7.2463,7.1658,7.1556,7.139,7.1289,7.1289,7.1289,7.1289,7.1289,7.1289,7.1289,7.1289,7.1289,7.1289,7.1289,7.1391,7.1921,7.2766,7.4052,7.4661,7.4796,7.554,7.6657,7.7874,7.8044,7.8923,8.0073,8.0175,8.0209,8.0412,8.19,8.2408,8.2644,8.4106,8.4614,8.4614,8.4614,8.4826,8.5116,8.5317,8.6325,8.7467,8.7923,8.925,9.0509,9.0839,9.1377,9.1803,9.1803,9.1803,9.1803,9.1803,9.1253,9.0702,9.0464,8.9124,8.8059,8.8059,8.7472,8.6978,8.6978,8.7619,8.7766,8.7051,8.7619,8.7766,8.7051,8.6904,8.6848,8.6848,8.6721,8.6371,8.5673,8.5527,8.5086,8.4315,8.281,8.2541,8.3528,8.3882,8.4818,8.6253,8.7059,8.8117,5.1867,5.6969,6.2316,6.5949,6.9912,7.3546,7.6041,7.8096,7.9727,8.0661,8.2039,8.3508,8.4866,8.5123,8.4976,8.4535,8.3765,8.3021,8.226,8.1683,8.0914,7.9754,7.8801,7.773,7.6524,7.4932,7.3827,7.3385,7.2416,7.1754,7.16,7.139,7.1289,7.1289,7.1289,7.1289,7.1289,7.1289,7.1289,7.1289,7.1289,7.1289,7.1289,7.1289,7.1718,7.2428,7.3105,7.3849,7.4627,7.4965,7.5743,7.6792,7.7638,7.8407,7.9058,7.9904,8.0209,8.0412,8.19,8.2408,8.2644,8.4106,8.4614,8.464,8.4826,8.5194,8.566,8.6175,8.7218,8.8336,8.896,9.0002,9.0939,9.1187,9.1546,9.1803,9.1803,9.1803,9.1803,9.1803,9.1143,9.0592,9.0592,8.962,8.8702,8.828,8.7912,8.7655,8.7655,8.7986,8.8243,8.8335,8.828,8.8059,8.7692,8.7234,8.6978,8.6978,8.6978,8.6848,8.6481,8.604,8.5654,8.527,8.4132,8.386,8.4468,8.4892,8.5837,8.7357,8.8001,8.9036,5.2113,5.5978,5.9979,6.3233,6.7086,7.0866,7.3891,7.5674,7.7142,7.8809,7.9837,8.1012,8.2994,8.3544,8.3508,8.2867,8.2113,8.133,8.0511,7.9873,7.9284,7.8717,7.7833,7.7,7.6302,7.4955,7.3905,7.334,7.2594,7.2038,7.1798,7.1457,7.1289,7.1289,7.1289,7.1289,7.1289,7.1289,7.1289,7.1289,7.1289,7.1289,7.1289,7.1289,7.1616,7.2124,7.2326,7.3138,7.4322,7.4525,7.5168,7.6149,7.7468,7.8111,7.8416,7.9735,8.0209,8.0412,8.19,8.2408,8.2644,8.4106,8.4614,8.4667,8.4985,8.548,8.6059,8.6891,8.7993,8.9069,8.9773,9.0625,9.132,9.1471,9.1657,9.1803,9.1803,9.1803,9.1803,9.1803,9.1326,9.0922,9.0922,9.0244,8.951,8.8904,8.8647,8.85,8.85,8.8683,8.8977,8.9363,8.9033,8.872,8.8536,8.7932,8.7601,8.7601,8.7418,8.7325,8.7325,8.6518,8.6114,8.6114,8.5527,8.5274,8.5365,8.5708,8.6725,8.8327,8.8936,8.981,5.1583,5.3933,5.6613,5.9869,6.3723,6.7393,6.9853,7.2789,7.5491,7.7105,7.8096,7.8993,7.989,8.0681,8.1158,8.1122,8.0461,7.9826,7.9613,7.9523,7.915,7.8134,7.771,7.7095,7.6113,7.5227,7.4563,7.4178,7.3148,7.2454,7.2253,7.1634,7.1289,7.1289,7.1289,7.1289,7.1289,7.1289,7.1289,7.1289,7.1289,7.1289,7.1289,7.1289,7.1323,7.1391,7.209,7.2834,7.3635,7.4322,7.5473,7.6927,7.7696,7.8416,7.916,7.9904,8.0209,8.0412,8.19,8.2408,8.2644,8.4106,8.4614,8.4667,8.4985,8.548,8.6118,8.7085,8.8245,8.9328,9.0017,9.0841,9.1508,9.1508,9.1657,9.1803,9.1803,9.1803,9.1803,9.1803,9.1767,9.173,9.173,9.1069,9.0519,9.0464,8.984,8.9326,8.9326,8.9987,9.0207,8.9473,9.006,9.017,8.94,8.929,8.929,8.929,8.8573,8.8133,8.8133,8.7362,8.6958,8.6958,8.6904,8.6603,8.6069,8.6497,8.7466,8.8883,8.9675,9.028,5.0151,5.2207,5.4583,5.6748,6.0358,6.398,6.6476,6.9105,7.1637,7.3766,7.4882,7.5836,7.7194,7.8956,8.0241,8.0241,7.9543,7.9014,7.8914,7.8458,7.795,7.7594,7.7352,7.7049,7.6578,7.5933,7.5353,7.4806,7.3472,7.2458,7.2016,7.1024,7.0357,7.0076,7.0054,7.0226,7.0601,7.0601,7.0838,7.1289,7.1289,7.1289,7.1289,7.1289,7.1289,7.1289,7.1582,7.2394,7.3534,7.3781,7.4762,7.6251,7.7502,7.8145,7.8551,7.9735,8.0209,8.0412,8.19,8.2408,8.2644,8.4106,8.4614,8.4686,8.5194,8.5712,8.6444,8.7749,8.885,8.9815,9.0645,9.1246,9.1694,9.1694,9.1749,9.1803,9.1803,9.1803,9.1803,9.1803,9.1803,9.1803,9.1803,9.1546,9.1179,9.0702,9.0354,9.017,9.017,9.0427,9.0702,9.0922,9.0739,9.0464,9.017,8.9693,8.94,8.94,8.9143,8.8959,8.8959,8.8702,8.8556,8.8556,8.8556,8.7999,8.6863,8.7349,8.8048,8.893,8.9739,9.0318,4.9344,5.0775,5.2454,5.4326,5.72,6.0236,6.2683,6.5105,6.7614,7.033,7.1541,7.2753,7.4882,7.6659,7.8017,7.8809,7.8516,7.8185,7.8185,7.7656,7.7289,7.7289,7.7186,7.7061,7.6897,7.6409,7.5773,7.5048,7.3695,7.2586,7.1832,7.0764,6.9968,6.9531,6.9446,6.9533,6.9845,7.0082,7.0432,7.0939,7.1176,7.1289,7.1289,7.1289,7.1289,7.1289,7.1289,7.1988,7.3138,7.3398,7.4221,7.5506,7.7299,7.8,7.8179,7.9667,8.0209,8.0412,8.19,8.2408,8.2644,8.4106,8.4614,8.472,8.5194,8.5788,8.6593,8.7889,8.9047,9.01,9.088,9.1452,9.1803,9.1803,9.1803,9.1803,9.1803,9.1803,9.1803,9.1803,9.1803,9.1803,9.1803,9.1803,9.162,9.1069,9.0996,9.0996,9.0996,9.0996,9.1216,9.173,9.1326,9.0996,9.0996,9.0519,9.0207,9.0207,8.995,8.9803,8.9803,8.9546,8.94,8.94,8.94,8.8956,8.8012,8.8576,8.9069,8.9578,9.0523,9.1223,0.0,0.0,0.0,5.2553,5.4363,5.6172,5.8535,6.0921,6.3563,6.6819,6.8164,6.9743,7.2936,7.3575,7.4368,7.6738,7.7215,7.7252,7.7252,7.7252,7.7252,7.7252,7.7165,7.7071,7.7071,7.6607,7.5863,7.4882,7.3869,7.2838,7.1835,7.1015,7.0291,6.9704,6.945,6.9249,6.9101,6.9777,7.0184,7.0217,7.0939,7.1289,7.1289,7.1289,7.1289,7.1289,7.1289,7.1718,7.2428,7.3172,7.3916,7.483,7.7096,7.8,7.8179,7.9667,8.0209,8.0412,8.19,8.2408,8.2644,8.4106,8.4614,8.4667,8.4985,8.566,8.6518,8.7456,8.877,9.0079,9.076,9.1377,9.1803,9.1803,9.1803,9.1803,9.1803,9.1803,9.1803,9.1803,9.1803,9.1803,9.1803,9.1803,9.1803,9.1803,9.1803,9.1803,9.1803,9.1803,9.1803,9.1803,9.1803,9.1803,9.1803,9.1803,9.1803,9.1803,9.1069,9.0629,9.0629,8.9877,8.9473,8.9473,8.9473,8.9473,8.9473,9.0156,9.0636,9.0916,9.2077,9.2994,4.9674,0.0,0.0,0.0,0.0,0.0,5.5574,5.7593,5.9905,6.1998,6.4016,6.6219,6.8875,7.0293,7.1505,7.2775,7.4903,7.6225,7.5637,7.6041,7.6225,7.5637,7.6047,7.6399,7.6399,7.6152,7.5821,7.5406,7.3829,7.2534,7.1818,7.0295,6.9312,6.8981,6.8498,6.8487,6.8973,6.8863,6.9372,7.0425,7.0487,7.077,7.1289,7.1289,7.1289,7.1289,7.1289,7.1447,7.1718,7.2969,7.3916,7.483,7.7096,7.8,7.8179,7.9667,8.0209,8.0412,8.19,8.2408,8.2644,8.4106,8.4614,8.4667,8.4985,8.566,8.6518,8.7456,8.877,9.0146,9.1265,9.1694,9.1803,9.1803,9.1803,9.1803,9.1803,9.1803,9.1803,9.1803,9.1803,9.1803,9.1803,9.1803,9.1803,9.1803,9.1803,9.1803,9.1803,9.1803,9.1803,9.1803,9.1803,9.1803,9.1803,9.1803,9.1803,9.1803,9.1583,9.1473,9.1473,9.1253,9.1143,9.1143,9.1143,9.1143,9.1143,9.0711,9.0636,9.0916,9.2277,9.318,0.0,0.0,0.0,5.1316,0.0,0.0,5.3335,5.4473,5.6051,5.7997,5.9795,6.1998,6.5081,6.6439,6.754,6.9032,7.1431,7.3413,7.4294,7.5102,7.5417,7.494,7.5307,7.5616,7.5616,7.5464,7.5217,7.4759,7.352,7.2416,7.1529,7.0362,6.9508,6.9101,6.8667,6.8507,6.8699,6.8699,6.9225,7.0294,7.0333,7.0722,7.1412,7.1356,7.1289,7.1289,7.1289,7.1289,7.1391,7.2563,7.3477,7.4356,7.6657,7.7705,7.8179,7.9667,8.0209,8.0412,8.19,8.2408,8.2644,8.4106,8.4614,8.464,8.4826,8.5558,8.6469,8.7194,8.8748,9.0445,9.1509,9.1803,9.1803,9.1803,9.1803,9.1803,9.1803,9.1803,9.1803,9.1803,9.1803,9.1803,9.1803,9.1803,9.1803,9.1803,9.1803,9.1803,9.1803,9.1803,9.1803,9.1803,9.1803,9.1803,9.1803,9.1803,9.1803,9.1803,9.1803,9.1803,9.1803,9.1803,9.1803,9.1803,9.1803,9.1966,9.2249,9.175,9.1901,9.2672,9.3657,9.4352,0.0,0.0,0.0,0.0,5.1536,0.0,5.1877,5.1987,5.2611,5.4777,5.5831,5.7545,6.1325,6.2132,6.305,6.5448,6.7173,6.9376,7.2679,7.3964,7.4463,7.439,7.4463,7.45,7.45,7.438,7.4049,7.3302,7.2869,7.2133,7.091,7.0698,7.0332,6.9654,6.9491,6.9141,6.8613,6.8996,6.9497,7.0134,7.0337,7.0905,7.171,7.1479,7.1401,7.1424,7.1356,7.1334,7.1368,7.2022,7.2766,7.3737,7.5912,7.7266,7.817,7.9566,8.0141,8.0412,8.1799,8.234,8.2618,8.4005,8.4512,8.4614,8.4667,8.5428,8.6444,8.7122,8.8924,9.0799,9.1601,9.1803,9.1803,9.1803,9.1803,9.1803,9.1803,9.1803,9.1803,9.1803,9.1803,9.1803,9.1803,9.1803,9.1803,9.1803,9.1803,9.1803,9.1803,9.1803,9.1803,9.1803,9.1803,9.1803,9.1803,9.1803,9.1803,9.1803,9.1803,9.1803,9.1803,9.1803,9.1803,9.1803,9.1803,9.2143,9.2914,9.2909,9.3695,9.5115,9.5448,9.5846,0.0,0.0,0.0,0.0,5.238,0.0,5.2097,5.1987,5.2134,5.2611,5.3335,5.4535,5.6613,5.807,5.9538,6.13,6.2939,6.5362,6.9302,7.1087,7.1747,7.1101,7.16,7.2004,7.2004,7.1975,7.1888,7.1741,7.096,7.0318,6.9899,7.0191,7.0233,6.9944,7.0084,7.0113,7.0008,6.9355,6.9706,7.0952,7.0395,7.0894,7.239,7.205,7.1942,7.2094,7.1722,7.1534,7.1546,7.1514,7.2293,7.3669,7.5303,7.6758,7.8111,7.8991,7.9701,8.031,8.119,8.19,8.2543,8.3422,8.4133,8.4667,8.4906,8.5609,8.673,8.8748,9.0043,9.0995,9.1638,9.1803,9.1803,9.1803,9.1803,9.1803,9.1803,9.1803,9.1803,9.1803,9.1803,9.1803,9.1803,9.1803,9.1803,9.1803,9.1803,9.1803,9.1803,9.1803,9.1803,9.1803,9.1803,9.1803,9.1803,9.1803,9.1803,9.1803,9.1803,9.1803,9.1803,9.1803,9.1803,9.1803,9.1803,9.2143,9.2914,9.3115,9.3877,9.5115,9.5448,9.5846,0.0,0.0,0.0,5.3896,0.0,0.0,0.0,5.227,5.1877,5.1463,5.172,5.238,5.3566,5.4803,5.6124,5.774,5.9355,6.1398,6.4261,6.7086,6.8898,6.8898,6.9265,6.9486,6.9486,6.9889,7.0279,7.066,7.026,6.9941,6.977,6.9989,7.0145,7.0284,7.0446,7.0597,7.0775,7.0183,7.0485,7.1798,7.1089,7.1553,7.308,7.2644,7.2467,7.2424,7.1973,7.171,7.1612,7.1774,7.2496,7.3635,7.4728,7.6318,7.8077,7.8822,7.9566,8.031,8.1021,8.1765,8.2543,8.341,8.4242,8.4932,8.5377,8.6275,8.7597,8.9521,9.0445,9.1053,9.1657,9.1803,9.1803,9.1803,9.1803,9.1803,9.1803,9.1803,9.1803,9.1803,9.1803,9.1803,9.1803,9.1803,9.1803,9.1803,9.1803,9.1803,9.1803,9.1803,9.1803,9.1803,9.1803,9.1803,9.1803,9.1803,9.1803,9.1803,9.1803,9.1803,9.1803,9.1803,9.1803,9.1803,9.1803,9.2143,9.2914,9.3157,9.3934,9.5115,9.5448,9.5846,0.0,0.0,0.0,0.0,0.0,5.4656,0.0,0.0,0.0,5.1206,5.0912,5.0986,5.1657,5.2307,5.3214,5.4667,5.6136,5.7629,5.9245,6.2438,6.5154,6.6599,6.6746,6.6746,6.6746,6.7357,6.8054,6.8862,6.8935,6.9041,6.9245,6.9392,6.9718,7.0258,7.0541,7.0841,7.1178,7.0921,7.1415,7.262,7.1968,7.2475,7.3944,7.3432,7.3107,7.2922,7.2446,7.2038,7.1778,7.2316,7.2948,7.3648,7.4322,7.598,7.8044,7.8686,7.9431,8.0276,8.0885,8.1663,8.2535,8.3396,8.4497,8.5549,8.6084,8.7289,8.8681,8.9919,9.0625,9.1149,9.1675,9.1803,9.1803,9.1803,9.1803,9.1803,9.1803,9.1803,9.1803,9.1803,9.1803,9.1803,9.1803,9.1803,9.1803,9.1803,9.1803,9.1803,9.1803,9.1803,9.1803,9.1803,9.1803,9.1803,9.1803,9.1803,9.1803,9.1803,9.1803,9.1803,9.1803,9.1803,9.1803,9.1803,9.1803,9.2143,9.2914,9.3157,9.3934,9.5115,9.5448,9.5846,0.0,0.0,0.0,0.0,5.7116,0.0,0.0,0.0,5.2847,5.2024,0.0,5.0839,5.0912,0.0,0.0,5.2281,5.3151,5.4326,5.5915,5.7152,5.9269,6.2903,6.3343,6.3343,6.3343,6.3453,6.3857,6.4727,6.48,6.5411,6.6816,6.7564,6.8307,6.9073,7.0374,7.1056,7.1121,7.1132,7.1936,7.3454,7.2745,7.3349,7.519,7.4581,7.4316,7.4258,7.3417,7.2748,7.2258,7.2793,7.3356,7.3878,7.4393,7.598,7.8034,7.8077,7.8991,8.0209,8.031,8.1257,8.2433,8.2811,8.468,8.6856,8.7361,8.8525,8.9794,9.0308,9.0939,9.1508,9.1749,9.1803,9.1803,9.1803,9.1803,9.1803,9.1803,9.1803,9.1803,9.1803,9.1803,9.1803,9.1803,9.1803,9.1803,9.1803,9.1803,9.1803,9.1803,9.1803,9.1803,9.1803,9.1803,9.1803,9.1803,9.1803,9.1803,9.1803,9.1803,9.1803,9.1803,9.1803,9.1803,9.1803,9.1803,9.2143,9.2914,9.3157,9.3934,9.5115,9.5448,9.5846,0.0,0.0,0.0,0.0,0.0,0.0,5.7189,0.0,5.4939,0.0,0.0,0.0,0.0,0.0,0.0,0.0,5.1977,5.2747,5.3419,5.3812,5.55,5.9538,6.0015,6.0382,6.1325,6.1851,6.2438,6.3282,6.3796,6.4396,6.5057,6.6292,6.7357,6.8164,6.9724,7.0745,7.1207,7.1638,7.2611,7.4047,7.3671,7.4333,7.5917,7.5442,7.5064,7.4806,7.3987,7.3264,7.2761,7.3753,7.4221,7.4478,7.6097,7.7345,7.823,7.8705,7.942,8.0234,8.0385,8.1385,8.2922,8.4686,8.6516,8.8118,8.8615,8.9442,9.0328,9.0783,9.1189,9.1564,9.1749,9.1803,9.1803,9.1803,9.1803,9.1803,9.1803,9.1803,9.1803,9.1803,9.1803,9.1803,9.1803,9.1803,9.1803,9.1803,9.1803,9.1803,9.1803,9.1803,9.1803,9.1803,9.1803,9.1803,9.1803,9.1803,9.1803,9.1803,9.1803,9.1803,9.1803,9.1803,9.1803,9.1803,9.1803,9.2143,9.2914,9.3157,9.3934,9.5115,9.5448,9.5846,6.1741,0.0,0.0,0.0,0.0,0.0,0.0,0.0,0.0,0.0,0.0,0.0,0.0,0.0,0.0,0.0,0.0,5.1693,5.1693,5.1693,5.2931,5.6271,5.6895,5.7556,5.8951,5.9612,6.0272,6.1104,6.1961,6.2707,6.3368,6.4971,6.6292,6.7333,6.9155,7.0367,7.0977,7.186,7.3008,7.4493,7.4337,7.5047,7.6492,7.6138,7.5759,7.5371,7.4638,7.4049,7.3737,7.4795,7.5297,7.5604,7.8064,7.8913,7.8845,7.9401,7.9939,8.0494,8.0864,8.221,8.4146,8.6501,8.8118,8.9199,8.9548,9.0207,9.0861,9.1206,9.1433,9.162,9.1767,9.1803,9.1803,9.1803,9.1803,9.1803,9.1803,9.1803,9.1803,9.1803,9.1803,9.1803,9.1803,9.1803,9.1803,9.1803,9.1803,9.1803,9.1803,9.1803,9.1803,9.1803,9.1803,9.1803,9.1803,9.1803,9.1803,9.1803,9.1803,9.1803,9.1803,9.1803,9.1803,9.1803,9.1803,9.2143,9.2914,9.3157,9.3934,9.5115,9.5448,9.5846,0.0,0.0,0.0,6.3992,0.0,0.0,0.0,0.0,5.6774,0.0,0.0,0.0,0.0,0.0,0.0,0.0,0.0,0.0,0.0,5.0839,5.1453,5.3141,5.4032,5.484,5.5658,5.5768,5.6136,5.6921,5.774,5.9208,6.1569,6.3258,6.491,6.6476,6.8862,7.011,7.0146,7.1581,7.3104,7.4677,7.4493,7.5333,7.7077,7.685,7.6538,7.6135,7.5566,7.5343,7.5376,7.5911,7.6602,7.7521,7.9887,8.0496,8.0024,7.9859,8.0287,8.1083,8.1815,8.3839,8.6324,8.7642,8.8858,8.9878,9.012,9.0783,9.149,9.149,9.1638,9.1803,9.1803,9.1803,9.1803,9.1803,9.1803,9.1803,9.1803,9.1803,9.1803,9.1803,9.1803,9.1803,9.1803,9.1803,9.1803,9.1803,9.1803,9.1803,9.1803,9.1803,9.1803,9.1803,9.1803,9.1803,9.1803,9.1803,9.1803,9.1803,9.1803,9.1803,9.1803,9.1803,9.1803,9.1803,9.1803,9.2143,9.2914,9.3157,9.3934,9.5115,9.5448,9.5846,0.0,0.0,6.4897,6.4897,0.0,0.0,0.0,0.0,0.0,0.0,0.0,0.0,0.0,0.0,0.0,0.0,0.0,0.0,0.0,4.9517,4.9554,5.0618,5.2454,5.3922,5.473,5.5291,5.5695,5.5989,5.6748,5.7776,5.9146,6.1276,6.3221,6.4861,6.776,6.9559,7.0073,7.2196,7.378,7.4829,7.5297,7.6139,7.7233,7.7077,7.685,7.659,7.6596,7.6428,7.629,7.7398,7.8015,7.8406,8.0836,8.1538,8.1239,8.1297,8.1286,8.1482,8.3398,8.5529,8.7594,8.887,8.9961,9.0802,9.0997,9.134,9.1712,9.1712,9.1749,9.1803,9.1803,9.1803,9.1803,9.1803,9.1803,9.1803,9.1803,9.1803,9.1803,9.1803,9.1803,9.1803,9.1803,9.1803,9.1803,9.1803,9.1803,9.1803,9.1803,9.1803,9.1803,9.1803,9.1803,9.1803,9.1803,9.1803,9.1803,9.1803,9.1803,9.1803,9.1803,9.2354,9.2391,9.1803,9.2354,9.2733,9.2914,9.3157,9.3934,9.5115,9.5448,9.5846,6.7026,6.6806,0.0,6.6219,6.4921,0.0,6.3306,0.0,6.0823,0.0,0.0,0.0,0.0,0.0,0.0,0.0,0.0,0.0,0.0,4.9554,4.9481,5.0288,5.1279,5.2234,5.3041,5.3592,5.4006,5.43,5.506,5.6113,5.7483,5.9869,6.2071,6.4029,6.721,6.9398,7.0513,7.2642,7.4258,7.5322,7.5836,7.6518,7.731,7.7217,7.7239,7.734,7.7456,7.7605,7.7919,7.8781,7.9462,8.0165,8.186,8.2525,8.2542,8.2492,8.2604,8.3089,8.5047,8.707,8.8945,8.994,9.0724,9.1339,9.1471,9.1657,9.1803,9.1803,9.1803,9.1803,9.1803,9.1803,9.1803,9.1803,9.1803,9.1803,9.1803,9.1803,9.1803,9.1803,9.1803,9.1803,9.1803,9.1803,9.1803,9.1803,9.1803,9.1803,9.1803,9.1803,9.1803,9.1803,9.1803,9.1803,9.1803,9.1803,9.1803,9.1803,9.1803,9.1803,9.1803,9.2648,9.2684,9.1803,9.2703,9.3081,9.2914,9.3267,9.4034,9.5115,9.5455,9.5887]}]]